[[{"header":{"parameterUnit":"m.s-1","parameterCategory":1,"la1":30.6,"la2":29.2853,"lo1":-89.7004,"lo2":-87.6739,"dy":0.0162,"dx":0.0183,"nx":112,"ny":82,"refTime":"2023-04-21T12:00:00:Z","depth":0,"parameterNumber":2,"parameterNumberName":"U-component_of_WINDS"},"data":[0.0,0.0,0.0,0.0,0.0,0.0,0.0,0.0,0.0,0.0,0.0,0.0,0.0,0.0,0.0,0.0,0.0,0.0,0.0,0.0,0.0,0.0,0.0,0.0,0.0,0.0,0.0,0.0,0.0,0.0,0.0,0.0,0.0,0.0,0.0,0.0,0.0,0.0,0.0,0.0,0.0,0.0,0.0,0.0,0.0,0.0,0.0,0.0,0.0,0.0,0.0,0.0,0.0,0.0,0.0,0.0,0.0,0.0,0.0,0.0,0.0,0.0,0.0,0.0,0.0,0.0,0.0,0.0,0.0,0.0,0.0,0.0,0.0,0.0,0.0,0.0,0.0,0.0,0.0,0.0,0.0,0.0,0.0,0.0,0.0,0.0,0.0,0.0,0.0,0.0,3.9731,4.2814,4.3907,4.3835,4.2366,4.1948,4.1393,4.0494,0.0,0.0,0.0,0.0,0.0,0.0,0.0,0.0,0.0,0.0,0.0,0.0,0.0,0.0,0.0,0.0,0.0,0.0,0.0,0.0,0.0,0.0,0.0,0.0,0.0,0.0,0.0,0.0,0.0,0.0,0.0,0.0,0.0,0.0,0.0,0.0,0.0,0.0,0.0,0.0,0.0,0.0,0.0,0.0,0.0,0.0,0.0,0.0,0.0,0.0,0.0,0.0,0.0,0.0,0.0,0.0,0.0,0.0,0.0,0.0,0.0,0.0,0.0,0.0,0.0,0.0,0.0,0.0,0.0,0.0,0.0,0.0,0.0,0.0,0.0,0.0,0.0,0.0,0.0,0.0,0.0,0.0,0.0,0.0,0.0,0.0,0.0,0.0,0.0,0.0,0.0,0.0,0.0,0.0,0.0,0.0,0.0,0.0,0.0,0.0,0.0,0.0,0.0,0.0,4.2113,4.3598,4.3413,4.3055,4.2813,4.1059,4.0305,4.1021,0.0,0.0,0.0,0.0,0.0,0.0,0.0,0.0,0.0,0.0,0.0,0.0,0.0,0.0,0.0,0.0,0.0,0.0,0.0,0.0,0.0,0.0,0.0,0.0,0.0,0.0,0.0,0.0,0.0,0.0,0.0,0.0,0.0,0.0,0.0,0.0,0.0,0.0,0.0,0.0,0.0,0.0,0.0,0.0,0.0,0.0,0.0,0.0,0.0,0.0,0.0,0.0,0.0,0.0,0.0,0.0,0.0,0.0,0.0,0.0,0.0,0.0,0.0,0.0,0.0,0.0,0.0,0.0,0.0,0.0,0.0,0.0,0.0,0.0,0.0,0.0,0.0,0.0,0.0,0.0,0.0,0.0,0.0,0.0,0.0,0.0,0.0,0.0,0.0,0.0,0.0,0.0,0.0,0.0,0.0,0.0,0.0,0.0,0.0,0.0,0.0,0.0,0.0,4.0605,4.1763,4.198,4.1948,4.1647,4.0937,3.95,3.8824,3.9292,3.8581,0.0,0.0,0.0,0.0,0.0,0.0,0.0,0.0,0.0,0.0,0.0,0.0,0.0,0.0,0.0,0.0,0.0,0.0,0.0,0.0,0.0,0.0,0.0,0.0,0.0,0.0,0.0,0.0,0.0,0.0,0.0,0.0,0.0,0.0,0.0,0.0,0.0,0.0,0.0,0.0,0.0,0.0,0.0,0.0,0.0,0.0,0.0,0.0,0.0,0.0,0.0,0.0,0.0,0.0,0.0,0.0,0.0,0.0,0.0,0.0,0.0,0.0,0.0,0.0,0.0,0.0,0.0,0.0,0.0,0.0,0.0,0.0,0.0,0.0,0.0,0.0,0.0,0.0,0.0,0.0,0.0,0.0,0.0,0.0,0.0,0.0,0.0,0.0,0.0,0.0,0.0,0.0,0.0,0.0,0.0,0.0,0.0,0.0,0.0,0.0,0.0,0.0,3.9712,4.0141,4.054,4.0631,4.0239,3.9275,3.8441,3.8004,3.8086,3.6781,0.0,0.0,0.0,0.0,0.0,0.0,0.0,0.0,0.0,0.0,0.0,0.0,0.0,0.0,0.0,0.0,0.0,0.0,0.0,0.0,0.0,0.0,0.0,0.0,0.0,0.0,0.0,0.0,0.0,0.0,0.0,0.0,0.0,0.0,0.0,0.0,0.0,0.0,0.0,0.0,0.0,0.0,0.0,0.0,0.0,0.0,0.0,0.0,0.0,0.0,0.0,0.0,0.0,0.0,0.0,0.0,0.0,0.0,0.0,0.0,0.0,0.0,0.0,0.0,0.0,0.0,0.0,0.0,0.0,0.0,0.0,0.0,0.0,0.0,0.0,0.0,0.0,0.0,0.0,0.0,0.0,0.0,0.0,0.0,0.0,0.0,0.0,0.0,0.0,0.0,0.0,0.0,0.0,0.0,0.0,0.0,0.0,0.0,0.0,0.0,0.0,0.0,3.8293,3.7562,4.0731,4.0012,3.9304,3.9216,3.874,3.8692,3.9256,3.6742,0.0,0.0,0.0,0.0,0.0,0.0,0.0,0.0,0.0,0.0,0.0,0.0,0.0,0.0,0.0,0.0,0.0,0.0,0.0,0.0,0.0,0.0,0.0,0.0,0.0,0.0,0.0,0.0,0.0,0.0,0.0,0.0,0.0,0.0,0.0,0.0,0.0,0.0,0.0,0.0,0.0,0.0,0.0,0.0,0.0,0.0,0.0,0.0,0.0,0.0,0.0,0.0,0.0,0.0,0.0,0.0,0.0,0.0,0.0,0.0,0.0,0.0,0.0,0.0,0.0,0.0,0.0,0.0,0.0,0.0,0.0,0.0,0.0,0.0,0.0,0.0,0.0,0.0,0.0,0.0,0.0,0.0,0.0,0.0,0.0,0.0,0.0,0.0,0.0,0.0,0.0,0.0,0.0,0.0,0.0,0.0,0.0,0.0,0.0,0.0,0.0,0.0,3.8792,3.7793,0.0,3.8826,3.7984,3.7796,3.7074,3.6851,3.7369,0.0,0.0,0.0,0.0,0.0,0.0,0.0,0.0,0.0,0.0,0.0,0.0,0.0,0.0,0.0,0.0,0.0,0.0,0.0,0.0,0.0,0.0,0.0,0.0,0.0,0.0,0.0,0.0,0.0,0.0,0.0,0.0,0.0,0.0,0.0,0.0,0.0,0.0,0.0,0.0,0.0,0.0,0.0,0.0,0.0,0.0,0.0,0.0,0.0,0.0,0.0,0.0,0.0,0.0,0.0,0.0,0.0,0.0,0.0,0.0,0.0,0.0,0.0,0.0,0.0,0.0,0.0,0.0,0.0,0.0,0.0,0.0,0.0,0.0,0.0,0.0,0.0,0.0,0.0,0.0,0.0,0.0,0.0,0.0,0.0,0.0,0.0,0.0,0.0,0.0,0.0,0.0,0.0,0.0,0.0,0.0,0.0,0.0,0.0,0.0,0.0,0.0,4.0272,3.8349,3.7215,0.0,3.7563,3.7002,3.6758,3.6028,3.5797,3.6325,0.0,0.0,0.0,0.0,0.0,0.0,0.0,0.0,0.0,0.0,0.0,0.0,0.0,0.0,0.0,0.0,0.0,0.0,0.0,0.0,0.0,0.0,0.0,0.0,0.0,0.0,0.0,0.0,0.0,0.0,0.0,0.0,0.0,0.0,0.0,0.0,0.0,0.0,0.0,0.0,0.0,0.0,0.0,0.0,0.0,0.0,0.0,0.0,0.0,0.0,0.0,0.0,0.0,0.0,0.0,0.0,0.0,0.0,0.0,0.0,0.0,0.0,0.0,0.0,0.0,0.0,0.0,0.0,0.0,0.0,0.0,0.0,0.0,0.0,0.0,0.0,0.0,0.0,0.0,0.0,0.0,0.0,0.0,0.0,0.0,0.0,0.0,0.0,0.0,0.0,0.0,0.0,0.0,0.0,0.0,0.0,0.0,0.0,0.0,0.0,0.0,0.0,3.8622,3.6611,3.538,3.6286,3.6392,3.6392,3.6392,3.5946,3.5962,0.0,0.0,0.0,0.0,0.0,0.0,0.0,0.0,0.0,0.0,0.0,0.0,0.0,0.0,0.0,0.0,0.0,0.0,0.0,0.0,0.0,0.0,0.0,0.0,0.0,0.0,0.0,0.0,0.0,0.0,0.0,0.0,0.0,0.0,0.0,0.0,0.0,0.0,0.0,0.0,0.0,0.0,0.0,0.0,0.0,0.0,0.0,0.0,0.0,0.0,0.0,0.0,0.0,0.0,0.0,0.0,0.0,0.0,0.0,0.0,0.0,0.0,0.0,0.0,0.0,0.0,0.0,0.0,0.0,0.0,0.0,0.0,0.0,0.0,0.0,0.0,0.0,0.0,0.0,0.0,0.0,0.0,0.0,0.0,0.0,0.0,0.0,0.0,0.0,0.0,0.0,0.0,0.0,0.0,0.0,0.0,0.0,0.0,0.0,0.0,0.0,0.0,0.0,3.8074,3.6619,3.5742,3.6328,3.6392,3.63,3.6086,3.5348,3.5117,3.5614,0.0,0.0,0.0,0.0,0.0,0.0,0.0,0.0,0.0,0.0,0.0,0.0,0.0,0.0,0.0,0.0,0.0,0.0,0.0,0.0,0.0,0.0,0.0,0.0,0.0,0.0,0.0,0.0,0.0,0.0,0.0,0.0,0.0,0.0,0.0,0.0,0.0,0.0,0.0,0.0,0.0,0.0,0.0,0.0,0.0,0.0,0.0,0.0,0.0,0.0,0.0,0.0,0.0,0.0,0.0,0.0,0.0,0.0,0.0,0.0,0.0,0.0,0.0,0.0,0.0,0.0,0.0,0.0,0.0,0.0,0.0,0.0,0.0,0.0,0.0,0.0,0.0,0.0,0.0,0.0,0.0,0.0,0.0,0.0,0.0,0.0,0.0,0.0,0.0,0.0,0.0,0.0,0.0,0.0,0.0,0.0,0.0,0.0,0.0,0.0,0.0,0.0,3.7658,3.6669,3.6045,3.6498,3.654,3.6415,3.5987,3.5329,3.487,3.4787,0.0,0.0,0.0,0.0,0.0,0.0,0.0,0.0,0.0,0.0,0.0,0.0,0.0,0.0,0.0,0.0,0.0,0.0,0.0,0.0,0.0,0.0,0.0,0.0,0.0,0.0,0.0,0.0,0.0,0.0,0.0,0.0,0.0,0.0,0.0,0.0,0.0,0.0,0.0,0.0,0.0,0.0,0.0,0.0,0.0,0.0,0.0,0.0,0.0,0.0,0.0,0.0,0.0,0.0,0.0,0.0,0.0,0.0,0.0,0.0,0.0,0.0,0.0,0.0,0.0,0.0,0.0,0.0,0.0,0.0,0.0,0.0,0.0,0.0,0.0,0.0,0.0,0.0,0.0,0.0,0.0,0.0,0.0,0.0,0.0,0.0,0.0,0.0,0.0,0.0,0.0,0.0,0.0,0.0,0.0,0.0,0.0,0.0,0.0,0.0,0.0,0.0,3.7309,3.6682,3.6287,3.6763,3.6804,3.6618,3.6142,3.5656,3.5045,3.4226,0.0,0.0,0.0,0.0,0.0,0.0,0.0,0.0,0.0,0.0,0.0,0.0,0.0,0.0,0.0,0.0,0.0,0.0,0.0,0.0,0.0,0.0,0.0,0.0,0.0,0.0,0.0,0.0,0.0,0.0,0.0,0.0,0.0,0.0,0.0,0.0,0.0,0.0,0.0,0.0,0.0,0.0,0.0,0.0,0.0,0.0,0.0,0.0,0.0,0.0,0.0,0.0,0.0,0.0,0.0,0.0,0.0,0.0,0.0,0.0,3.5331,3.5644,0.0,0.0,0.0,0.0,0.0,0.0,0.0,0.0,0.0,0.0,0.0,0.0,0.0,0.0,0.0,0.0,0.0,0.0,0.0,0.0,0.0,0.0,0.0,0.0,0.0,0.0,0.0,0.0,0.0,0.0,0.0,0.0,0.0,0.0,0.0,0.0,0.0,0.0,0.0,0.0,3.6705,3.6384,3.6287,3.6763,3.6804,3.6618,3.6142,3.5656,3.519,3.4682,3.4288,0.0,0.0,0.0,0.0,0.0,0.0,0.0,0.0,0.0,0.0,0.0,0.0,0.0,0.0,0.0,0.0,0.0,0.0,0.0,0.0,0.0,0.0,0.0,0.0,0.0,0.0,0.0,0.0,0.0,0.0,0.0,0.0,0.0,0.0,0.0,0.0,0.0,0.0,0.0,0.0,0.0,0.0,0.0,0.0,0.0,0.0,0.0,0.0,0.0,0.0,0.0,0.0,0.0,0.0,0.0,0.0,0.0,0.0,0.0,3.6307,3.61,0.0,0.0,0.0,0.0,0.0,0.0,0.0,0.0,0.0,0.0,0.0,0.0,0.0,0.0,0.0,0.0,0.0,0.0,0.0,0.0,0.0,0.0,0.0,0.0,0.0,0.0,0.0,0.0,0.0,0.0,0.0,0.0,0.0,0.0,0.0,0.0,0.0,0.0,0.0,0.0,3.6644,3.6735,3.6949,3.7425,3.7467,3.7198,3.6494,3.6225,3.5707,3.4848,3.4765,0.0,0.0,0.0,0.0,0.0,0.0,0.0,0.0,0.0,0.0,0.0,0.0,0.0,0.0,0.0,0.0,0.0,0.0,0.0,0.0,0.0,0.0,0.0,0.0,0.0,0.0,0.0,0.0,0.0,0.0,0.0,0.0,0.0,0.0,0.0,0.0,0.0,0.0,0.0,0.0,0.0,0.0,0.0,0.0,0.0,0.0,0.0,0.0,0.0,0.0,0.0,0.0,0.0,3.716,3.7477,3.7858,3.7858,3.794,3.7996,3.7582,3.6918,3.6216,3.6959,0.0,0.0,0.0,0.0,0.0,0.0,0.0,0.0,0.0,0.0,0.0,0.0,0.0,0.0,0.0,0.0,0.0,0.0,0.0,0.0,0.0,0.0,3.6804,3.6804,3.6804,3.6746,3.6623,0.0,0.0,0.0,0.0,0.0,0.0,0.0,0.0,0.0,0.0,0.0,3.6742,3.7136,3.7591,3.8129,3.8191,3.7839,3.6991,3.6846,3.6287,3.5096,3.5252,3.5086,0.0,0.0,0.0,0.0,0.0,0.0,0.0,0.0,0.0,0.0,0.0,0.0,0.0,0.0,0.0,0.0,0.0,0.0,0.0,0.0,0.0,0.0,0.0,0.0,0.0,0.0,0.0,0.0,0.0,0.0,0.0,0.0,3.0917,3.2131,0.0,0.0,0.0,0.0,0.0,0.0,0.0,0.0,0.0,0.0,0.0,0.0,0.0,3.6825,3.7218,3.7677,3.7926,3.7988,3.8055,3.8075,3.8138,3.8138,3.8179,3.8175,3.8478,0.0,3.7316,3.7724,0.0,0.0,0.0,0.0,0.0,0.0,0.0,0.0,0.0,0.0,0.0,0.0,0.0,0.0,0.0,0.0,0.0,0.0,0.0,0.0,0.0,0.0,3.6804,3.6804,3.6804,3.6919,3.7254,3.7005,3.6682,3.6682,3.6319,3.6018,0.0,0.0,0.0,0.0,0.0,0.0,3.6701,3.6846,3.7218,3.8121,3.8191,3.7964,3.7446,3.7032,3.6556,3.5976,3.5604,3.5345,3.5221,3.4972,0.0,0.0,0.0,0.0,0.0,0.0,0.0,0.0,0.0,0.0,0.0,0.0,0.0,0.0,0.0,0.0,0.0,0.0,0.0,0.0,0.0,0.0,0.0,0.0,0.0,0.0,0.0,0.0,0.0,3.2564,3.2296,3.3738,3.3401,3.3304,0.0,0.0,0.0,0.0,0.0,0.0,0.0,0.0,0.0,3.726,3.7467,3.7674,3.7881,3.8088,3.844,3.8923,3.8923,3.9206,3.9737,3.9737,3.9737,3.9737,3.9909,3.962,3.8991,3.8358,3.7696,3.7029,0.0,0.0,0.0,0.0,3.6933,3.6804,3.6965,3.6933,3.6804,3.6965,0.0,0.0,0.0,0.0,0.0,0.0,0.0,3.7239,3.7508,3.7591,3.7632,3.7868,3.7757,3.7715,3.8117,3.7902,3.7508,3.7239,3.6825,3.6494,3.6494,3.6328,0.0,0.0,0.0,3.6432,3.7115,3.7198,3.7446,3.8109,3.8191,3.8005,3.7529,3.7074,3.6618,3.6142,3.5656,3.5387,3.5387,3.5231,3.5128,0.0,0.0,0.0,0.0,0.0,0.0,0.0,0.0,0.0,0.0,0.0,0.0,0.0,0.0,0.0,0.0,0.0,0.0,0.0,0.0,0.0,0.0,0.0,0.0,0.0,0.0,0.0,0.0,3.3419,3.2868,3.4312,3.3585,3.3268,0.0,0.0,0.0,0.0,0.0,0.0,3.7632,3.7777,3.8046,3.8523,3.875,3.8971,3.9074,3.9198,3.9558,4.0241,4.0241,4.0593,4.127,4.127,4.127,4.125,4.1146,4.0814,4.0282,3.9288,3.8336,3.7508,3.7632,3.7612,3.7508,3.7508,3.7508,3.7508,3.7508,3.7508,3.7488,3.7331,3.726,3.7156,3.7156,0.0,0.0,0.0,0.0,3.7777,3.8233,3.8357,3.846,3.8882,3.8737,3.8647,3.9068,3.882,3.8357,3.7777,3.7301,3.697,3.697,3.6887,0.0,0.0,0.0,3.697,3.7446,3.7488,3.7674,3.8129,3.8191,3.8046,3.7695,3.7239,3.6825,3.6494,3.6039,3.5769,3.5769,3.5635,3.5573,3.5573,0.0,0.0,0.0,0.0,0.0,0.0,0.0,0.0,0.0,0.0,0.0,0.0,0.0,0.0,0.0,0.0,0.0,0.0,0.0,0.0,0.0,0.0,0.0,0.0,0.0,0.0,0.0,0.0,0.0,3.1826,3.1094,0.0,0.0,0.0,0.0,3.5301,3.6651,3.7632,3.8129,3.851,3.8965,3.942,4.0303,4.098,4.1436,4.1871,4.212,4.2161,4.2161,4.2182,4.2223,4.2223,4.2223,4.2203,4.1767,4.1312,4.0877,4.0794,4.022,3.9399,3.9847,3.9765,3.9358,3.9358,3.9358,3.9358,3.9358,3.9358,3.9296,3.8861,3.8427,3.8109,3.8109,3.8109,0.0,0.0,3.815,3.8253,3.8654,3.8778,3.8903,3.9358,3.9461,3.9564,4.0019,3.9771,3.9171,3.8316,3.7777,3.7446,3.7446,0.0,3.6804,3.6804,3.6804,3.697,3.7446,3.7488,3.7674,3.8129,3.8191,3.8171,3.815,3.7715,3.7446,3.7425,3.6991,3.6742,3.6742,3.6308,3.608,3.608,3.5614,0.0,0.0,0.0,0.0,0.0,0.0,0.0,0.0,0.0,0.0,0.0,0.0,0.0,0.0,0.0,0.0,0.0,0.0,0.0,0.0,0.0,0.0,0.0,0.0,0.0,0.0,0.0,0.0,3.2675,3.1931,0.0,3.2525,3.4549,3.5562,3.4906,3.7564,3.9073,3.8739,3.9922,4.082,4.1276,4.1643,4.1871,4.2058,4.2223,4.2596,4.3139,4.3139,4.3449,4.4008,4.3718,4.3408,4.3097,4.2642,4.2186,4.183,4.2083,4.1151,3.9523,3.9668,3.9647,3.9544,3.9833,3.9771,3.9544,3.9854,3.9751,3.9482,3.9316,3.9151,3.9027,3.9027,3.9027,3.9027,3.9027,3.9027,3.9068,3.9213,3.9254,3.9378,3.9833,3.973,3.9626,4.0102,3.9833,3.9399,3.9089,3.8654,3.8241,3.7984,3.7798,3.7695,3.7695,3.7695,3.7757,3.7922,3.7943,3.8005,3.8171,3.8191,3.8191,3.8191,3.7757,3.7488,3.7488,3.7053,3.6804,3.6804,3.6639,3.6556,3.6556,3.639,3.6308,0.0,0.0,0.0,0.0,0.0,0.0,0.0,0.0,0.0,0.0,0.0,0.0,0.0,0.0,0.0,0.0,0.0,0.0,0.0,0.0,0.0,0.0,0.0,0.0,0.0,3.1825,3.1942,3.2932,3.2275,3.2086,3.2966,3.454,3.5244,3.4534,3.7784,3.944,3.8594,4.0325,4.158,4.2064,4.2226,4.2593,4.3218,4.3218,4.3491,4.407,4.407,4.4401,4.4981,4.467,4.436,4.4049,4.3594,4.3221,4.299,4.2932,4.2005,4.064,4.064,4.0557,4.0489,4.08,4.0717,4.051,4.08,4.0613,4.022,4.022,4.0116,3.9957,3.9957,3.9957,3.9957,3.9957,3.9957,3.9999,4.0179,4.022,4.0344,4.08,4.0675,4.053,4.0841,4.0675,4.0406,4.0261,3.9564,3.8965,3.8688,3.8647,3.8647,3.8647,3.8647,3.8647,3.8647,3.8502,3.8398,3.8398,3.8274,3.8191,3.8191,3.7902,3.7736,3.7736,3.7446,3.726,3.726,3.7115,3.7032,3.7032,3.6887,3.6804,3.6804,0.0,0.0,0.0,0.0,0.0,0.0,0.0,0.0,0.0,0.0,0.0,0.0,0.0,0.0,0.0,0.0,0.0,0.0,0.0,0.0,0.0,0.0,0.0,3.2737,3.2298,3.2023,3.2377,3.1847,3.1443,3.1474,3.2806,3.3856,3.4252,3.7239,3.8632,3.7727,3.9696,4.1055,4.1521,4.2009,4.3141,4.4902,4.4981,4.5002,4.5022,4.5022,4.5022,4.5043,4.5022,4.5022,4.4981,4.4526,4.4319,4.4256,4.3346,4.2994,4.2973,4.2873,4.2642,4.2285,4.2306,4.2306,4.2306,4.2306,4.1995,4.1622,4.1622,4.1312,4.0959,4.0959,4.0959,4.0959,4.0959,4.0959,4.1063,4.1498,4.1622,4.1747,4.2182,4.2285,4.2285,4.2285,4.2285,4.2161,4.1705,4.053,3.9585,3.9544,3.9544,3.9544,3.9544,3.9544,0.0,3.9544,3.9151,3.8882,3.8882,3.8502,3.8253,3.8253,3.8233,3.8233,3.8233,3.8233,3.8233,3.8233,3.7798,3.755,3.755,3.7094,3.6867,3.6867,0.0,0.0,0.0,0.0,0.0,0.0,0.0,0.0,0.0,0.0,0.0,0.0,0.0,0.0,0.0,0.0,0.0,0.0,0.0,0.0,0.0,3.06,3.1137,3.1013,3.1537,3.2133,3.2747,3.2673,3.277,3.3238,3.4738,3.5255,3.4172,3.7409,3.8806,3.7358,3.8991,4.0012,4.0142,4.1564,4.2523,4.3062,4.4331,4.5167,4.5498,4.5498,4.5664,4.5934,4.5643,4.5498,4.5478,4.5002,4.4795,4.4795,4.4526,4.4422,4.4298,4.299,4.241,4.2327,4.2621,4.2745,4.2683,4.241,4.2223,4.2099,4.2099,4.2016,4.1912,4.1912,4.1912,4.1912,4.1912,4.1912,4.1933,4.2078,4.2099,4.214,4.2265,4.2285,4.2285,4.2285,4.2285,4.2265,4.212,4.1809,4.1296,4.0634,4.051,4.051,4.051,4.051,4.051,4.051,4.0406,4.0323,4.0323,3.9909,3.964,3.9661,3.9316,3.913,3.913,3.913,3.913,3.913,3.9006,3.8944,3.8944,3.8489,3.8261,0.0,0.0,0.0,0.0,0.0,0.0,0.0,0.0,0.0,0.0,0.0,0.0,0.0,0.0,0.0,0.0,0.0,0.0,0.0,0.0,0.0,0.0,3.1449,3.1815,3.1856,3.2142,3.2618,3.3317,3.3524,3.3762,3.4175,3.5241,3.5448,3.4472,3.7273,3.8303,3.6773,3.8249,3.9287,3.9489,4.0498,4.1434,4.2182,4.3232,4.3882,4.4159,4.4159,4.4255,4.4533,4.5081,4.535,4.5391,4.59,4.6119,4.6099,4.5933,4.585,4.5664,0.0,0.0,0.0,0.0,4.3201,4.318,4.2911,4.2828,4.2828,4.2828,4.2828,4.2828,4.2828,4.299,4.3156,4.3156,4.328,4.3446,4.3446,4.3446,4.3446,4.3446,4.3446,4.3446,4.3446,4.3446,4.3446,4.3446,4.3446,0.0,4.2683,4.1995,4.1498,4.1498,4.1498,4.1498,4.1498,4.1312,4.1208,4.1208,4.0593,4.022,4.0185,3.9771,0.0,0.0,0.0,3.9502,3.9502,3.9502,0.0,0.0,0.0,3.9109,3.9109,3.8841,0.0,0.0,3.7724,3.762,0.0,0.0,0.0,0.0,0.0,0.0,0.0,0.0,0.0,0.0,0.0,0.0,0.0,0.0,0.0,0.0,3.265,3.3422,3.4096,3.3683,3.3565,3.4128,3.4477,3.47,3.4731,3.5033,3.5165,3.5165,3.689,3.7421,3.6234,3.7568,0.0,0.0,0.0,4.0088,4.1702,4.1901,4.1988,4.1988,4.1988,4.2117,4.2395,4.4132,4.5003,4.53,4.7004,4.7693,4.7651,4.7279,4.7051,4.6824,4.5188,4.4505,4.4401,4.3987,4.3801,4.376,4.376,0.0,0.0,4.376,4.376,4.376,4.376,4.4049,4.4381,4.4381,4.467,4.5002,4.5002,4.5002,4.5002,4.5002,4.5002,4.5002,4.5002,4.5002,4.5002,4.4923,4.4942,4.5002,4.4923,4.3635,4.2596,4.2596,4.2596,4.2596,4.2596,4.2244,4.1995,4.1995,4.1151,0.0,4.0578,4.0102,3.9813,3.9813,3.9813,3.9813,3.9813,3.9813,3.9813,3.9813,3.9751,3.973,3.973,3.9688,3.9647,3.9647,3.913,3.8882,0.0,0.0,0.0,0.0,0.0,0.0,0.0,0.0,0.0,0.0,0.0,0.0,0.0,0.0,0.0,3.2706,3.3572,3.4445,3.5176,3.5399,3.5446,3.5287,3.5589,3.5907,3.6161,3.6257,3.6288,3.6288,3.6663,3.6772,3.6495,3.6808,3.7047,3.7111,3.8563,3.9473,3.9825,4.125,4.1988,4.1988,4.1988,0.0,4.4346,4.4748,4.5723,4.7172,4.7547,4.7693,4.7672,4.7589,4.7361,4.6927,4.6203,4.5686,4.5416,4.5312,4.5043,4.4733,4.4733,4.4733,4.4733,4.4733,4.4733,4.4733,4.4733,4.4795,0.0,4.4857,4.4919,4.5002,4.5002,4.5002,4.5002,4.5002,4.5002,4.5002,4.5002,4.5002,4.4863,4.4509,4.4745,4.4863,4.4509,4.4457,4.4463,4.4463,4.4463,4.4463,4.4463,4.4381,4.4339,4.4339,4.3511,4.2952,4.2952,4.2207,4.1767,4.1767,4.1767,4.1767,4.1767,4.1767,4.1767,4.1767,4.1395,4.1172,4.1172,4.08,4.0613,4.0593,3.9751,3.9378,0.0,0.0,0.0,0.0,0.0,0.0,0.0,0.0,0.0,0.0,0.0,3.149,0.0,0.0,3.3444,3.4201,3.4843,3.5558,3.6257,3.6654,3.6686,3.6145,3.6241,3.6479,3.6829,3.7019,3.721,3.7385,3.7401,3.7401,3.7401,3.7226,3.7131,3.7131,3.8022,3.8502,3.8502,3.9385,3.9833,3.9833,3.9833,4.0369,4.1329,4.2257,4.3204,4.4163,4.5135,4.5523,4.5523,4.5523,4.5406,4.5168,4.4954,4.5177,4.5685,4.5685,4.5395,4.5002,4.5002,4.5002,4.5002,4.5002,4.5002,4.5002,4.5002,4.5147,4.5293,4.5056,4.518,4.5325,4.5065,4.4984,4.4984,4.4984,4.4984,4.4984,4.4984,4.4984,4.4944,4.4704,4.4824,4.4944,4.4704,4.5025,4.5281,4.5024,4.5002,4.5002,4.5002,4.5002,4.5002,4.5002,4.4381,4.3967,4.3967,4.3118,4.2497,4.2306,4.2285,4.2285,4.2285,4.2285,4.2285,4.2285,4.2078,4.1954,4.1954,4.1705,4.1602,4.1581,4.111,4.0779,0.0,0.0,0.0,0.0,0.0,0.0,0.0,0.0,3.0997,3.1137,3.1692,3.2338,3.3009,3.3646,3.4418,3.5375,3.5819,3.6308,3.6922,3.7316,3.7378,3.6749,3.6867,3.7115,3.7355,3.7702,3.7988,3.8274,3.829,3.829,3.829,3.7957,3.7844,3.7861,3.7796,3.7749,3.7812,3.7749,3.7717,3.7717,3.7717,3.7901,3.83,3.9805,4.0696,4.1148,4.272,4.3389,4.3389,4.3389,4.3389,4.3389,4.3389,4.4028,4.5007,4.5392,4.5488,4.5374,4.5291,4.525,4.525,4.525,4.525,4.525,4.525,4.5519,4.575,4.535,4.5454,4.5596,4.5248,4.5065,4.5005,4.5005,4.5005,4.5005,4.5005,4.5005,4.4964,4.4923,4.4964,4.4964,4.4923,4.525,4.5413,4.5057,4.5052,4.5152,4.5152,4.5152,4.5192,4.525,4.4836,4.4546,4.4443,4.3677,4.3035,4.272,4.2617,4.2555,4.2555,4.2555,4.2555,4.2555,4.2555,4.2555,4.2555,4.2555,4.2555,4.2555,4.2555,4.2265,2.8896,2.9023,2.9115,2.9434,2.961,2.9862,0.0,0.0,3.1259,3.1913,3.2535,3.3098,3.3481,3.4093,3.4675,3.5088,3.5685,3.622,3.6587,3.6939,3.7123,3.7046,3.7899,3.8481,3.8513,3.856,3.8592,3.864,3.864,3.864,3.864,3.8322,3.8274,3.856,3.7988,3.7814,3.8131,3.783,3.7717,3.7717,3.7717,3.8559,4.0215,4.0396,4.1419,4.3077,4.33,4.3389,4.3389,4.3389,4.3389,4.3389,4.3389,4.296,4.2548,4.4354,4.5747,4.672,4.6307,4.6162,4.6162,4.6162,4.6162,4.6162,4.6162,4.6183,4.6226,4.6188,4.5923,4.5678,4.5631,4.5306,4.5005,4.5005,4.5005,4.5005,4.5005,4.5005,4.4882,4.4534,4.4759,4.4882,4.4534,4.48,4.5046,4.4986,4.5352,4.5596,4.5596,4.5596,4.5758,4.6122,4.5788,4.5354,4.496,4.4443,4.4132,4.407,4.3698,4.3449,4.3449,4.3449,4.3449,4.3449,4.3449,4.3449,4.3449,4.3449,4.3449,4.3449,4.3449,4.2994,2.8646,2.9023,2.938,2.9515,3.029,3.1112,3.145,3.2032,3.2621,3.2926,3.3515,3.4055,3.4405,3.4999,3.5608,0.0,3.6401,3.6828,3.7211,3.7211,3.7257,3.7455,3.7686,3.7926,3.808,3.8095,3.8188,3.839,3.822,3.8095,3.8095,3.777,3.7756,3.8229,3.7663,3.7492,3.7727,3.7336,3.7025,3.6823,3.6823,3.7224,3.7991,3.7991,3.8435,3.9196,3.9196,3.9196,3.9196,3.9196,3.9196,3.9196,3.9196,3.9625,4.0442,4.2419,4.3184,4.3136,4.2762,4.336,4.4233,4.4019,4.4678,4.5535,4.5535,4.5535,4.5494,4.5267,4.5043,4.4881,4.4608,4.4385,4.4247,4.4247,4.4247,4.4247,4.4247,4.4247,4.4205,4.4041,4.4123,4.4205,4.4041,4.437,4.4534,4.4288,4.4841,4.5291,4.5291,4.5291,4.5454,4.5901,4.602,4.5892,4.5436,4.5229,4.4877,4.4339,4.4112,4.3884,4.3615,4.3615,4.3615,4.3615,4.3615,4.3615,4.3615,4.3615,4.3615,4.3615,4.3615,4.3408,2.8627,2.9184,2.976,2.9849,3.1029,3.2152,3.2236,3.2903,3.3553,3.3775,3.42,3.4593,3.4939,3.5452,3.5996,3.6375,3.6659,3.6943,3.7338,3.7172,3.7082,3.7233,3.7037,3.6991,3.7233,3.7554,3.7883,3.831,3.8111,3.8005,3.8096,3.7636,3.7597,3.809,3.7462,3.7199,3.7489,3.7049,3.6692,3.6448,3.6448,3.6448,3.6448,3.6448,3.6448,3.6448,3.6448,3.6448,3.6448,3.6448,3.6448,3.6448,3.6448,3.7211,3.8431,3.9846,4.052,4.0631,4.0162,4.0933,4.2116,4.1774,4.2637,4.3857,4.4417,4.4462,4.4444,4.4707,4.4609,4.4307,4.3991,4.3808,4.3711,4.3711,4.3711,4.3711,4.3711,4.3711,4.3711,4.3711,4.3711,4.3711,4.3711,4.4,4.4082,4.3752,4.4247,4.4677,4.4841,4.4923,4.5127,4.5454,4.5779,4.5819,4.5531,4.5507,4.5135,4.4352,4.4282,4.4091,4.3635,4.3615,4.3615,4.3615,4.3615,4.3615,4.3615,4.3615,4.3615,4.3615,4.3615,4.3615,2.9266,2.9862,3.0419,3.0685,3.1505,3.2411,3.2787,3.3043,3.344,3.4201,3.4269,3.4331,3.4668,3.4976,3.5346,3.5669,3.5943,3.6266,3.6588,3.6632,3.6515,3.6207,3.6163,3.6148,3.6163,3.7102,3.7974,3.8646,3.8691,3.8764,3.9053,3.8409,3.8261,3.8661,3.7651,3.7285,3.7702,3.7285,3.7102,3.7087,3.7087,3.7087,3.7087,3.7087,3.7087,3.7087,3.7087,3.7087,3.7087,3.7087,3.7087,3.7087,3.7087,3.68,3.6466,3.6561,3.8512,4.1072,4.0268,4.0233,4.0498,4.0195,4.0319,4.0986,4.2881,4.3174,4.3261,4.514,4.5044,4.4387,4.4383,4.4043,4.3711,4.3711,4.3711,4.3711,4.3711,4.3711,4.3711,4.3711,4.3711,4.3711,4.3711,4.3711,4.3711,4.3711,4.3711,4.3917,4.437,4.4759,4.5005,4.5005,4.5046,4.5046,4.5025,4.5048,4.482,4.4312,4.4313,4.4091,4.3635,4.3615,4.3615,4.3615,4.3615,4.3615,4.3615,4.3615,4.3615,4.3615,4.3615,4.3615,2.998,3.0698,3.1446,3.1973,3.269,3.3305,3.3691,3.3996,3.4288,3.4544,3.4392,3.4256,3.4358,3.4812,3.5313,3.5636,3.6324,3.6802,3.6919,3.6744,3.6407,3.5914,3.5855,0.0,0.0,3.6337,3.6843,3.7289,3.7526,3.7689,3.7793,3.755,3.7675,3.8144,3.7258,3.6915,3.7151,3.6691,3.6334,3.6175,3.6175,3.6175,3.6175,3.6175,3.6175,3.6175,3.6175,3.6175,3.6175,3.6175,3.6175,3.6175,3.6175,3.6079,3.5935,3.5935,3.65,3.7163,3.6928,3.7694,3.8732,3.8355,3.9177,4.0686,4.2641,4.3183,4.3503,4.5517,4.5879,4.5605,4.5316,4.5137,4.4941,4.4648,4.4548,4.4548,4.4548,4.4548,4.4548,4.4548,4.4548,4.4548,4.4548,4.4548,4.4548,4.4548,4.4082,4.3752,4.3917,4.4329,4.4575,4.4575,4.5101,4.5447,4.5447,4.5712,4.5552,4.4805,4.4744,4.4439,4.3708,4.3667,4.3667,4.3667,4.3941,4.4058,4.4097,4.437,4.4526,4.4526,4.4526,4.4526,3.0932,3.1754,3.2646,3.3305,3.3949,3.4446,3.4534,3.471,3.4841,3.4724,3.4446,3.4256,3.4373,3.4724,3.5152,3.546,3.6134,3.6705,3.689,3.6641,3.6319,3.6075,3.6031,3.5987,0.0,0.0,3.6597,3.6934,3.7153,3.7358,3.7592,3.7504,3.7648,3.7951,3.7324,3.701,3.7135,3.6789,3.6539,3.6383,3.6383,3.6383,3.6383,3.6266,3.6207,3.6207,3.609,3.6031,3.6031,3.6031,3.6031,3.6031,3.6031,3.6031,3.6031,3.6031,3.5899,3.5631,3.5343,3.5954,3.6929,3.6667,3.7411,3.8781,4.0777,4.1176,4.137,4.3453,4.389,4.3853,4.4304,4.4534,4.4708,4.4946,4.5137,4.5215,4.5058,4.4977,4.4977,4.4977,4.4977,4.4977,4.4977,4.4977,4.4977,4.4977,4.4509,4.418,4.418,4.443,4.4596,4.4596,4.5103,4.5449,4.5449,4.5834,4.5779,4.5039,4.5003,4.4683,4.3939,4.3779,4.3698,4.3698,4.3956,4.4074,4.4074,4.4391,4.4529,4.4529,4.4529,4.4588,3.209,3.3071,3.3917,3.4592,3.5255,3.5606,3.5284,3.5211,3.5108,3.4753,3.4417,3.4285,0.0,0.0,3.4797,3.5181,3.5533,3.5987,3.6583,3.6407,3.6319,0.0,0.0,0.0,0.0,0.0,3.7256,3.7578,3.7658,3.787,3.8433,3.8221,3.8112,3.8112,3.7753,3.7578,3.7578,3.7578,3.7578,3.7578,3.7578,3.7578,3.7563,3.7256,3.7109,3.7095,3.6787,3.6656,3.6656,3.6656,3.6656,3.6656,3.6656,3.6656,3.6656,3.6656,3.6641,3.6509,3.5617,3.528,3.5284,3.5251,3.5251,3.5649,3.757,3.761,3.7435,3.9436,3.9673,3.9752,4.1575,4.2433,4.3204,4.4577,4.5324,4.5586,4.5176,4.5098,4.5098,4.5098,4.5055,4.5074,4.5074,4.5074,4.5074,4.5055,4.5055,4.5098,4.4957,4.4977,4.4977,4.4957,4.4996,4.5058,4.5058,4.5461,4.5537,4.5059,4.5058,4.4823,4.4381,4.396,4.3799,4.3799,4.3779,4.3819,4.3839,4.3819,4.3859,4.3898,4.3859,4.4097,3.3158,3.4066,3.4932,3.5343,3.5577,3.5606,3.5284,3.5211,3.5049,3.4461,3.4034,3.3757,0.0,3.3976,3.4607,3.5445,3.6251,0.0,3.7658,3.7622,0.0,3.7007,0.0,3.7197,3.6875,3.7212,0.0,3.7965,3.7995,3.8068,3.8178,3.8156,3.8112,3.8112,3.7753,3.7578,3.7578,3.7578,3.7578,3.7578,3.7578,3.7578,3.7628,3.749,3.7446,3.7446,3.7373,3.7329,3.7329,3.7329,3.7329,3.7329,3.7329,3.7329,3.7329,3.7329,3.7183,3.6963,3.6963,3.6641,3.6231,3.6246,3.6246,3.6578,3.84,3.8751,3.8985,4.0823,4.1223,4.1178,4.1322,4.2496,4.3707,4.3807,4.5012,4.6113,4.5996,4.5976,4.5976,4.5976,4.623,4.6401,4.6401,4.6401,4.6284,4.6016,4.6206,4.5933,4.4726,4.4824,4.4902,4.459,4.5117,4.5508,4.5508,4.593,4.5974,4.5542,4.5533,4.532,4.4845,4.4707,4.4668,4.4668,4.5002,4.5377,4.571,4.5648,4.6021,4.666,4.631,4.6392,3.4358,3.5061,3.5661,3.6031,3.5953,3.5738,3.5137,3.4958,3.4695,3.3773,3.3554,3.3377,3.31,3.3685,3.4446,3.5167,3.6041,0.0,3.779,3.7724,3.7607,0.0,3.768,0.0,3.7329,3.7724,3.8017,3.8112,3.8112,3.8171,3.8265,3.828,3.828,3.828,3.809,3.8002,3.8002,3.8002,3.8002,3.8002,3.8002,3.8002,3.7987,3.7856,3.776,3.7578,3.7578,3.7504,3.7373,3.7519,3.7578,3.7578,3.7578,3.7578,3.7578,3.7578,3.7461,3.7329,3.7519,3.7344,3.7036,3.7036,3.6846,3.6765,3.7767,3.788,3.7859,3.8846,3.9113,3.9253,3.9868,4.0942,4.2226,4.3561,4.4185,4.4638,4.5342,4.4838,4.4191,4.4191,4.4376,4.4468,4.4347,4.5003,4.5452,4.5097,4.6111,4.6523,4.5371,4.5762,4.5976,4.5547,4.5937,4.6152,4.5976,4.6172,4.6191,4.5976,4.5781,4.5566,4.5312,4.5117,4.4977,4.4977,4.5274,4.5529,4.5803,4.574,4.5994,4.6522,4.6247,4.6373,3.5518,3.5939,3.6246,3.6539,3.6319,3.5822,3.4914,3.4666,3.4285,3.3027,3.3027,3.3099,3.2837,3.3524,3.43,3.4753,3.5588,3.6539,3.7563,3.7461,3.749,3.8061,3.8163,3.8127,3.7797,3.8309,3.8558,3.828,3.8317,3.8339,3.8477,3.8491,3.8491,3.8491,3.8491,3.8491,3.8491,3.8491,3.8491,3.8491,3.8491,3.8491,3.8477,3.8251,3.7973,3.7709,3.7709,3.7548,3.73,3.7592,3.7709,3.7709,3.7709,3.7709,3.7709,3.7709,3.7709,3.7709,3.7709,3.7709,3.7695,3.7607,3.7197,3.6729,3.6685,3.6275,3.5885,3.5826,3.5826,3.6197,3.7894,3.8766,4.0025,4.3039,4.2918,4.2449,4.38,4.2724,4.1505,4.154,4.1557,4.1501,4.1222,4.2549,4.3543,4.3134,4.514,4.6445,4.5755,4.6797,4.7422,4.6928,4.6889,4.6753,4.6504,4.6426,4.6275,4.605,4.5706,4.5343,4.5082,4.4617,4.4386,4.4386,4.4386,4.4577,4.4877,4.4834,4.4962,4.5366,4.5281,4.5536,3.5924,3.6275,3.6539,3.6597,3.6158,3.5592,3.4856,3.4505,0.0,3.3027,3.3027,3.3099,3.2837,3.3349,3.4183,3.5343,3.607,3.6948,3.8141,3.8272,3.8272,0.0,3.869,3.8836,3.8778,3.9114,3.9319,3.926,3.926,3.9056,3.8506,3.8491,3.8491,3.8491,3.8491,3.8491,3.8491,3.8491,3.8491,3.8491,3.8491,3.8491,3.8491,3.8433,3.8374,3.8316,3.8316,3.8287,3.8243,3.8301,3.8316,3.8316,3.8316,3.8316,3.8316,3.8316,3.8316,3.8316,3.8316,3.8316,3.828,3.7753,3.7504,3.7358,3.7095,3.6934,3.6787,3.6509,3.6436,3.6535,3.6864,3.82,3.9546,3.985,4.099,4.1932,4.2023,4.1768,4.162,4.1928,4.1979,4.1962,4.1894,4.2175,4.2168,4.1522,4.373,4.4746,4.2658,4.5437,4.7422,4.6928,4.6889,4.7051,4.7344,4.7031,4.6242,4.4925,4.4509,4.355,4.186,4.1491,4.1281,4.1281,4.1281,4.2263,4.4247,4.3851,4.4881,4.7221,4.6812,4.6899,3.6231,3.6612,3.6817,3.6641,3.6163,3.5489,3.4636,0.0,0.0,3.2471,3.2661,3.2851,3.2354,3.3202,3.4241,3.5031,3.5836,3.6802,3.8104,3.8148,3.8221,3.8681,3.8871,3.9085,3.926,3.9421,3.9509,3.9509,3.9509,3.9377,3.9056,3.9041,3.8915,3.874,3.874,3.8652,3.8491,3.8491,3.8491,3.8491,3.8491,3.8491,3.8491,3.8491,3.8389,3.8295,3.8418,3.8441,3.8309,3.8418,3.8491,3.8491,3.8491,3.8491,3.8491,3.8491,3.8491,3.8491,3.8491,3.8491,3.8433,3.8178,3.7973,3.7848,3.7651,3.7475,3.7314,3.7153,3.7109,3.7109,3.7109,3.7795,3.873,3.9614,4.0449,4.0657,3.926,3.894,3.8987,3.9194,3.9225,3.9178,3.8988,3.9802,4.0337,3.981,4.1957,4.3187,4.2013,4.3712,4.4873,4.4471,4.4389,4.4417,4.4417,4.4234,4.3696,4.2746,4.2523,4.1919,4.0817,4.1534,4.2031,4.2031,4.2988,4.4074,4.5241,4.5021,4.5612,4.6963,4.6745,4.6745,3.6466,3.6846,3.7007,3.6685,3.607,3.5357,3.4417,3.3656,0.0,3.2076,3.2368,3.2661,3.2105,3.3158,3.4241,3.4636,3.5441,3.6466,3.7834,3.7848,3.8017,0.0,3.9143,0.0,3.9597,3.9685,3.9714,3.9714,3.9714,3.9656,3.9524,3.9509,3.9392,3.9143,3.9129,3.9012,3.8696,3.8696,3.8696,3.8696,3.8696,3.8696,3.8696,3.8696,3.8573,3.828,3.8456,3.8353,3.8141,3.8339,3.8441,3.8441,3.8462,3.8491,3.8491,3.8491,3.8491,3.8491,3.8491,3.8491,3.8491,3.8491,3.8368,3.8163,3.8163,3.7987,3.7782,3.7782,3.7782,3.7782,3.7782,3.7782,3.8146,3.9617,3.966,3.8907,3.7002,3.6597,3.6597,3.6597,3.6597,3.6524,3.6261,3.7454,3.838,3.81,4.007,4.1409,4.0867,4.1548,4.1761,4.1,4.166,4.1996,4.1791,4.1689,4.1331,4.0672,4.0571,4.0167,3.9387,4.0827,4.1659,4.1659,4.3188,4.4246,4.4647,4.4647,4.4843,4.5243,4.5243,4.5243,3.6583,3.6846,3.7007,3.6685,3.5895,3.5079,3.4373,0.0,3.2749,3.2324,3.2573,3.2793,3.2734,3.329,3.3978,3.4607,3.5266,3.6192,3.7496,3.7907,3.8265,3.8939,0.0,0.0,3.9948,4.0226,4.0402,4.0402,4.0402,4.0138,3.9538,3.9509,3.9495,3.9465,3.9465,3.9451,3.9421,3.9421,3.9421,3.9421,3.9421,3.9421,3.9421,3.9421,3.9246,3.8924,3.8608,3.8353,3.8127,3.8141,3.8156,3.8134,3.8426,3.8491,3.8491,3.8491,3.8491,3.8491,3.8491,3.8491,3.8491,3.8491,3.8462,3.8448,3.8448,3.8418,3.8404,3.8404,3.8404,3.8404,3.8404,3.8404,3.8361,3.7964,3.7395,3.6888,3.6661,3.6597,3.6597,3.6597,3.6597,3.6597,3.6568,3.6701,3.6682,3.6358,3.8402,3.9126,3.6908,3.8594,3.9235,3.7326,4.0092,4.2249,4.2539,4.2266,4.1258,3.9483,3.9083,3.7962,3.5767,3.5847,3.5941,3.5941,3.6431,3.7518,3.9329,3.9329,4.022,4.1943,4.1943,4.1943,3.6392,3.6846,3.7007,3.6685,3.588,3.5093,3.4607,0.0,3.2778,3.2646,3.272,3.2822,3.2822,3.3305,3.383,3.4329,3.4783,3.5456,3.6539,3.6817,3.7344,3.8587,3.9129,3.9641,4.0241,4.0402,4.049,4.049,4.049,4.0373,4.0109,4.0095,4.0007,3.9816,3.9802,3.9714,3.9509,3.9319,3.9217,3.9217,3.9217,3.9217,3.9231,3.9421,3.9436,3.9304,3.8968,3.8763,3.8631,3.8426,3.8353,3.8353,3.8433,3.8491,3.8491,3.8491,3.8491,3.8491,3.8491,3.8491,3.8491,3.8491,3.8491,3.8491,3.8491,3.8491,3.8491,3.8491,3.8491,3.8491,3.8491,3.8491,3.8368,3.7724,3.7373,3.708,3.6685,3.6597,3.6597,3.6597,3.6597,3.6597,3.6597,3.6597,3.6553,3.6436,3.7233,3.7474,3.652,3.7427,3.7819,3.6989,3.8044,3.8851,3.904,3.8882,3.8371,3.7412,3.7227,3.663,3.5566,3.6619,3.7268,3.7268,3.8513,3.9568,4.0367,4.0367,4.0741,4.1488,4.1488,4.1488,3.6056,3.67,3.6992,3.6568,3.5807,3.5093,3.4651,0.0,3.2822,3.2822,3.2822,3.2822,3.2822,3.3305,3.3757,3.399,3.4432,3.5031,3.5983,3.6202,3.6787,3.8221,3.8778,3.9334,4.0124,4.0373,4.049,4.049,4.049,4.049,4.049,4.049,4.0387,4.0153,4.0138,4.0036,3.9802,3.9568,3.9407,3.9319,3.9407,3.9407,3.9319,3.9656,3.9743,3.9626,3.9202,3.8915,3.8851,3.8529,3.8397,3.8412,3.8448,3.8491,3.8491,3.8491,3.8491,3.8491,3.8491,3.8491,3.8491,3.8491,3.8491,3.8491,3.8491,3.8491,3.8491,3.8491,3.8491,3.8491,3.8491,3.8345,3.8134,3.768,3.7431,3.7168,3.67,3.6685,3.6744,3.6744,3.6831,3.689,3.689,3.689,3.689,3.689,3.689,3.689,3.689,3.7095,3.7226,3.7226,3.7036,3.6846,3.6758,3.6744,3.6568,3.6144,3.6114,3.5968,3.5709,3.7098,3.7846,3.7846,3.9306,4.002,4.002,4.002,4.002,4.002,4.002,4.0446,3.5621,3.6398,3.6934,3.629,3.5631,3.5035,3.4358,3.3466,3.2822,3.2822,3.2822,3.2822,3.2822,3.3305,3.3684,3.3684,3.4285,3.5031,3.5983,3.6392,3.6963,3.8009,3.8631,3.9158,3.9495,4.0109,4.049,4.049,4.049,4.049,4.049,4.049,4.049,4.049,4.049,4.049,4.049,4.049,4.0314,3.9992,4.0314,4.0299,3.9992,4.0329,4.0299,3.9963,3.9304,3.8784,3.8462,3.8207,3.8127,3.8156,3.8412,3.8491,3.8491,3.8491,3.8491,3.8491,3.8491,3.8491,3.8491,3.8491,3.8491,3.8491,3.8491,3.8491,3.8491,3.8491,3.8491,3.8491,3.8491,3.8061,3.7592,3.7578,3.708,3.6612,3.6597,3.6861,3.708,3.708,3.7344,3.7563,3.7563,3.7563,3.7563,3.7563,3.7563,3.7563,3.7563,3.7563,3.7578,3.7578,3.7563,3.7431,3.7109,3.708,3.6802,3.6158,3.6114,3.5968,3.5709,3.5939,3.6114,3.6114,3.6485,3.6647,3.6647,3.6647,3.6647,3.6647,3.6647,3.798,3.4197,3.4724,3.5017,3.4592,3.4122,3.3802,3.3552,3.3144,3.2822,3.2822,3.2822,3.2822,3.2822,3.3305,3.3757,3.3976,3.4592,3.524,3.5767,3.6451,3.7212,3.8024,3.9231,4.0065,4.0168,4.0358,4.049,4.049,4.049,4.049,4.049,4.049,4.049,4.049,4.049,4.049,4.049,4.0051,3.9875,3.9992,3.9875,3.9875,4.0007,4.0343,4.0446,4.0299,3.9641,3.9304,3.9158,3.8617,3.8382,3.8397,3.8448,3.8491,3.8491,3.8491,3.8491,3.8491,3.8491,3.8491,3.8491,3.8491,3.8491,3.8491,3.8491,3.8491,3.8491,3.8491,3.8491,3.8491,3.8491,3.8331,3.8178,3.8009,3.7804,3.7548,3.7314,3.7358,3.7417,3.7417,3.7504,3.7578,3.7578,3.7578,3.7578,3.7578,3.7578,3.7578,3.7578,3.7819,3.7965,3.7965,3.8104,3.8017,3.7475,3.7417,3.7329,3.7124,3.6905,3.6744,3.6641,3.6509,3.6451,3.6451,3.6553,3.6597,3.6597,3.6597,3.6597,3.6597,3.6597,3.7027,3.3158,3.37,3.3903,3.3581,3.3348,3.3172,3.3055,3.291,3.2822,3.2822,3.2822,3.2852,3.2924,3.3378,3.3786,3.4168,3.4651,3.5225,3.5797,3.6451,3.7285,3.8309,3.9421,4.0168,4.0285,4.0402,4.049,4.049,4.049,4.049,4.049,4.049,4.049,4.049,4.049,4.049,4.049,3.9963,3.9729,3.9816,3.9612,3.9553,3.9641,3.9977,4.0109,4.0095,3.9553,3.9392,0.0,3.8754,3.8564,3.8652,3.8535,3.8491,3.8491,3.8491,3.8491,3.8491,3.8491,3.8491,3.8491,3.8491,3.8491,3.8491,3.8491,3.8491,3.8491,3.8491,3.8491,3.8491,3.8491,3.8389,3.8309,3.8171,3.8024,3.7826,3.7672,3.768,3.7819,3.7819,3.7856,3.7943,3.7943,3.7943,3.7943,3.7943,3.7943,3.7943,3.7943,3.8119,3.8236,3.8236,3.8426,3.8368,3.7973,3.7826,3.7709,3.7592,3.7387,3.727,3.727,3.708,3.6978,3.6978,3.6978,3.6919,3.6787,3.667,3.6597,3.6597,3.6597,3.6597,0.0,3.3085,3.3435,3.3114,3.307,3.3026,3.2763,3.2778,0.0,3.2822,3.2837,3.2895,3.3143,3.3479,3.3815,3.4168,3.4534,3.509,3.5997,3.6495,3.7358,3.8909,3.9377,3.9685,3.9977,4.0299,4.049,4.049,4.049,4.049,4.049,4.049,4.049,4.049,4.05,4.0446,4.0446,4.0124,3.9816,3.9509,3.9495,3.9334,3.907,3.9377,3.9509,3.9495,3.9173,3.9202,3.9421,3.874,3.8667,3.8901,3.8608,3.8491,3.8491,3.8491,3.8491,3.8491,3.8491,3.8491,3.8491,3.8491,3.8491,3.8491,3.8491,3.8491,3.8491,3.8491,3.8491,3.8491,3.8491,3.8324,3.8156,3.8156,3.787,3.7651,3.7651,3.7885,3.8156,3.8156,3.8339,3.8491,3.8491,3.8491,3.8491,3.8491,3.8491,3.8491,3.8491,3.8491,3.8491,3.8491,3.8491,3.8491,3.8491,3.8265,3.8024,3.7665,3.7622,3.7622,3.7622,3.7592,3.7578,3.7578,3.7578,3.7417,3.7095,3.6787,3.6626,3.6597,3.6597,3.6597,3.1212,0.0,3.1798,3.1433,3.1768,3.212,0.0,3.2412,3.2822,3.2822,3.2968,3.3114,3.3187,3.3669,3.4124,3.4212,3.49,3.5588,3.6056,3.7461,3.8778,3.967,4.0065,4.0197,4.0021,4.0299,4.049,4.049,4.049,4.049,4.049,4.049,4.049,4.049,4.0241,4.0109,4.0109,3.9787,3.9582,3.9509,3.926,3.9231,3.9392,3.948,3.9509,3.9495,3.9173,3.9017,3.9114,3.8652,3.8535,3.8594,3.8521,3.8491,3.8491,3.8491,3.8491,3.8491,3.8491,3.8491,3.8491,3.8491,3.8491,3.8491,3.8491,3.8491,3.8491,3.8491,3.8491,3.8491,3.8491,3.8433,3.8426,3.8426,3.8368,3.8309,3.8309,3.8368,3.8426,3.8426,3.8433,3.8491,3.8491,3.8491,3.8491,3.8491,3.8491,3.8491,3.8491,3.8491,3.8491,3.8491,3.8491,3.8491,3.8491,3.8418,3.8397,3.8272,3.809,3.8009,3.8009,3.776,3.7578,3.7578,3.7578,3.7417,3.7095,3.7007,3.6846,3.6597,3.6597,3.6597,3.0776,3.0907,3.1081,3.1051,3.1417,3.1841,3.1988,3.2412,3.2807,3.2954,3.3084,3.3289,3.3596,3.3978,3.4314,3.4607,3.5137,3.5797,3.6656,3.7943,3.9099,3.9904,4.0153,4.0255,4.0226,4.0387,4.049,4.049,4.049,4.049,4.049,4.049,4.049,4.049,4.0314,4.0153,3.9992,3.9524,3.929,3.929,3.8953,3.8895,3.907,3.907,3.907,3.9056,3.8827,3.8827,3.8944,3.8623,3.8579,3.8696,3.855,3.8491,3.8491,3.8491,3.8491,3.8491,3.8491,3.8491,3.8491,3.8491,3.8491,3.8491,3.8491,3.8491,3.8491,3.8491,3.8491,3.8491,3.8491,3.8491,3.8491,3.8491,3.8491,3.8491,3.8491,3.8491,3.8491,3.8491,3.8491,3.8491,3.8491,3.8491,3.8491,3.8491,3.8491,3.8491,3.8491,3.8491,3.8491,3.8491,3.8491,3.8491,3.8491,3.8491,3.8491,3.8491,3.8382,3.828,3.828,3.8104,3.8017,3.8017,3.787,3.7636,3.7314,3.7168,3.6919,3.6597,3.6597,3.6597,3.0849,3.0892,3.1022,3.1256,3.1549,3.1885,3.2207,3.2573,3.2924,0.0,0.0,3.3523,3.4124,3.4256,3.4461,3.5049,3.5299,3.5987,3.7563,3.8309,3.9012,3.989,4.0051,4.0168,4.0387,4.0446,4.049,4.049,4.049,4.049,4.049,4.049,4.049,4.049,4.0446,4.0255,3.9934,3.9377,3.9003,3.8901,3.8623,3.8491,3.8491,3.8491,3.8491,3.8491,3.8491,3.8638,3.8871,3.8594,3.8652,3.8924,3.8594,3.8491,3.8491,3.8491,3.8491,3.8491,3.8491,3.8491,3.8491,3.8491,3.8491,3.8491,3.8491,3.8491,3.8491,3.8491,3.8491,3.8491,3.8491,3.8491,3.8491,3.8491,3.8491,3.8491,3.8491,3.8491,3.8491,3.8491,3.8491,3.8491,3.8491,3.8491,3.8491,3.8491,3.8491,3.8491,3.8491,3.8491,3.8491,3.8491,3.8491,3.8491,3.8491,3.8491,3.8491,3.8491,3.8491,3.8491,3.8491,3.8491,3.8491,3.8491,3.828,3.7973,3.7702,3.7373,3.7051,3.6685,3.6685,3.6656,3.1154,3.1432,3.1593,3.1373,3.1549,3.1885,3.2207,3.2749,3.3143,3.3187,3.364,3.4095,3.4197,3.4446,3.4666,3.4753,3.5675,3.6948,3.8573,3.9129,3.9524,3.9948,4.0241,4.0329,4.0095,4.0329,4.049,4.049,4.049,4.049,4.049,4.049,4.049,4.049,4.0212,3.9919,3.9582,3.948,3.9158,3.8564,3.8506,3.8491,3.8491,3.8491,3.8491,3.8491,3.8491,3.8521,3.855,3.8506,3.8521,3.855,3.8506,3.8491,3.8491,3.8491,3.8491,3.8491,3.8491,3.8491,3.8491,3.8491,3.8491,3.8491,3.8491,3.8491,3.8491,3.8491,3.8491,3.8491,3.8491,3.8491,3.8491,3.8491,3.8491,3.8491,3.8491,3.8491,3.8491,3.8491,3.8491,3.8491,3.8491,3.8491,3.8491,3.8491,3.8491,3.8491,3.8491,3.8491,3.8491,3.8491,3.8491,3.8491,3.8491,3.8491,3.8491,3.8491,3.8491,3.8491,3.8491,3.8491,3.8491,3.8491,3.8433,3.8309,3.8039,3.7995,3.7607,3.7022,3.7022,3.6861,3.1227,3.1417,3.1578,3.1783,3.2076,3.2412,3.2734,3.2982,3.3304,3.3654,3.4154,3.4475,3.4475,3.5017,3.5646,3.6173,3.6905,3.7768,3.8865,3.9158,3.9436,3.9934,4.0138,4.0241,4.0255,4.0402,4.049,4.049,4.049,4.049,4.049,4.049,4.049,4.049,4.0343,4.0021,3.9524,3.9509,3.9187,3.8491,3.8491,3.8491,3.8491,3.8491,3.8491,3.8491,3.8491,3.8491,3.8491,3.8491,3.8491,3.8491,3.8491,3.8491,3.8491,3.8491,3.8491,3.8491,3.8491,3.8491,3.8491,3.8491,3.8491,3.8491,3.8491,3.8491,3.8491,3.8491,3.8491,3.8491,3.8491,3.8491,3.8491,3.8491,3.8491,3.8491,3.8491,3.8491,3.8491,3.8491,3.8491,3.8491,3.8491,3.8491,3.8491,3.8491,3.8491,3.8491,3.8491,3.8491,3.8491,3.8491,3.8491,3.8491,3.8491,3.8491,3.8491,3.8491,3.8491,3.8491,3.8491,3.8491,3.8491,3.8491,3.8491,3.8382,3.8112,3.8112,3.7877,3.7358,3.7358,3.7183,3.1315,3.1476,3.1695,3.2354,3.2646,3.288,3.3216,3.3435,3.3698,0.0,3.4695,3.4929,3.4929,3.5705,3.6612,3.7446,3.7973,3.8514,3.9158,3.9246,3.9465,4.0051,4.0109,4.0212,4.05,4.049,4.049,4.049,4.049,4.049,4.049,4.049,4.049,4.049,4.049,4.0212,3.9626,3.9553,3.9187,3.8491,3.8491,3.8491,3.8491,3.8491,3.8491,3.8491,3.8491,3.8491,3.8491,3.8491,3.8491,3.8491,3.8491,3.8491,3.8491,3.8491,3.8491,3.8491,3.8491,3.8491,3.8491,3.8491,3.8491,3.8491,3.8491,3.8491,3.8491,3.8491,3.8491,3.8491,3.8491,3.8491,3.8491,3.8491,3.8491,3.8491,3.8491,3.8491,3.8491,3.8491,3.8491,3.8491,3.8491,3.8491,3.8491,3.8491,3.8491,3.8491,3.8491,3.8491,3.8491,3.8491,3.8491,3.8491,3.8491,3.8491,3.8491,3.8491,3.8491,3.8491,3.8491,3.8491,3.8491,3.8491,3.8491,3.8426,3.8178,3.8178,3.8017,3.7746,3.7746,3.7519,3.1593,3.1988,3.2368,3.2968,3.2968,3.2939,3.3508,3.4168,0.0,3.5064,0.0,3.5621,3.5621,3.6412,3.7139,3.7519,3.8353,3.9187,3.9831,3.9934,4.0065,4.0402,4.0446,4.0446,4.049,4.049,4.049,4.049,4.049,4.049,4.049,4.049,4.049,4.049,4.049,4.0314,3.9963,3.9656,3.9187,3.8491,3.8491,3.8491,3.8491,3.8491,3.8491,3.8491,3.8491,3.8491,3.8491,3.8491,3.8491,3.8491,3.8491,3.8491,3.8491,3.8491,3.8491,3.8491,3.8491,3.8491,3.8491,3.8491,3.8491,3.8491,3.8491,3.8491,3.8491,3.8491,3.8491,3.8491,3.8491,3.8491,3.8491,3.8491,3.8491,3.8491,3.8491,3.8491,3.8491,3.8491,3.8491,3.8491,3.8491,3.8491,3.8491,3.8491,3.8491,3.8491,3.8491,3.8491,3.8491,3.8491,3.8491,3.8491,3.8491,3.8491,3.8491,3.8491,3.8491,3.8491,3.8491,3.8491,3.8491,3.8491,3.8491,3.8477,3.8448,3.8448,3.8339,3.8083,3.8083,3.7907,3.1681,3.2178,3.269,3.3084,3.3612,3.4036,3.4285,3.468,3.509,3.5445,3.609,0.0,3.6852,3.6978,3.7387,3.8324,3.8953,3.9553,4.0212,4.0299,4.0343,4.049,4.049,4.049,4.049,4.049,4.049,4.049,4.049,4.049,4.049,4.049,4.049,4.049,4.049,4.0226,3.9699,3.9568,3.9187,3.8491,3.8491,3.8491,3.8491,3.8491,3.8491,3.8491,3.8491,3.8491,3.8491,3.8491,3.8491,3.8491,3.8491,3.8491,3.8491,3.8491,3.8491,3.8491,3.8491,3.8491,3.8491,3.8491,3.8491,3.8491,3.8491,3.8491,3.8491,3.8491,3.8491,3.8491,3.8491,3.8491,3.8491,3.8491,3.8491,3.8491,3.8491,3.8491,3.8491,3.8491,3.8491,3.8491,3.8491,3.8491,3.8491,3.8491,3.8491,3.8491,3.8491,3.8491,3.8491,3.8491,3.8491,3.8491,3.8491,3.8491,3.8491,3.8491,3.8491,3.8491,3.8491,3.8491,3.8491,3.8491,3.8491,3.8491,3.8491,3.8491,3.847,3.8353,3.8353,3.8192,3.1827,3.228,3.2749,3.3216,3.3905,3.4534,3.5031,3.5485,3.5909,3.6368,3.6861,3.7314,3.7534,3.7563,3.787,3.8865,3.9465,3.9977,4.0456,4.049,4.049,4.049,4.049,4.049,4.049,4.049,4.049,4.049,4.049,4.049,4.049,4.049,4.0446,4.0343,4.0329,4.0065,3.9524,3.9407,3.9129,3.8638,3.8535,3.8491,3.8491,3.8491,3.8491,3.8491,3.8491,3.8491,3.8491,3.8491,3.8491,3.8491,3.8491,3.8491,3.8491,3.8491,3.8491,3.8491,3.8491,3.8491,3.8491,3.8491,3.8491,3.8491,3.8491,3.8491,3.8491,3.8491,3.8491,3.8491,3.8491,3.8491,3.8491,3.8491,3.8491,3.8491,3.8491,3.8491,3.8491,3.8491,3.8491,3.8491,3.8491,3.8491,3.8491,3.8491,3.8491,3.8491,3.8491,3.8491,3.8491,3.8491,3.8491,3.8491,3.8491,3.8491,3.8491,3.8491,3.8491,3.8491,3.8491,3.8491,3.8491,3.8491,3.8491,3.8491,3.8491,3.8491,3.8491,3.8491,3.8491,3.8426,3.2105,3.228,3.2515,3.345,3.3698,3.4122,3.5763,3.6626,3.727,3.7995,3.7863,3.7628,3.7592,3.8104,3.8594,3.8968,3.9846,4.049,4.049,4.049,4.049,4.049,4.049,4.049,4.049,4.049,4.049,4.049,4.049,4.049,4.049,4.049,4.0329,4.0007,3.9992,3.9846,3.9509,3.9187,3.9026,3.8959,3.8638,3.8491,3.8491,3.8491,3.8491,3.8491,3.8491,3.8491,3.8491,3.8491,3.8491,3.8491,3.8491,3.8491,3.8491,3.8491,3.8491,3.8491,3.8491,3.8491,3.8491,3.8491,3.8491,3.8491,3.8491,3.8491,3.8491,3.8491,3.8491,3.8491,3.8491,3.8491,3.8491,3.8491,3.8491,3.8491,3.8491,3.8491,3.8491,3.8491,3.8491,3.8491,3.8491,3.8491,3.8491,3.8491,3.8491,3.8491,3.8491,3.8491,3.8491,3.8491,3.8491,3.8491,3.8491,3.8491,3.8491,3.8491,3.8491,3.8491,3.8491,3.8491,3.8491,3.8491,3.8491,3.8491,3.8491,3.8491,3.8491,3.8491,3.8491,3.8491,3.2163,3.2456,3.2866,3.3832,3.4578,3.5383,3.6539,3.6773,3.7124,3.847,3.8309,3.7987,3.8207,3.836,3.8594,3.8968,3.9656,4.0226,4.0446,4.049,4.049,4.049,4.049,4.049,4.049,4.049,4.049,4.049,4.027,4.0241,4.049,4.027,4.0095,4.0007,3.9992,3.9729,3.9173,3.907,3.8857,3.8623,3.8535,3.8491,3.8491,3.8491,3.8491,3.8491,3.8491,3.8491,3.8491,3.8491,3.8491,3.8491,3.8491,3.8491,3.8491,3.8491,3.8491,3.8491,3.8491,3.8491,3.8491,3.8491,3.8491,3.8491,3.8491,3.8491,3.8491,3.8491,3.8491,3.8491,3.8491,3.8491,3.8491,3.8491,3.8491,3.8491,3.8491,3.8491,3.8491,3.8491,3.8491,3.8491,3.8491,3.8491,3.8491,3.8491,3.8491,3.8491,3.8491,3.8491,3.8491,3.8491,3.8491,3.8491,3.8491,3.8491,3.8491,3.8491,3.8491,3.8491,3.8491,3.8491,3.8491,3.8491,3.8491,3.8491,3.8491,3.8491,3.8491,3.8491,3.8491,3.8491,3.2544,3.2807,3.3217,3.4314,3.5079,3.5855,3.7168,3.7622,3.8075,3.9187,3.8997,3.8704,3.8895,3.8924,3.9026,3.9363,3.9846,4.0255,4.0446,4.049,4.049,4.049,4.049,4.049,4.049,4.049,4.049,4.049,4.0299,4.0285,4.049,4.0182,3.9934,3.9802,3.9685,3.9363,3.8784,3.8784,3.8681,3.8491,3.8491,3.8491,3.8491,3.8491,3.8491,3.8491,3.8491,3.8491,3.8491,3.8491,3.8491,3.8491,3.8491,3.8491,3.8491,3.8491,3.8491,3.8491,3.8491,3.8491,3.8491,3.8491,3.8491,3.8491,3.8491,3.8491,3.8491,3.8491,3.8491,3.8491,3.8491,3.8491,3.8491,3.8491,3.8491,3.8491,3.8491,3.8491,3.8491,3.8491,3.8491,3.8491,3.8491,3.8491,3.8491,3.8491,3.8491,3.8491,3.8491,3.8491,3.8491,3.8491,3.8491,3.8491,3.8491,3.8491,3.8491,3.8491,3.8491,3.8491,3.8491,3.8491,3.8491,3.8491,3.8491,3.8491,3.8491,3.8491,3.8491,3.8491,3.8491,3.8491,3.307,3.3245,3.3552,3.4962,3.5401,3.5987,3.7834,3.8895,3.9641,3.9934,3.9758,3.9553,3.9553,3.9553,3.9656,3.9948,4.027,4.049,4.049,4.049,4.049,4.049,4.049,4.049,4.049,4.049,4.049,4.0446,4.0402,4.0402,4.0402,4.0095,3.9773,3.948,3.9173,3.8813,3.8491,3.8491,3.8491,3.8491,3.8491,3.8491,3.8491,3.8491,3.8491,3.8491,3.8491,3.8491,3.8491,3.8491,3.8491,3.8491,3.8491,3.8491,3.8491,3.8491,3.8491,3.8491,3.8491,3.8491,3.8491,3.8491,3.8491,3.8491,3.8491,3.8491,3.8491,3.8491,3.8491,3.8491,3.8491,3.8491,3.8491,3.8491,3.8491,3.8491,3.8491,3.8491,3.8491,3.8491,3.8491,3.8491,3.8491,3.8491,3.8491,3.8491,3.8491,3.8491,3.8491,3.8491,3.8491,3.8491,3.8491,3.8491,3.8491,3.8491,3.8491,3.8491,3.8491,3.8491,3.8491,3.8491,3.8491,3.8491,3.8491,3.8491,3.8491,3.8491,3.8491,3.8491,3.8491,3.8491,3.3451,3.3581,3.3947,3.5529,3.6875,3.8061,3.8982,3.9568,3.9919,3.9977,3.9948,3.989,3.989,3.989,3.9919,3.9992,4.027,4.049,4.049,4.049,4.049,4.049,4.049,4.049,4.049,4.049,4.0387,4.0124,3.986,3.9729,3.9729,3.9407,3.9202,3.9129,3.9056,3.8813,3.8491,3.8491,3.8491,3.8491,3.8491,3.8491,3.8491,3.8491,3.8491,3.8491,3.8491,3.8491,3.8491,3.8491,3.8491,3.8491,3.8491,3.8491,3.8491,3.8491,3.8491,3.8491,3.8491,3.8491,3.8491,3.8491,3.8491,3.8491,3.8491,3.8491,3.8491,3.8491,3.8491,3.8491,3.8491,3.8491,3.8491,3.8491,3.8491,3.8491,3.8491,3.8491,3.8491,3.8491,3.8491,3.8491,3.8491,3.8491,3.8491,3.8491,3.8491,3.8491,3.8491,3.8491,3.8491,3.8491,3.8491,3.8491,3.8491,3.8491,3.8491,3.8491,3.8491,3.8491,3.8491,3.8491,3.8491,3.8491,3.8491,3.8491,3.8491,3.8491,3.8491,3.8491,3.8491,3.8491,3.3788,3.408,3.4578,3.6187,3.7563,3.8652,3.9363,3.9641,3.9846,4.0168,4.0226,4.0226,4.0226,4.0226,4.0226,4.0226,4.0373,4.049,4.049,4.049,4.049,4.049,4.049,4.049,4.049,4.0343,4.0182,4.0007,3.9699,3.9509,3.9509,3.9202,3.9026,3.9026,3.8827,3.8652,3.8491,3.8491,3.8491,3.8491,3.8491,3.8491,3.8491,3.8491,3.8491,3.8491,3.8491,3.8491,3.8491,3.8491,3.8491,3.8491,3.8491,3.8491,3.8491,3.8491,3.8491,3.8491,3.8491,3.8491,3.8491,3.8491,3.8491,3.8491,3.8491,3.8491,3.8491,3.8491,3.8491,3.8491,3.8491,3.8491,3.8491,3.8491,3.8491,3.8491,3.8491,3.8491,3.8491,3.8491,3.8491,3.8491,3.8491,3.8491,3.8491,3.8491,3.8491,3.8491,3.8491,3.8491,3.8491,3.8491,3.8491,3.8491,3.8491,3.8491,3.8491,3.8491,3.8491,3.8491,3.8491,3.8491,3.8491,3.8491,3.8491,3.8491,3.8491,3.8491,3.8491,3.8491,3.8491,3.8491,3.4005,3.4622,3.5383,3.6817,3.79,3.8711,3.9304,3.9509,3.9743,4.0285,4.0446,4.049,4.049,4.049,4.049,4.049,4.049,4.049,4.049,4.049,4.049,4.049,4.049,4.05,4.0402,4.0153,3.9948,3.9846,3.9582,3.9407,3.9348,3.9085,3.8886,3.8886,3.8623,3.8491,3.8491,3.8491,3.8491,3.8491,3.8491,3.8491,3.8491,3.8491,3.8491,3.8491,3.8491,3.8491,3.8491,3.8491,3.8491,3.8491,3.8491,3.8491,3.8491,3.8491,3.8491,3.8491,3.8491,3.8491,3.8491,3.8491,3.8491,3.8491,3.8491,3.8491,3.8491,3.8491,3.8491,3.8491,3.8491,3.8491,3.8491,3.8491,3.8491,3.8491,3.8491,3.8491,3.8491,3.8491,3.8491,3.8491,3.8491,3.8491,3.8491,3.8491,3.8491,3.8491,3.8491,3.8491,3.8491,3.8491,3.8491,3.8491,3.8491,3.8491,3.8491,3.8491,3.8491,3.8491,3.8491,3.8491,3.8491,3.8491,3.8491,3.8491,3.8491,3.8491,3.8491,3.8491,3.8491,3.8491,3.4124,3.5266,3.6539,3.7314,3.8236,3.8982,3.907,3.9524,3.9963,4.0051,4.0285,4.049,4.049,4.049,4.049,4.049,4.049,4.049,4.049,4.049,4.049,4.049,4.049,4.0373,4.0095,4.0021,3.9758,3.9202,3.9114,3.8915,3.8638,3.8579,3.855,3.855,3.8506,3.8491,3.8491,3.8491,3.8491,3.8491,3.8491,3.8491,3.8491,3.8491,3.8491,3.8491,3.8491,3.8491,3.8491,3.8491,3.8491,3.8491,3.8491,3.8491,3.8491,3.8491,3.8491,3.8491,3.8491,3.8491,3.8491,3.8491,3.8491,3.8491,3.8491,3.8491,3.8491,3.8491,3.8491,3.8491,3.8491,3.8491,3.8491,3.8491,3.8491,3.8491,3.8491,3.8491,3.8491,3.8491,3.8491,3.8491,3.8491,3.8491,3.8491,3.8491,3.8491,3.8491,3.8491,3.8491,3.8491,3.8491,3.8491,3.8491,3.8491,3.8491,3.8491,3.8491,3.8491,3.8491,3.8491,3.8491,3.8491,3.8491,3.8491,3.8491,3.8491,3.8491,3.8491,3.8491,3.8491,3.8491,3.5046,3.5924,3.6846,3.787,3.8573,3.9129,3.948,3.9787,3.9992,3.9992,4.0109,4.027,4.0446,4.049,4.049,4.049,4.0329,4.0285,4.0446,4.0168,4.0007,4.0197,4.0051,3.989,3.9743,3.9568,3.9334,3.9041,3.8851,3.8638,3.8491,3.8491,3.8491,3.8491,3.8491,3.8491,3.8491,3.8491,3.8491,3.8491,3.8491,3.8491,3.8491,3.8491,3.8491,3.8491,3.8491,3.8491,3.8491,3.8491,3.8491,3.8491,3.8491,3.8491,3.8491,3.8491,3.8491,3.8491,3.8491,3.8491,3.8491,3.8491,3.8491,3.8491,3.8491,3.8491,3.8491,3.8491,3.8491,3.8491,3.8491,3.8491,3.8491,3.8491,3.8491,3.8491,3.8491,3.8491,3.8491,3.8491,3.8491,3.8491,3.8491,3.8491,3.8491,3.8491,3.8491,3.8491,3.8491,3.8491,3.8491,3.8491,3.8491,3.8491,3.8491,3.8491,3.8491,3.8491,3.8491,3.8491,3.8491,3.8491,3.8491,3.8491,3.8491,3.8491,3.8491,3.8491,3.8491,3.8491,3.8491,3.8491,3.5646,3.6231,3.6773,3.7987,3.855,3.9056,3.9626,3.9816,3.9875,3.9875,3.9826,3.9874,4.0212,4.0314,4.0387,4.049,4.0212,4.008,4.0329,3.9875,3.9597,3.9846,3.9656,3.948,3.9392,3.9173,3.8944,3.8857,3.8623,3.8491,3.8491,3.8491,3.8491,3.8491,3.8491,3.8491,3.8491,3.8491,3.8491,3.8491,3.8491,3.8491,3.8491,3.8491,3.8491,3.8491,3.8491,3.8491,3.8491,3.8491,3.8491,3.8491,3.8491,3.8491,3.8491,3.8491,3.8491,3.8491,3.8491,3.8491,3.8491,3.8491,3.8491,3.8491,3.8491,3.8491,3.8491,3.8491,3.8491,3.8491,3.8491,3.8491,3.8491,3.8491,3.8491,3.8491,3.8491,3.8491,3.8491,3.8491,3.8491,3.8491,3.8491,3.8491,3.8491,3.8491,3.8491,3.8491,3.8491,3.8491,3.8491,3.8491,3.8491,3.8491,3.8491,3.8491,3.8491,3.8491,3.8491,3.8491,3.8491,3.8491,3.8491,3.8491,3.8491,3.8491,3.8491,3.8491,3.8491,3.8491,3.8491,3.8491,3.5372,3.5895,3.6378,3.7373,3.8104,3.8594,3.8944,3.9319,3.9538,3.9538,3.9343,3.9243,3.9505,3.9816,4.0124,4.0446,4.0212,4.0007,4.0021,3.9729,3.9524,3.9538,3.9524,3.9392,3.9085,3.9026,3.8895,3.8535,3.8491,3.8491,3.8491,3.8491,3.8491,3.8491,3.8491,3.8491,3.8491,3.8491,3.8491,3.8491,3.8491,3.8491,3.8491,3.8491,3.8491,3.8491,3.8491,3.8491,3.8491,3.8491,3.8491,3.8491,3.8491,3.8491,3.8491,3.8491,3.8491,3.8491,3.8491,3.8491,3.8491,3.8491,3.8491,3.8491,3.8491,3.8491,3.8491,3.8491,3.8491,3.8491,3.8491,3.8491,3.8491,3.8491,3.8491,3.8491,3.8491,3.8491,3.8491,3.8491,3.8491,3.8491,3.8491,3.8491,3.8491,3.8491,3.8491,3.8491,3.8491,3.8491,3.8491,3.8491,3.8491,3.8491,3.8491,3.8491,3.8491,3.8491,3.8491,3.8491,3.8491,3.8491,3.8491,3.8491,3.8491,3.8491,3.8491,3.8491,3.8491,3.8491,3.8491,3.8491,3.5401,3.588,3.6407,3.7592,3.8368,3.8997,3.9524,3.962,3.9466,3.9062,3.8619,3.8229,3.8131,3.8554,3.8976,3.9282,3.8952,3.8597,3.8597,3.8155,3.8143,3.8879,3.8614,3.8503,3.8959,3.8836,3.8608,3.8491,3.8491,3.8491,3.8491,3.8491,3.8491,3.8491,3.8491,3.8491,3.8491,3.8491,3.8491,3.8491,3.8491,3.8491,3.8491,3.8491,3.8491,3.8491,3.8491,3.8491,3.8491,3.8491,3.8491,3.8491,3.8491,3.8491,3.8491,3.8491,3.8491,3.8491,3.8491,3.8491,3.8491,3.8491,3.8491,3.8491,3.8491,3.8491,3.8491,3.8491,3.8491,3.8491,3.8491,3.8491,3.8491,3.8491,3.8491,3.8491,3.8491,3.8491,3.8491,3.8491,3.8491,3.8491,3.8491,3.8491,3.8491,3.8491,3.8491,3.8491,3.8491,3.8491,3.8491,3.8491,3.8491,3.8491,3.8491,3.8491,3.8491,3.8491,3.8491,3.8491,3.8491,3.8491,3.8491,3.8491,3.8491,3.8491,3.8491,3.8491,3.8491,3.8491,3.8491,3.8491,3.4958,3.5558,3.6246,3.7446,3.7906,3.837,3.9344,3.9239,3.8815,3.8341,3.7896,3.7531,3.7223,3.7319,3.7639,3.8279,3.7966,3.7657,3.7755,3.7304,3.7212,3.8106,3.7761,3.7729,3.8469,3.8347,3.8321,3.8491,3.8491,3.8491,3.8491,3.8491,3.8491,3.8491,3.8491,3.8491,3.8491,3.8491,3.8491,3.8491,3.8491,3.8491,3.8491,3.8491,3.8491,3.8491,3.8491,3.8491,3.8491,3.8491,3.8491,3.8491,3.8491,3.8491,3.8491,3.8491,3.8491,3.8491,3.8491,3.8491,3.8491,3.8491,3.8491,3.8491,3.8491,3.8491,3.8491,3.8491,3.8491,3.8491,3.8491,3.8491,3.8491,3.8491,3.8491,3.8491,3.8491,3.8491,3.8491,3.8491,3.8491,3.8491,3.8491,3.8491,3.8491,3.8491,3.8491,3.8491,3.8491,3.8491,3.8491,3.8491,3.8491,3.8491,3.8491,3.8491,3.8491,3.8491,3.8491,3.8491,3.8491,3.8491,3.8491,3.8491,3.8491,3.8491,3.8491,3.8491,3.8491,3.8491,3.8491,3.8491,0.0,0.0,0.0,3.6787,3.67,3.6715,3.8292,3.8125,3.761,3.7342,3.724,3.7156,3.6915,3.616,3.6086,3.7484,3.7449,3.7365,3.7673,3.7237,3.6971,3.7226,3.7041,3.7068,3.7657,3.7709,3.7904,3.8439,3.8491,3.8491,3.8491,3.8491,3.8491,3.8491,3.8491,3.8491,3.8491,3.8491,3.8491,3.8491,3.8491,3.8491,3.8491,3.8491,3.8491,3.8491,3.8491,3.8491,3.8491,3.8491,3.8491,3.8491,3.8491,3.8491,3.8491,3.8491,3.8491,3.8491,3.8491,3.8491,3.8491,3.8491,3.8491,3.8491,3.8491,3.8491,3.8491,3.8491,3.8491,3.8491,3.8491,3.8491,3.8491,3.8491,3.8491,3.8491,3.8491,3.8491,3.8491,3.8491,3.8491,3.8491,3.8491,3.8491,3.8491,3.8491,3.8491,3.8491,3.8491,3.8491,3.8491,3.8491,3.8491,3.8491,3.8491,3.8491,3.8491,3.8491,3.8491,3.8491,3.8491,3.8491,3.8491,3.8491,3.8491,3.8491,3.8491,3.8491,3.8491,3.8491,3.8491,3.8491,3.3727,0.0,0.0,0.0,0.0,0.0,3.7125,3.7013,3.6815,3.6967,3.6353,3.5865,3.6204,3.5732,3.5443,3.5842,3.6017,3.6072,3.622,3.5895,3.5931,3.6656,3.6422,3.6536,3.7325,3.7562,3.7747,3.7904,3.8269,3.8491,3.8491,3.8491,3.8491,3.8491,3.8491,3.8491,3.8491,3.8491,3.8491,3.8491,3.8491,3.8491,3.8491,3.8491,3.8491,3.8491,3.8491,3.8491,3.8491,3.8491,3.8491,3.8491,3.8491,3.8491,3.8491,3.8491,3.8491,3.8491,3.8491,3.8491,3.8491,3.8491,3.8491,3.8491,3.8491,3.8491,3.8491,3.8491,3.8491,3.8491,3.8491,3.8491,3.8491,3.8491,3.8491,3.8491,3.8491,3.8491,3.8491,3.8491,3.8491,3.8491,3.8491,3.8491,3.8491,3.8491,3.8491,3.8491,3.8491,3.8491,3.8491,3.8491,3.8491,3.8491,3.8491,3.8491,3.8491,3.8491,3.8491,3.8491,3.8491,3.8491,3.8491,3.8491,3.8491,3.8491,3.8491,3.8491,3.8491,3.8491,3.8491,3.8491,0.0,0.0,0.0,0.0,0.0,0.0,3.6529,3.6286,3.5926,3.6239,3.5789,3.5424,3.5651,3.5509,3.5378,3.5378,3.5511,3.5578,3.5578,3.5378,3.5417,3.6031,3.6066,3.6312,3.7058,3.7481,3.78,3.8008,3.8335,3.8491,3.8491,3.8491,3.8491,3.8491,3.8491,3.8491,3.8491,3.8491,3.8491,3.8491,3.8491,3.8491,3.8491,3.8491,3.8491,3.8491,3.8491,3.8491,3.8491,3.8491,3.8491,3.8491,3.8491,3.8491,3.8491,3.8491,3.8491,3.8491,3.8491,3.8491,3.8491,3.8491,3.8491,3.8491,3.8491,3.8491,3.8491,3.8491,3.8491,3.8491,3.8491,3.8491,3.8491,3.8491,3.8491,3.8491,3.8491,3.8491,3.8491,3.8491,3.8491,3.8491,3.8491,3.8491,3.8491,3.8491,3.8491,3.8491,3.8491,3.8491,3.8491,3.8491,3.8491,3.8491,3.8491,3.8491,3.8491,3.8491,3.8491,3.8491,3.8491,3.8491,3.8491,3.8491,3.8491,3.8491,3.8491,3.8491,3.8491,3.8491,3.8491,3.8491,0.0,0.0,0.0,0.0,3.5048,0.0,3.6127,3.5684,3.5098,3.5411,3.5461,3.5442,3.5295,3.5404,3.5578,3.5578,3.5578,3.5591,3.5631,3.5378,3.5297,3.5551,3.5774,3.6138,3.6754,3.7277,3.7852,3.8387,3.8491,3.8491,3.8491,3.8491,3.8491,3.8491,3.8491,3.8491,3.8491,3.8491,3.8491,3.8491,3.8491,3.8491,3.8491,3.8491,3.8491,3.8491,3.8491,3.8491,3.8491,3.8491,3.8491,3.8491,3.8491,3.8491,3.8491,3.8491,3.8491,3.8491,3.8491,3.8491,3.8491,3.8491,3.8491,3.8491,3.8491,3.8491,3.8491,3.8491,3.8491,3.8491,3.8491,3.8491,3.8491,3.8491,3.8491,3.8491,3.8491,3.8491,3.8491,3.8491,3.8491,3.8491,3.8491,3.8491,3.8491,3.8491,3.8491,3.8491,3.8491,3.8491,3.8491,3.8491,3.8491,3.8491,3.8491,3.8491,3.8491,3.8491,3.8491,3.8491,3.8491,3.8491,3.8491,3.8491,3.8491,3.8491,3.8491,3.8491,3.8491,3.8491,3.8491,3.8491,0.0,0.0,0.0,0.0,0.0,0.0,3.4957,3.492,3.5087,3.5419,3.4997,3.4821,3.5675,3.5508,3.5284,3.5284,3.5284,3.5364,3.5591,3.5378,3.5217,3.5271,3.5336,3.5559,3.6138,3.6701,3.7277,3.78,3.8269,3.8491,3.8491,3.8491,3.8491,3.8491,3.8491,3.8491,3.8491,3.8491,3.8491,3.8491,3.8491,3.8491,3.8491,3.8491,3.8491,3.8491,3.8491,3.8491,3.8491,3.8491,3.8491,3.8491,3.8491,3.8491,3.8491,3.8491,3.8491,3.8491,3.8491,3.8491,3.8491,3.8491,3.8491,3.8491,3.8491,3.8491,3.8491,3.8491,3.8491,3.8491,3.8491,3.8491,3.8491,3.8491,3.8491,3.8491,3.8491,3.8491,3.8491,3.8491,3.8491,3.8491,3.8491,3.8491,3.8491,3.8491,3.8491,3.8491,3.8491,3.8491,3.8491,3.8491,3.8491,3.8491,3.8491,3.8491,3.8491,3.8491,3.8491,3.8491,3.8491,3.8491,3.8491,3.8491,3.8491,3.8491,3.8491,3.8491,3.8491,3.8491,3.8491,3.8491,0.0,0.0,0.0,3.5324,0.0,0.0,0.0,3.4601,3.4493,3.5109,3.4597,3.4338,3.5341,3.5127,3.4803,3.4963,3.5097,3.5244,3.5391,3.5284,3.5191,3.5191,3.5717,3.6124,3.6401,3.7225,3.78,3.806,3.8335,3.8491,3.8491,3.8491,3.8491,3.8491,3.8491,3.8491,3.8491,3.8491,3.8491,3.8491,3.8491,3.8491,3.8491,3.8491,3.8491,3.8491,3.8491,3.8491,3.8491,3.8491,3.8491,3.8491,3.8491,3.8491,3.8491,3.8491,3.8491,3.8491,3.8491,3.8491,3.8491,3.8491,3.8491,3.8491,3.8491,3.8491,3.8491,3.8491,3.8491,3.8491,3.8491,3.8491,3.8491,3.8491,3.8491,3.8491,3.8491,3.8491,3.8491,3.8491,3.8491,3.8491,3.8491,3.8491,3.8491,3.8491,3.8491,3.8491,3.8491,3.8491,3.8491,3.8491,3.8491,3.8491,3.8491,3.8491,3.8491,3.8491,3.8491,3.8491,3.8491,3.8491,3.8491,3.8491,3.8491,3.8491,3.8491,3.8491,3.8491,3.8491,3.8491,3.8491,0.0,0.0,0.0,0.0,0.0,3.4851,0.0,0.0,0.0,3.4837,3.4344,3.4099,3.4847,3.4639,3.4412,3.4614,3.4988,3.5241,3.5188,3.5228,3.5242,3.5191,3.6136,3.6841,3.6897,3.7742,3.8285,3.8389,3.8337,3.8314,3.8477,3.8491,3.8491,3.8491,3.8491,3.8491,3.8491,3.8491,3.8491,3.8491,3.8491,3.8491,3.8491,3.8491,3.8491,3.8491,3.8491,3.8491,3.8491,3.8491,3.8491,3.8491,3.8491,3.8491,3.8491,3.8491,3.8491,3.8491,3.8491,3.8491,3.8491,3.8491,3.8491,3.8491,3.8491,3.8491,3.8491,3.8491,3.8491,3.8491,3.8491,3.8491,3.8491,3.8491,3.8491,3.8491,3.8491,3.8491,3.8491,3.8491,3.8491,3.8491,3.8491,3.8491,3.8491,3.8491,3.8491,3.8491,3.8491,3.8491,3.8491,3.8491,3.8491,3.8491,3.8491,3.8491,3.8491,3.8491,3.8491,3.8491,3.8491,3.8491,3.8491,3.8491,3.8491,3.8491,3.8491,3.8491,3.8491,3.8491,3.8491,3.8491,0.0,0.0,0.0,0.0,3.5947,0.0,3.4988,0.0,3.5029,3.4872,0.0,3.4476,3.4624,0.0,0.0,3.4077,3.4869,3.5437,3.515,3.5355,3.5485,3.5217,3.5943,3.6551,3.6883,3.7244,3.7655,3.8119,3.7707,3.7771,3.8477,3.8491,3.8491,3.8491,3.8491,3.8491,3.8491,3.8491,3.8491,3.8491,3.8491,3.8491,3.8491,3.8491,3.8491,3.8491,3.8491,3.8491,3.8491,3.8491,3.8491,3.8491,3.8491,3.8491,3.8491,3.8491,3.8491,3.8491,3.8491,3.8491,3.8491,3.8491,3.8491,3.8491,3.8491,3.8491,3.8491,3.8491,3.8491,3.8491,3.8491,3.8491,3.8491,3.8491,3.8491,3.8491,3.8491,3.8491,3.8491,3.8491,3.8491,3.8491,3.8491,3.8491,3.8491,3.8491,3.8491,3.8491,3.8491,3.8491,3.8491,3.8491,3.8491,3.8491,3.8491,3.8491,3.8491,3.8491,3.8491,3.8491,3.8491,3.8491,3.8491,3.8491,3.8491,3.8491,3.8491,3.8491,3.8491,3.8491,3.8491,3.8491,0.0,0.0,0.0,0.0,0.0,0.0,3.4482,0.0,3.4483,3.4541,0.0,0.0,0.0,0.0,0.0,0.0,3.524,3.5535,3.5577,3.5944,3.614,3.594,3.5744,3.5967,3.6777,3.7521,3.792,3.7812,3.7804,3.7913,3.8251,3.8265,3.8353,3.8477,3.8491,3.8491,3.8491,3.8491,3.8491,3.8491,3.8491,3.8491,3.8491,3.8491,3.8491,3.8491,3.8491,3.8491,3.8491,3.8491,3.8491,3.8491,3.8491,3.8491,3.8491,3.8491,3.8491,3.8491,3.8491,3.8491,3.8491,3.8491,3.8491,3.8491,3.8491,3.8491,3.8491,3.8491,3.8491,3.8491,3.8491,3.8491,3.8491,3.8491,3.8491,3.8491,3.8491,3.8491,3.8491,3.8491,3.8491,3.8491,3.8491,3.8491,3.8491,3.8491,3.8491,3.8491,3.8491,3.8491,3.8491,3.8491,3.8491,3.8491,3.8491,3.8491,3.8491,3.8491,3.8491,3.8491,3.8491,3.8491,3.8491,3.8491,3.8491,3.8491,3.8491,3.8491,3.8491,3.8491,3.8491,3.8491,3.4673,0.0,0.0,0.0,0.0,0.0,0.0,0.0,0.0,0.0,3.4712,0.0,0.0,0.0,3.4858,3.5299,0.0,3.588,3.59,3.624,3.6331,3.6074,3.5682,3.5865,3.6917,3.7715,3.8023,3.7622,3.7695,3.7826,3.798,3.8068,3.8134,3.8265,3.8389,3.8404,3.8228,3.8404,3.8448,3.8412,3.8448,3.8491,3.8491,3.8491,3.8491,3.8491,3.8491,3.8491,3.8491,3.8491,3.8491,3.8491,3.8491,3.8491,3.8491,3.8491,3.8491,3.8491,3.8491,3.8491,3.8491,3.8491,3.8491,3.8491,3.8491,3.8491,3.8491,3.8491,3.8491,3.8491,3.8491,3.8491,3.8491,3.8491,3.8491,3.8491,3.8491,3.8491,3.8491,3.8491,3.8491,3.8491,3.8491,3.8491,3.8491,3.8491,3.8491,3.8491,3.8491,3.8491,3.8491,3.8491,3.8491,3.8491,3.8491,3.8491,3.8491,3.8491,3.8491,3.8491,3.8491,3.8491,3.8491,3.8491,3.8491,3.8491,3.8491,3.8491,3.8491,3.8491,3.8491,3.8491,3.5098,3.5042,3.5014,3.4556,3.4482,3.4449,3.4222,0.0,3.5665,0.0,0.0,0.0,0.0,0.0,0.0,0.0,0.0,0.0,0.0,3.5834,3.5677,3.5178,3.5854,3.6683,3.7505,3.741,3.7416,3.7607,3.7121,3.7084,3.7592,3.7951,3.798,3.7622,3.8221,3.8236,3.7607,3.8221,3.8382,3.8141,3.8397,3.8491,3.8491,3.8491,3.8491,3.8491,3.8491,3.8491,3.8491,3.8491,3.8491,3.8491,3.8491,3.8491,3.8491,3.8491,3.8491,3.8491,3.8491,3.8491,3.8491,3.8491,3.8491,3.8491,3.8491,3.8491,3.8491,3.8491,3.8491,3.8491,3.8491,3.8491,3.8491,3.8491,3.8491,3.8491,3.8491,3.8491,3.8491,3.8491,3.8491,3.8491,3.8491,3.8491,3.8491,3.8491,3.8491,3.8491,3.8491,3.8491,3.8491,3.8491,3.8491,3.8491,3.8491,3.8491,3.8491,3.8491,3.8491,3.8491,3.8491,3.8491,3.8491,3.8491,3.8491,3.8491,3.8491,3.8491,3.8491,3.8491,3.8491,3.8491,3.4609,3.472,3.4709,3.395,3.4025,3.4211,3.3888,3.4488,3.5261,0.0,0.0,0.0,0.0,0.0,0.0,0.0,0.0,0.0,0.0,3.5073,3.4912,3.5956,3.6558,3.6731,3.6464,3.7266,3.76,3.6992,3.6988,3.7105,3.7256,3.7358,3.7475,3.7628,3.7797,3.7797,3.7578,3.7797,3.7958,3.8112,3.8178,3.8339,3.8491,3.8491,3.8491,3.8491,3.8491,3.8491,3.8491,3.8491,3.8491,3.8491,3.8491,3.8491,3.8491,3.8491,3.8491,3.8491,3.8491,3.8491,3.8491,3.8491,3.8491,3.8491,3.8491,3.8491,3.8491,3.8491,3.8491,3.8491,3.8491,3.8491,3.8491,3.8491,3.8491,3.8491,3.8491,3.8491,3.8491,3.8491,3.8491,3.8491,3.8491,3.8491,3.8491,3.8491,3.8491,3.8491,3.8491,3.8491,3.8491,3.8491,3.8491,3.8491,3.8491,3.8491,3.8491,3.8491,3.8491,3.8491,3.8491,3.8491,3.8491,3.8491,3.8491,3.8491,3.8491,3.8491,3.8491,3.8491,3.8491,3.8491,3.4429,3.4536,3.4601,3.3842,3.4009,3.4258,3.3823,3.4442,3.5215,3.5572,0.0,0.0,0.0,0.0,0.0,0.0,0.0,0.0,0.0,3.4907,3.4841,3.6158,3.6405,3.6454,3.6435,3.7215,3.7402,3.6656,3.6802,3.6861,3.6744,3.6963,3.7139,3.7226,3.7461,3.7475,3.7226,3.7461,3.7571,3.7469,3.7907,3.8074,3.8057,3.8173,3.8231,3.8231,3.8231,3.8231,3.8217,3.8439,3.8491,3.8491,3.8491,3.8491,3.8491,3.8491,3.8491,3.8491,3.8491,3.8491,3.8491,3.8491,3.8491,3.8491,3.8491,3.8491,3.8506,3.8623,3.8579,3.8521,3.8623,3.8564,3.8491,3.8491,3.8491,3.8491,3.8491,3.8491,3.8491,3.8491,3.8491,3.8491,3.8491,3.8491,3.8491,3.8491,3.8491,3.8491,3.8491,3.8491,3.8491,3.8491,3.8491,3.8491,3.8491,3.8491,3.8491,3.8491,3.8491,3.8491,3.8491,3.8491,3.8594,3.8827,3.8608,3.8594,3.888,3.8594,3.8491,3.8491,3.8491,3.8491]},{"header":{"parameterUnit":"m.s-1","parameterCategory":1,"la1":30.6,"la2":29.2853,"lo1":-89.7004,"lo2":-87.6739,"dy":0.0162,"dx":0.0183,"nx":112,"ny":82,"refTime":"2023-04-21T12:00:00:Z","depth":0,"parameterNumber":3,"parameterNumberName":"V-component_of_WINDS"},"data":[0.0,0.0,0.0,0.0,0.0,0.0,0.0,0.0,0.0,0.0,0.0,0.0,0.0,0.0,0.0,0.0,0.0,0.0,0.0,0.0,0.0,0.0,0.0,0.0,0.0,0.0,0.0,0.0,0.0,0.0,0.0,0.0,0.0,0.0,0.0,0.0,0.0,0.0,0.0,0.0,0.0,0.0,0.0,0.0,0.0,0.0,0.0,0.0,0.0,0.0,0.0,0.0,0.0,0.0,0.0,0.0,0.0,0.0,0.0,0.0,0.0,0.0,0.0,0.0,0.0,0.0,0.0,0.0,0.0,0.0,0.0,0.0,0.0,0.0,0.0,0.0,0.0,0.0,0.0,0.0,0.0,0.0,0.0,0.0,0.0,0.0,0.0,0.0,0.0,0.0,4.8144,4.7969,4.914,5.0039,5.0322,5.0214,4.9659,4.8527,0.0,0.0,0.0,0.0,0.0,0.0,0.0,0.0,0.0,0.0,0.0,0.0,0.0,0.0,0.0,0.0,0.0,0.0,0.0,0.0,0.0,0.0,0.0,0.0,0.0,0.0,0.0,0.0,0.0,0.0,0.0,0.0,0.0,0.0,0.0,0.0,0.0,0.0,0.0,0.0,0.0,0.0,0.0,0.0,0.0,0.0,0.0,0.0,0.0,0.0,0.0,0.0,0.0,0.0,0.0,0.0,0.0,0.0,0.0,0.0,0.0,0.0,0.0,0.0,0.0,0.0,0.0,0.0,0.0,0.0,0.0,0.0,0.0,0.0,0.0,0.0,0.0,0.0,0.0,0.0,0.0,0.0,0.0,0.0,0.0,0.0,0.0,0.0,0.0,0.0,0.0,0.0,0.0,0.0,0.0,0.0,0.0,0.0,0.0,0.0,0.0,0.0,0.0,0.0,4.7443,4.8473,4.994,5.0915,5.0966,5.0591,4.9995,4.9104,0.0,0.0,0.0,0.0,0.0,0.0,0.0,0.0,0.0,0.0,0.0,0.0,0.0,0.0,0.0,0.0,0.0,0.0,0.0,0.0,0.0,0.0,0.0,0.0,0.0,0.0,0.0,0.0,0.0,0.0,0.0,0.0,0.0,0.0,0.0,0.0,0.0,0.0,0.0,0.0,0.0,0.0,0.0,0.0,0.0,0.0,0.0,0.0,0.0,0.0,0.0,0.0,0.0,0.0,0.0,0.0,0.0,0.0,0.0,0.0,0.0,0.0,0.0,0.0,0.0,0.0,0.0,0.0,0.0,0.0,0.0,0.0,0.0,0.0,0.0,0.0,0.0,0.0,0.0,0.0,0.0,0.0,0.0,0.0,0.0,0.0,0.0,0.0,0.0,0.0,0.0,0.0,0.0,0.0,0.0,0.0,0.0,0.0,0.0,0.0,0.0,0.0,0.0,4.823,4.8629,5.0085,5.1227,5.2124,5.2634,5.1769,5.1056,5.0746,4.9716,0.0,0.0,0.0,0.0,0.0,0.0,0.0,0.0,0.0,0.0,0.0,0.0,0.0,0.0,0.0,0.0,0.0,0.0,0.0,0.0,0.0,0.0,0.0,0.0,0.0,0.0,0.0,0.0,0.0,0.0,0.0,0.0,0.0,0.0,0.0,0.0,0.0,0.0,0.0,0.0,0.0,0.0,0.0,0.0,0.0,0.0,0.0,0.0,0.0,0.0,0.0,0.0,0.0,0.0,0.0,0.0,0.0,0.0,0.0,0.0,0.0,0.0,0.0,0.0,0.0,0.0,0.0,0.0,0.0,0.0,0.0,0.0,0.0,0.0,0.0,0.0,0.0,0.0,0.0,0.0,0.0,0.0,0.0,0.0,0.0,0.0,0.0,0.0,0.0,0.0,0.0,0.0,0.0,0.0,0.0,0.0,0.0,0.0,0.0,0.0,0.0,0.0,4.987,5.0577,5.1656,5.2476,5.3218,5.3934,5.2849,5.2009,5.1706,5.0917,0.0,0.0,0.0,0.0,0.0,0.0,0.0,0.0,0.0,0.0,0.0,0.0,0.0,0.0,0.0,0.0,0.0,0.0,0.0,0.0,0.0,0.0,0.0,0.0,0.0,0.0,0.0,0.0,0.0,0.0,0.0,0.0,0.0,0.0,0.0,0.0,0.0,0.0,0.0,0.0,0.0,0.0,0.0,0.0,0.0,0.0,0.0,0.0,0.0,0.0,0.0,0.0,0.0,0.0,0.0,0.0,0.0,0.0,0.0,0.0,0.0,0.0,0.0,0.0,0.0,0.0,0.0,0.0,0.0,0.0,0.0,0.0,0.0,0.0,0.0,0.0,0.0,0.0,0.0,0.0,0.0,0.0,0.0,0.0,0.0,0.0,0.0,0.0,0.0,0.0,0.0,0.0,0.0,0.0,0.0,0.0,0.0,0.0,0.0,0.0,0.0,0.0,5.1456,5.2904,5.2546,5.334,5.3912,5.3976,5.326,5.2229,5.0872,5.157,0.0,0.0,0.0,0.0,0.0,0.0,0.0,0.0,0.0,0.0,0.0,0.0,0.0,0.0,0.0,0.0,0.0,0.0,0.0,0.0,0.0,0.0,0.0,0.0,0.0,0.0,0.0,0.0,0.0,0.0,0.0,0.0,0.0,0.0,0.0,0.0,0.0,0.0,0.0,0.0,0.0,0.0,0.0,0.0,0.0,0.0,0.0,0.0,0.0,0.0,0.0,0.0,0.0,0.0,0.0,0.0,0.0,0.0,0.0,0.0,0.0,0.0,0.0,0.0,0.0,0.0,0.0,0.0,0.0,0.0,0.0,0.0,0.0,0.0,0.0,0.0,0.0,0.0,0.0,0.0,0.0,0.0,0.0,0.0,0.0,0.0,0.0,0.0,0.0,0.0,0.0,0.0,0.0,0.0,0.0,0.0,0.0,0.0,0.0,0.0,0.0,0.0,5.1129,5.274,0.0,5.4306,5.4946,5.5122,5.4007,5.3307,5.3184,0.0,0.0,0.0,0.0,0.0,0.0,0.0,0.0,0.0,0.0,0.0,0.0,0.0,0.0,0.0,0.0,0.0,0.0,0.0,0.0,0.0,0.0,0.0,0.0,0.0,0.0,0.0,0.0,0.0,0.0,0.0,0.0,0.0,0.0,0.0,0.0,0.0,0.0,0.0,0.0,0.0,0.0,0.0,0.0,0.0,0.0,0.0,0.0,0.0,0.0,0.0,0.0,0.0,0.0,0.0,0.0,0.0,0.0,0.0,0.0,0.0,0.0,0.0,0.0,0.0,0.0,0.0,0.0,0.0,0.0,0.0,0.0,0.0,0.0,0.0,0.0,0.0,0.0,0.0,0.0,0.0,0.0,0.0,0.0,0.0,0.0,0.0,0.0,0.0,0.0,0.0,0.0,0.0,0.0,0.0,0.0,0.0,0.0,0.0,0.0,0.0,0.0,4.962,5.1414,5.3149,0.0,5.5234,5.5706,5.5866,5.4757,5.402,5.4044,0.0,0.0,0.0,0.0,0.0,0.0,0.0,0.0,0.0,0.0,0.0,0.0,0.0,0.0,0.0,0.0,0.0,0.0,0.0,0.0,0.0,0.0,0.0,0.0,0.0,0.0,0.0,0.0,0.0,0.0,0.0,0.0,0.0,0.0,0.0,0.0,0.0,0.0,0.0,0.0,0.0,0.0,0.0,0.0,0.0,0.0,0.0,0.0,0.0,0.0,0.0,0.0,0.0,0.0,0.0,0.0,0.0,0.0,0.0,0.0,0.0,0.0,0.0,0.0,0.0,0.0,0.0,0.0,0.0,0.0,0.0,0.0,0.0,0.0,0.0,0.0,0.0,0.0,0.0,0.0,0.0,0.0,0.0,0.0,0.0,0.0,0.0,0.0,0.0,0.0,0.0,0.0,0.0,0.0,0.0,0.0,0.0,0.0,0.0,0.0,0.0,0.0,5.0964,5.2713,5.4481,5.5942,5.6106,5.6106,5.6106,5.5418,5.4333,0.0,0.0,0.0,0.0,0.0,0.0,0.0,0.0,0.0,0.0,0.0,0.0,0.0,0.0,0.0,0.0,0.0,0.0,0.0,0.0,0.0,0.0,0.0,0.0,0.0,0.0,0.0,0.0,0.0,0.0,0.0,0.0,0.0,0.0,0.0,0.0,0.0,0.0,0.0,0.0,0.0,0.0,0.0,0.0,0.0,0.0,0.0,0.0,0.0,0.0,0.0,0.0,0.0,0.0,0.0,0.0,0.0,0.0,0.0,0.0,0.0,0.0,0.0,0.0,0.0,0.0,0.0,0.0,0.0,0.0,0.0,0.0,0.0,0.0,0.0,0.0,0.0,0.0,0.0,0.0,0.0,0.0,0.0,0.0,0.0,0.0,0.0,0.0,0.0,0.0,0.0,0.0,0.0,0.0,0.0,0.0,0.0,0.0,0.0,0.0,0.0,0.0,0.0,5.2585,5.3845,5.5038,5.6008,5.6106,5.6165,5.6303,5.5152,5.4465,5.4515,0.0,0.0,0.0,0.0,0.0,0.0,0.0,0.0,0.0,0.0,0.0,0.0,0.0,0.0,0.0,0.0,0.0,0.0,0.0,0.0,0.0,0.0,0.0,0.0,0.0,0.0,0.0,0.0,0.0,0.0,0.0,0.0,0.0,0.0,0.0,0.0,0.0,0.0,0.0,0.0,0.0,0.0,0.0,0.0,0.0,0.0,0.0,0.0,0.0,0.0,0.0,0.0,0.0,0.0,0.0,0.0,0.0,0.0,0.0,0.0,0.0,0.0,0.0,0.0,0.0,0.0,0.0,0.0,0.0,0.0,0.0,0.0,0.0,0.0,0.0,0.0,0.0,0.0,0.0,0.0,0.0,0.0,0.0,0.0,0.0,0.0,0.0,0.0,0.0,0.0,0.0,0.0,0.0,0.0,0.0,0.0,0.0,0.0,0.0,0.0,0.0,0.0,5.4031,5.527,5.6376,5.7153,5.7218,5.7159,5.6968,5.5859,5.5132,5.5,0.0,0.0,0.0,0.0,0.0,0.0,0.0,0.0,0.0,0.0,0.0,0.0,0.0,0.0,0.0,0.0,0.0,0.0,0.0,0.0,0.0,0.0,0.0,0.0,0.0,0.0,0.0,0.0,0.0,0.0,0.0,0.0,0.0,0.0,0.0,0.0,0.0,0.0,0.0,0.0,0.0,0.0,0.0,0.0,0.0,0.0,0.0,0.0,0.0,0.0,0.0,0.0,0.0,0.0,0.0,0.0,0.0,0.0,0.0,0.0,0.0,0.0,0.0,0.0,0.0,0.0,0.0,0.0,0.0,0.0,0.0,0.0,0.0,0.0,0.0,0.0,0.0,0.0,0.0,0.0,0.0,0.0,0.0,0.0,0.0,0.0,0.0,0.0,0.0,0.0,0.0,0.0,0.0,0.0,0.0,0.0,0.0,0.0,0.0,0.0,0.0,0.0,5.5312,5.6756,5.8071,5.8833,5.8899,5.8601,5.7839,5.713,5.6084,5.4707,0.0,0.0,0.0,0.0,0.0,0.0,0.0,0.0,0.0,0.0,0.0,0.0,0.0,0.0,0.0,0.0,0.0,0.0,0.0,0.0,0.0,0.0,0.0,0.0,0.0,0.0,0.0,0.0,0.0,0.0,0.0,0.0,0.0,0.0,0.0,0.0,0.0,0.0,0.0,0.0,0.0,0.0,0.0,0.0,0.0,0.0,0.0,0.0,0.0,0.0,0.0,0.0,0.0,0.0,0.0,0.0,0.0,0.0,0.0,0.0,5.3953,5.3981,0.0,0.0,0.0,0.0,0.0,0.0,0.0,0.0,0.0,0.0,0.0,0.0,0.0,0.0,0.0,0.0,0.0,0.0,0.0,0.0,0.0,0.0,0.0,0.0,0.0,0.0,0.0,0.0,0.0,0.0,0.0,0.0,0.0,0.0,0.0,0.0,0.0,0.0,0.0,0.0,5.6927,5.7457,5.8071,5.8833,5.8899,5.8601,5.7839,5.713,5.6316,5.5435,5.4806,0.0,0.0,0.0,0.0,0.0,0.0,0.0,0.0,0.0,0.0,0.0,0.0,0.0,0.0,0.0,0.0,0.0,0.0,0.0,0.0,0.0,0.0,0.0,0.0,0.0,0.0,0.0,0.0,0.0,0.0,0.0,0.0,0.0,0.0,0.0,0.0,0.0,0.0,0.0,0.0,0.0,0.0,0.0,0.0,0.0,0.0,0.0,0.0,0.0,0.0,0.0,0.0,0.0,0.0,0.0,0.0,0.0,0.0,0.0,5.5975,5.5457,0.0,0.0,0.0,0.0,0.0,0.0,0.0,0.0,0.0,0.0,0.0,0.0,0.0,0.0,0.0,0.0,0.0,0.0,0.0,0.0,0.0,0.0,0.0,0.0,0.0,0.0,0.0,0.0,0.0,0.0,0.0,0.0,0.0,0.0,0.0,0.0,0.0,0.0,0.0,0.0,5.8078,5.8574,5.9131,5.9893,5.996,5.9529,5.8403,5.7972,5.7144,5.57,5.5568,0.0,0.0,0.0,0.0,0.0,0.0,0.0,0.0,0.0,0.0,0.0,0.0,0.0,0.0,0.0,0.0,0.0,0.0,0.0,0.0,0.0,0.0,0.0,0.0,0.0,0.0,0.0,0.0,0.0,0.0,0.0,0.0,0.0,0.0,0.0,0.0,0.0,0.0,0.0,0.0,0.0,0.0,0.0,0.0,0.0,0.0,0.0,0.0,0.0,0.0,0.0,0.0,0.0,5.7981,5.8195,5.8786,5.8786,5.9198,5.9857,5.8638,5.7672,5.7054,5.746,0.0,0.0,0.0,0.0,0.0,0.0,0.0,0.0,0.0,0.0,0.0,0.0,0.0,0.0,0.0,0.0,0.0,0.0,0.0,0.0,0.0,0.0,5.8899,5.8899,5.8899,5.8521,5.7073,0.0,0.0,0.0,0.0,0.0,0.0,0.0,0.0,0.0,0.0,0.0,5.88,5.9429,6.0158,6.102,6.1119,6.0556,5.9198,5.8966,5.8071,5.6098,5.6415,5.615,0.0,0.0,0.0,0.0,0.0,0.0,0.0,0.0,0.0,0.0,0.0,0.0,0.0,0.0,0.0,0.0,0.0,0.0,0.0,0.0,0.0,0.0,0.0,0.0,0.0,0.0,0.0,0.0,0.0,0.0,0.0,0.0,5.6064,5.5512,0.0,0.0,0.0,0.0,0.0,0.0,0.0,0.0,0.0,0.0,0.0,0.0,0.0,5.8933,5.9562,6.015,6.0548,6.0647,6.0605,6.0639,6.0738,6.0738,6.0804,6.0945,6.1354,0.0,5.9501,5.9429,0.0,0.0,0.0,0.0,0.0,0.0,0.0,0.0,0.0,0.0,0.0,0.0,0.0,0.0,0.0,0.0,0.0,0.0,0.0,0.0,0.0,0.0,5.8899,5.8899,5.8899,5.9012,5.9402,5.9005,5.8561,5.8561,5.8051,5.7641,0.0,0.0,0.0,0.0,0.0,0.0,5.8734,5.8966,5.9562,6.0933,6.1119,6.0755,5.9926,5.9264,5.8502,5.7574,5.6978,5.6633,5.6434,5.5899,0.0,0.0,0.0,0.0,0.0,0.0,0.0,0.0,0.0,0.0,0.0,0.0,0.0,0.0,0.0,0.0,0.0,0.0,0.0,0.0,0.0,0.0,0.0,0.0,0.0,0.0,0.0,0.0,0.0,5.6616,5.7083,5.6288,5.6988,5.718,0.0,0.0,0.0,0.0,0.0,0.0,0.0,0.0,0.0,5.9628,5.996,6.0291,6.0622,6.0953,6.1516,6.2366,6.2366,6.2742,6.3516,6.3516,6.3516,6.3516,6.3868,6.3405,6.2323,6.1015,5.9816,5.8759,0.0,0.0,0.0,0.0,5.8819,5.8899,5.8799,5.8819,5.8899,5.8799,0.0,0.0,0.0,0.0,0.0,0.0,0.0,5.9595,6.0026,6.0158,6.0225,6.0676,6.0423,6.0357,6.1073,6.0655,6.0026,5.9595,5.8933,5.8403,5.8403,5.8138,0.0,0.0,0.0,5.8303,5.9396,5.9529,5.9926,6.0986,6.1119,6.0821,6.0059,5.933,5.8601,5.7839,5.713,5.6699,5.6699,5.6382,5.6216,0.0,0.0,0.0,0.0,0.0,0.0,0.0,0.0,0.0,0.0,0.0,0.0,0.0,0.0,0.0,0.0,0.0,0.0,0.0,0.0,0.0,0.0,0.0,0.0,0.0,0.0,0.0,0.0,5.752,5.8465,5.7674,5.8911,5.9405,0.0,0.0,0.0,0.0,0.0,0.0,6.0225,6.0456,6.0887,6.1649,6.2013,6.229,6.2456,6.2655,6.3305,6.4399,6.4399,6.4962,6.5966,6.5966,6.5966,6.5933,6.5767,6.5238,6.4465,6.2875,6.1351,6.0026,6.0225,6.0191,6.0026,6.0026,6.0026,6.0026,6.0026,6.0026,5.9993,5.9814,5.9628,5.9463,5.9463,0.0,0.0,0.0,0.0,6.0456,6.1185,6.1384,6.155,6.23,6.2068,6.1848,6.2598,6.22,6.1384,6.0456,5.9694,5.9164,5.9164,5.9032,0.0,0.0,0.0,5.9164,5.9926,5.9993,6.0291,6.102,6.1119,6.0887,6.0324,5.9595,5.8933,5.8403,5.7674,5.7243,5.7243,5.7097,5.6998,5.6998,0.0,0.0,0.0,0.0,0.0,0.0,0.0,0.0,0.0,0.0,0.0,0.0,0.0,0.0,0.0,0.0,0.0,0.0,0.0,0.0,0.0,0.0,0.0,0.0,0.0,0.0,0.0,0.0,0.0,6.0013,6.1273,0.0,0.0,0.0,0.0,6.0989,6.0325,6.0225,6.102,6.1703,6.2432,6.3161,6.4498,6.5502,6.6231,6.6926,6.7324,6.739,6.739,6.7423,6.7489,6.7489,6.7489,6.7456,6.6761,6.6032,6.5337,6.5204,6.4365,6.3128,6.3769,6.3637,6.3062,6.3062,6.3062,6.3062,6.3062,6.3062,6.2962,6.2266,6.1571,6.0986,6.0986,6.0986,0.0,0.0,6.1053,6.1218,6.1935,6.2134,6.2333,6.3062,6.3227,6.3393,6.4122,6.3725,6.2764,6.1318,6.0456,5.9926,5.9926,0.0,5.8899,5.8899,5.8899,5.9164,5.9926,5.9993,6.0291,6.102,6.1119,6.1086,6.1053,6.0357,5.9926,5.9893,5.9198,5.88,5.88,5.8104,5.774,5.774,5.7064,0.0,0.0,0.0,0.0,0.0,0.0,0.0,0.0,0.0,0.0,0.0,0.0,0.0,0.0,0.0,0.0,0.0,0.0,0.0,0.0,0.0,0.0,0.0,0.0,0.0,0.0,0.0,0.0,6.2435,6.3694,0.0,6.4007,6.2893,6.2775,6.4122,6.3375,6.3606,6.5358,6.5147,6.5326,6.6055,6.6562,6.6926,6.7224,6.7489,6.8085,6.9036,6.9036,6.9533,7.0428,6.9964,6.9467,6.897,6.8241,6.7512,6.686,6.7347,6.5856,6.3327,6.3559,6.3526,6.336,6.3824,6.3725,6.336,6.3857,6.3691,6.3261,6.2996,6.273,6.2532,6.2532,6.2532,6.2532,6.2532,6.2532,6.2598,6.283,6.2896,6.3095,6.3824,6.3658,6.3493,6.4255,6.3824,6.3128,6.2631,6.1935,6.1272,6.0788,6.049,6.0324,6.0324,6.0324,6.0423,6.0688,6.0721,6.0821,6.1086,6.1119,6.1119,6.1119,6.0423,5.9993,5.9993,5.9297,5.8899,5.8899,5.8634,5.8502,5.8502,5.8237,5.8104,0.0,0.0,0.0,0.0,0.0,0.0,0.0,0.0,0.0,0.0,0.0,0.0,0.0,0.0,0.0,0.0,0.0,0.0,0.0,0.0,0.0,0.0,0.0,0.0,0.0,6.3311,6.504,6.4808,6.6356,6.7271,6.6757,6.5912,6.5937,6.7323,6.6275,6.6623,6.9003,6.8459,6.8437,6.9148,6.9415,6.942,6.9079,6.9079,6.9599,7.0527,7.0527,7.1057,7.1985,7.1488,7.0991,7.0494,6.9765,6.9169,6.8715,6.8705,6.7303,6.5116,6.5116,6.4984,6.4796,6.5293,6.516,6.4829,6.5293,6.4995,6.4365,6.4365,6.42,6.4023,6.4023,6.4023,6.4023,6.4023,6.4023,6.4089,6.4299,6.4365,6.4564,6.5293,6.5094,6.4862,6.5359,6.5094,6.4664,6.4432,6.3393,6.2432,6.1914,6.1848,6.1848,6.1848,6.1848,6.1848,6.1848,6.1616,6.145,6.145,6.1251,6.1119,6.1119,6.0655,6.039,6.039,5.9926,5.9628,5.9628,5.9396,5.9264,5.9264,5.9032,5.8899,5.8899,0.0,0.0,0.0,0.0,0.0,0.0,0.0,0.0,0.0,0.0,0.0,0.0,0.0,0.0,0.0,0.0,0.0,0.0,0.0,0.0,0.0,0.0,0.0,6.2888,6.4603,6.6391,6.7218,6.9281,7.0621,7.0693,6.9955,6.9801,7.052,6.9034,6.916,7.1518,7.1429,7.1649,7.2372,7.3038,7.2966,7.2034,7.1985,7.2018,7.2051,7.2051,7.2051,7.2084,7.2051,7.2051,7.1985,7.1256,7.0924,7.0825,6.9368,6.8804,6.8771,6.8695,6.8241,6.7589,6.7622,6.7622,6.7622,6.7622,6.7125,6.6529,6.6529,6.6032,6.5469,6.5469,6.5469,6.5469,6.5469,6.5469,6.5635,6.633,6.6529,6.6728,6.7423,6.7589,6.7589,6.7589,6.7589,6.739,6.6662,6.4862,6.3426,6.336,6.336,6.336,6.336,6.336,0.0,6.336,6.273,6.23,6.23,6.1616,6.1218,6.1218,6.1185,6.1185,6.1185,6.1185,6.1185,6.1185,6.049,6.0092,6.0092,5.9363,5.8999,5.8999,0.0,0.0,0.0,0.0,0.0,0.0,0.0,0.0,0.0,0.0,0.0,0.0,0.0,0.0,0.0,0.0,0.0,0.0,0.0,0.0,0.0,6.7831,6.793,6.6697,6.8606,7.061,7.1962,7.2638,7.3494,7.4654,7.3968,7.3809,7.466,7.3618,7.3466,7.4825,7.4208,7.3885,7.4125,7.3651,7.3283,7.3013,7.2341,7.2283,7.2813,7.2813,7.3078,7.36,7.3045,7.2813,7.278,7.2018,7.1686,7.1686,7.1256,7.109,7.0891,6.8715,6.7787,6.7655,6.8208,6.8407,6.8307,6.7787,6.7489,6.7291,6.7291,6.7158,6.6993,6.6993,6.6993,6.6993,6.6993,6.6993,6.7026,6.7258,6.7291,6.7357,6.7556,6.7589,6.7589,6.7589,6.7589,6.7556,6.7324,6.6827,6.6088,6.5028,6.4829,6.4829,6.4829,6.4829,6.4829,6.4829,6.4664,6.4531,6.4531,6.3868,6.3438,6.3471,6.2996,6.2697,6.2697,6.2697,6.2697,6.2697,6.2498,6.2399,6.2399,6.167,6.1305,0.0,0.0,0.0,0.0,0.0,0.0,0.0,0.0,0.0,0.0,0.0,0.0,0.0,0.0,0.0,0.0,0.0,0.0,0.0,0.0,0.0,0.0,7.0533,7.1353,7.1549,7.2191,7.3262,7.4832,7.5296,7.5831,7.6759,7.6663,7.6782,7.7311,7.6739,7.6929,7.8191,7.7348,7.7002,7.7293,7.677,7.6313,7.5902,7.5354,7.5339,7.572,7.572,7.5981,7.6362,7.5494,7.5104,7.5079,7.4173,7.3807,7.3773,7.3508,7.3376,7.3078,0.0,0.0,0.0,0.0,6.9136,6.9103,6.8672,6.8539,6.8539,6.8539,6.8539,6.8539,6.8539,6.8715,6.898,6.898,6.9178,6.9443,6.9443,6.9443,6.9443,6.9443,6.9443,6.9443,6.9443,6.9443,6.9443,6.9443,6.9443,0.0,6.8307,6.7125,6.633,6.633,6.633,6.633,6.633,6.6032,6.5867,6.5867,6.4962,6.4365,6.4387,6.3725,0.0,0.0,0.0,6.3294,6.3294,6.3294,0.0,0.0,0.0,6.2664,6.2664,6.2233,0.0,0.0,6.0444,6.0278,0.0,0.0,0.0,0.0,0.0,0.0,0.0,0.0,0.0,0.0,0.0,0.0,0.0,0.0,0.0,0.0,7.3333,7.4957,7.6581,7.5653,7.5278,7.6652,7.7437,7.7937,7.8008,7.8686,7.9098,7.9098,7.8998,7.9569,8.1145,8.045,0.0,0.0,0.0,8.0404,7.9579,7.943,7.9384,7.9384,7.9384,7.9316,7.9212,7.8302,7.785,7.7678,7.6704,7.6324,7.6258,7.5662,7.5389,7.5025,7.2316,7.1223,7.1057,7.0394,7.0096,7.003,7.003,0.0,0.0,7.003,7.003,7.003,7.003,7.0494,7.1024,7.1024,7.1488,7.2018,7.2018,7.2018,7.2018,7.2018,7.2018,7.2018,7.2018,7.2018,7.2018,7.2067,7.2009,7.2018,7.2067,6.9831,6.8085,6.8085,6.8085,6.8085,6.8085,6.7523,6.7125,6.7125,6.5856,0.0,6.5017,6.4255,6.3791,6.3791,6.3791,6.3791,6.3791,6.3791,6.3791,6.3791,6.3691,6.3658,6.3658,6.3592,6.3526,6.3526,6.2697,6.23,0.0,0.0,0.0,0.0,0.0,0.0,0.0,0.0,0.0,0.0,0.0,0.0,0.0,0.0,0.0,7.3351,7.5403,7.7366,7.9007,7.9507,7.9614,7.9257,7.9935,8.0649,8.122,8.1434,8.1505,8.1505,8.1509,8.1631,8.1969,8.1829,8.1764,8.1906,8.119,8.0708,8.0535,7.977,7.9384,7.9384,7.9384,0.0,7.8182,7.7997,7.7429,7.6601,7.6369,7.6324,7.6291,7.6159,7.5794,7.519,7.403,7.3202,7.268,7.2515,7.2084,7.1587,7.1587,7.1587,7.1587,7.1587,7.1587,7.1587,7.1587,7.1686,0.0,7.1786,7.1885,7.2018,7.2018,7.2018,7.2018,7.2018,7.2018,7.2018,7.2018,7.2018,7.2058,7.2277,7.2131,7.2058,7.2277,7.1667,7.1156,7.1156,7.1156,7.1156,7.1156,7.1024,7.0958,7.0958,6.9633,6.8738,6.8738,6.7546,6.6761,6.6761,6.6761,6.6761,6.6761,6.6761,6.6761,6.6761,6.6165,6.5889,6.5889,6.5293,6.4995,6.4962,6.3691,6.3095,0.0,0.0,0.0,0.0,0.0,0.0,0.0,0.0,0.0,0.0,0.0,7.0728,0.0,0.0,7.5118,7.6705,7.8258,7.9864,8.1434,8.2326,8.2397,8.1184,8.1398,8.1933,8.2718,8.3147,8.3575,8.3967,8.4003,8.4003,8.4003,8.3611,8.3397,8.3397,8.2951,8.2686,8.2686,8.2226,8.201,8.201,8.201,8.1747,8.1222,8.0744,8.0196,7.9672,7.917,7.8948,7.8948,7.8948,7.8745,7.8431,7.8059,7.5936,7.3111,7.3111,7.2647,7.2018,7.2018,7.2018,7.2018,7.2018,7.2018,7.2018,7.2018,7.225,7.2572,7.272,7.3011,7.3334,7.3449,7.3498,7.3498,7.3498,7.3498,7.3498,7.3498,7.3498,7.3522,7.3669,7.3596,7.3522,7.3669,7.3473,7.2994,7.2142,7.2018,7.2018,7.2018,7.2018,7.2018,7.2018,7.1024,7.0361,7.0361,6.9003,6.8009,6.7622,6.7589,6.7589,6.7589,6.7589,6.7589,6.7589,6.7258,6.7059,6.7059,6.6662,6.6496,6.6463,6.579,6.526,0.0,0.0,0.0,0.0,0.0,0.0,0.0,0.0,7.0135,7.0244,7.1707,7.3386,7.4798,7.6353,7.8104,8.0158,8.1286,8.2394,8.3788,8.4682,8.4697,8.3395,8.3171,8.3361,8.4024,8.4681,8.5324,8.5966,8.6002,8.6002,8.6002,8.5252,8.4875,8.5038,8.4768,8.4661,8.4803,8.4661,8.4589,8.4589,8.4589,8.4507,8.4284,8.3454,8.2979,8.2756,8.1956,8.1603,8.1603,8.1603,8.1603,8.1603,8.1603,7.8719,7.4536,7.4164,7.3418,7.2614,7.2481,7.2415,7.2415,7.2415,7.2415,7.2415,7.2415,7.2846,7.3393,7.3824,7.4264,7.4681,7.512,7.5094,7.4993,7.4993,7.4993,7.4993,7.4993,7.4993,7.5018,7.5042,7.5018,7.5018,7.5042,7.4845,7.4198,7.2811,7.2538,7.2522,7.2522,7.2522,7.2498,7.2415,7.1753,7.1289,7.1123,6.9898,6.8871,6.8284,6.8119,6.8019,6.8019,6.8019,6.8019,6.8019,6.8019,6.8019,6.8019,6.8019,6.8019,6.8019,6.8019,6.7556,6.849,6.8478,6.8694,6.9237,6.9545,6.9819,0.0,0.0,7.3088,7.3614,7.5728,7.7739,7.8638,8.0075,8.1441,8.2411,8.3813,8.5071,8.5934,8.676,8.7192,8.7012,8.6644,8.643,8.6501,8.6608,8.668,8.6787,8.6787,8.6787,8.6787,8.6073,8.5966,8.6608,8.5324,8.4931,8.5645,8.4967,8.4589,8.4589,8.4589,8.4123,8.3257,8.3169,8.2621,8.1769,8.1651,8.1603,8.1603,8.1603,8.1603,8.1603,8.1603,8.0903,7.9706,7.7997,7.6324,7.4859,7.4196,7.3964,7.3964,7.3964,7.3964,7.3964,7.3964,7.3997,7.4247,7.5188,7.5031,7.4814,7.5756,7.5495,7.4993,7.4993,7.4993,7.4993,7.4993,7.4993,7.5067,7.5228,7.514,7.5067,7.5228,7.5115,7.4877,7.4685,7.4463,7.4315,7.4315,7.4315,7.4215,7.3989,7.3276,7.2581,7.1951,7.1123,7.0626,7.0527,6.9931,6.9533,6.9533,6.9533,6.9533,6.9533,6.9533,6.9533,6.9533,6.9533,6.9533,6.9533,6.9533,6.8804,6.9694,6.9961,7.0278,7.0602,7.2014,7.3405,7.3644,7.5349,7.6966,7.7218,7.8836,8.0473,8.1301,8.2704,8.4015,0.0,8.5886,8.6893,8.7664,8.7664,8.7771,8.8239,8.7716,8.7484,8.7971,8.8007,8.8222,8.8688,8.8294,8.8007,8.8007,8.7254,8.6962,8.7139,8.6619,8.6225,8.5994,8.5739,8.5406,8.494,8.494,8.4722,8.4338,8.4338,8.4094,8.3698,8.3698,8.3698,8.3698,8.3698,8.3698,8.3698,8.3698,8.3193,8.2234,8.0305,7.8918,7.7919,7.7144,7.654,7.6039,7.5576,7.5097,7.4672,7.4672,7.4672,7.4788,7.5337,7.5243,7.5158,7.5729,7.5633,7.5398,7.5398,7.5398,7.5398,7.5398,7.5398,7.5422,7.5518,7.547,7.5422,7.5518,7.5325,7.5228,7.5373,7.5091,7.4821,7.4821,7.4821,7.4722,7.4448,7.4006,7.3442,7.2713,7.2382,7.1819,7.0958,7.0593,7.0229,6.9798,6.9798,6.9798,6.9798,6.9798,6.9798,6.9798,6.9798,6.9798,6.9798,6.9798,6.9467,7.0967,7.1669,7.2404,7.262,7.4796,7.6909,7.6874,7.8585,8.0261,8.0422,8.1557,8.2747,8.3576,8.4802,8.5971,8.6744,8.7557,8.837,8.9178,8.8782,8.8566,8.8926,8.8458,8.835,8.8926,8.8876,8.9246,9.0252,8.9785,8.9533,8.9749,8.8799,8.8306,8.8392,8.7854,8.7371,8.6865,8.6756,8.6441,8.5866,8.5866,8.5866,8.5866,8.5866,8.5866,8.5866,8.5866,8.5866,8.5866,8.5866,8.5866,8.5866,8.5866,8.5452,8.4696,8.3305,8.1716,8.0175,7.9142,7.8526,7.8076,7.7239,7.6722,7.6347,7.6067,7.586,7.5734,7.5897,7.5637,7.5407,7.5908,7.5879,7.5709,7.5709,7.5709,7.5709,7.5709,7.5709,7.5709,7.5709,7.5709,7.5709,7.5709,7.5542,7.5494,7.5686,7.5398,7.5189,7.5091,7.5042,7.4919,7.4722,7.4523,7.4223,7.3667,7.336,7.2671,7.141,7.1039,7.056,6.9831,6.9798,6.9798,6.9798,6.9798,6.9798,6.9798,6.9798,6.9798,6.9798,6.9798,6.9798,7.2436,7.3796,7.5172,7.5949,7.7977,7.9718,7.9522,8.0894,8.2378,8.2952,8.3896,8.484,8.5673,8.6433,8.7211,8.8007,8.8823,8.962,9.0416,9.0525,9.0235,8.9475,8.9366,8.933,8.9366,8.9023,8.9461,9.1043,9.1151,9.146,9.2144,9.0762,9.0273,9.1079,8.8835,8.7972,8.8686,8.7972,8.754,8.7504,8.7504,8.7504,8.7504,8.7504,8.7504,8.7504,8.7504,8.7504,8.7504,8.7504,8.7504,8.7504,8.7504,8.7625,8.7765,8.7725,8.4874,8.0827,7.9351,7.9282,7.9804,7.8994,7.9238,7.9686,7.8772,7.7988,7.7447,7.75,7.6469,7.5542,7.6584,7.6284,7.5709,7.5709,7.5709,7.5709,7.5709,7.5709,7.5709,7.5709,7.5709,7.5709,7.5709,7.5709,7.5709,7.5709,7.5709,7.559,7.5325,7.514,7.4993,7.4993,7.4968,7.4968,7.4935,7.4054,7.314,7.2399,7.1434,7.056,6.9831,6.9798,6.9798,6.9798,6.9798,6.9798,6.9798,6.9798,6.9798,6.9798,6.9798,6.9798,7.4086,7.586,7.7833,7.9136,8.0911,8.2432,8.2866,8.388,8.4732,8.4965,8.4858,8.4786,8.504,8.6163,8.7266,8.8063,8.9765,9.1088,9.1378,9.0943,9.011,8.8751,8.8606,0.0,0.0,8.8958,8.9638,9.0721,9.1299,9.1697,9.195,9.1501,9.1238,9.1382,9.0227,8.9397,8.9003,8.8855,8.8537,8.8012,8.8012,8.8012,8.8012,8.8012,8.8012,8.8012,8.8012,8.8012,8.8012,8.8012,8.8012,8.8012,8.8012,8.8051,8.811,8.811,8.6777,8.4962,8.4425,8.4043,8.3656,8.2841,8.2368,8.1939,8.0939,8.0473,8.0123,7.9537,7.8967,7.8495,7.8391,7.8179,7.7841,7.7333,7.7256,7.7256,7.7256,7.7256,7.7256,7.7256,7.7256,7.7256,7.7256,7.7256,7.7256,7.7256,7.6352,7.5686,7.559,7.5349,7.5204,7.5204,7.5527,7.573,7.573,7.589,7.5438,7.4201,7.3827,7.3053,7.1852,7.1785,7.1785,7.1785,7.1618,7.1546,7.1522,7.1353,7.1256,7.1256,7.1256,7.1256,7.6439,7.8593,8.0802,8.2432,8.4026,8.5257,8.5475,8.5909,8.6235,8.5945,8.5257,8.4786,8.5076,8.5945,8.6868,8.7628,8.9294,9.0706,9.1306,9.069,8.9893,8.9149,8.9041,8.8932,0.0,0.0,9.0581,9.1414,9.1958,9.2465,9.3044,9.2827,9.26,9.2476,9.1804,9.1173,9.0489,9.063,9.0436,8.991,8.991,8.991,8.991,8.962,8.9475,8.9475,8.9185,8.9041,8.9041,8.9041,8.9041,8.9041,8.9041,8.9041,8.9041,8.9041,8.8715,8.8191,8.7339,8.6666,8.6085,8.5602,8.5024,8.4365,8.3375,8.2699,8.2077,8.1082,8.0625,8.0244,7.9415,7.942,7.9323,7.8243,7.8179,7.8314,7.8044,7.8,7.8,7.8,7.8,7.8,7.8,7.8,7.8,7.8,7.7188,7.6521,7.6521,7.6376,7.6279,7.6279,7.657,7.6774,7.6774,7.7136,7.6851,7.561,7.5176,7.4457,7.3218,7.295,7.2816,7.2816,7.2615,7.2543,7.2543,7.235,7.2311,7.2311,7.2311,7.2229,7.9426,8.1853,8.4081,8.5619,8.7121,8.799,8.7194,8.7013,8.6759,8.6018,8.5185,8.4859,0.0,0.0,8.6126,8.694,8.7809,8.8932,9.0545,9.011,8.9893,0.0,0.0,0.0,0.0,0.0,9.2211,9.3008,9.306,9.3732,9.5274,9.4602,9.4182,9.4182,9.3443,9.3008,9.3008,9.3008,9.3008,9.3008,9.3008,9.3008,9.2972,9.2211,9.1849,9.1813,9.1052,9.0726,9.0726,9.0726,9.0726,9.0726,9.0726,9.0726,9.0726,9.0726,9.069,9.0364,8.8155,8.7322,8.7194,8.7249,8.7249,8.7003,8.602,8.4722,8.3346,8.2332,8.1567,8.0832,7.9865,8.0121,8.0196,7.8589,7.8702,7.8957,7.8247,7.8111,7.8111,7.8111,7.8136,7.817,7.817,7.817,7.817,7.8136,7.8136,7.8111,7.7967,7.8,7.8,7.7967,7.8034,7.8044,7.8044,7.7855,7.7403,7.6687,7.5735,7.4875,7.4137,7.3433,7.3074,7.3074,7.3041,7.3017,7.305,7.3017,7.2993,7.2969,7.2993,7.2849,8.207,8.4316,8.6325,8.7339,8.7918,8.799,8.7194,8.7013,8.6614,8.5293,8.437,8.3682,0.0,8.4225,8.5656,8.7592,8.9584,0.0,9.306,9.3117,0.0,9.1595,0.0,9.2066,9.1269,9.2102,0.0,9.382,9.3893,9.4074,9.4493,9.4291,9.4182,9.4182,9.3443,9.3008,9.3008,9.3008,9.3008,9.3008,9.3008,9.3008,9.2987,9.2791,9.2682,9.2682,9.2501,9.2392,9.2392,9.2392,9.2392,9.2392,9.2392,9.2392,9.2392,9.2392,9.203,9.1487,9.1487,9.069,8.9676,8.9712,8.9712,8.9408,8.7789,8.7036,8.6418,8.4872,8.4287,8.3961,8.3106,8.2512,8.1877,8.0892,8.0272,7.987,7.9667,7.9634,7.9634,7.9634,8.0073,8.0471,8.0471,8.0471,8.0268,7.9701,8.0132,7.9659,7.7468,7.7638,7.7773,7.7232,7.8145,7.8822,7.8822,7.9254,7.9229,7.8486,7.8175,7.7711,7.6993,7.6757,7.669,7.669,7.6494,7.6272,7.6073,7.6065,7.584,7.5402,7.5664,7.5613,8.504,8.6778,8.8263,8.9041,8.8988,8.8316,8.6832,8.6525,8.5873,8.3591,8.3048,8.274,8.1925,8.3374,8.5257,8.6904,8.9205,0.0,9.3386,9.337,9.308,0.0,9.3261,0.0,9.2392,9.337,9.4094,9.4182,9.4182,9.4327,9.471,9.4746,9.4746,9.4746,9.4276,9.4058,9.4058,9.4058,9.4058,9.4058,9.4058,9.4058,9.4022,9.3696,9.3313,9.3008,9.3008,9.2827,9.2501,9.2863,9.3008,9.3008,9.3008,9.3008,9.3008,9.3008,9.2718,9.2392,9.2863,9.2428,9.1668,9.1668,9.1197,9.0429,8.9379,8.8567,8.7854,8.6866,8.6575,8.6382,8.5497,8.5118,8.4576,8.3015,8.2773,8.2751,8.2011,8.2154,8.246,8.246,8.2804,8.2976,8.2642,8.2242,8.1682,8.0941,8.1087,8.0581,7.8585,7.9261,7.9634,7.8889,7.9566,7.9938,7.9634,7.9972,8.0006,7.9634,7.9295,7.8923,7.8483,7.8145,7.8,7.8,7.7828,7.768,7.7564,7.7555,7.7405,7.7044,7.7254,7.7178,8.7773,8.8951,8.9712,9.0436,8.9893,8.8662,8.6416,8.5801,8.4859,8.1744,8.1744,8.2052,8.1273,8.2976,8.4895,8.6018,8.8082,9.0436,9.2972,9.2718,9.2791,9.4203,9.4457,9.4219,9.3551,9.4819,9.5435,9.4746,9.4689,9.4891,9.5383,9.5419,9.5419,9.5419,9.5419,9.5419,9.5419,9.5419,9.5419,9.5419,9.5419,9.5419,9.5383,9.4674,9.3986,9.3334,9.3334,9.2935,9.232,9.3044,9.3334,9.3334,9.3334,9.3334,9.3334,9.3334,9.3334,9.3334,9.3334,9.3334,9.3298,9.308,9.2066,9.0907,9.0799,8.9785,8.8678,8.8534,8.8534,8.834,8.7541,8.7713,8.7447,8.5042,8.5496,8.6079,8.4476,8.4763,8.5453,8.5524,8.5559,8.5325,8.4635,8.3845,8.298,8.2092,8.1855,8.1571,8.0975,8.1775,8.2137,8.1384,8.1317,8.108,8.0547,8.0412,8.0454,8.0672,7.9969,7.9636,7.9784,7.9061,7.8652,7.8652,7.8652,7.8589,7.8418,7.8443,7.8369,7.8182,7.8231,7.8082,8.8915,8.9785,9.0436,9.0581,8.9495,8.7954,8.6271,8.5402,0.0,8.1617,8.1744,8.2052,8.1273,8.2541,8.4605,8.7339,8.9277,9.1451,9.455,9.4876,9.4876,0.0,9.576,9.6123,9.5978,9.6811,9.7318,9.7173,9.7173,9.6666,9.5456,9.5419,9.5419,9.5419,9.5419,9.5419,9.5419,9.5419,9.5419,9.5419,9.5419,9.5419,9.5419,9.5274,9.513,9.4985,9.4985,9.4912,9.4803,9.4948,9.4985,9.4985,9.4985,9.4985,9.4985,9.4985,9.4985,9.4985,9.4985,9.4985,9.4746,9.3443,9.2827,9.2465,9.1813,9.1414,9.1052,9.0364,9.0183,9.0143,8.9967,8.945,8.8692,8.757,8.6912,8.6332,8.5331,8.5282,8.5571,8.6203,8.6309,8.6274,8.6133,8.5996,8.539,8.3966,8.4116,8.4377,8.4403,8.3251,8.2137,8.1384,8.1317,8.1494,8.2002,8.146,8.1732,8.3174,8.2511,8.2447,8.3274,8.2541,8.2122,8.2122,8.2122,8.1621,8.0652,8.0868,8.0346,7.9175,7.9372,7.9321,8.9676,9.0618,9.1125,9.069,8.9366,8.7701,8.5728,0.0,0.0,8.0368,8.0839,8.1309,8.0078,8.2179,8.475,8.6706,8.8698,9.1088,9.4312,9.442,9.4602,9.589,9.6361,9.6738,9.7173,9.7571,9.7789,9.7789,9.7789,9.7463,9.6666,9.663,9.647,9.6035,9.6035,9.5818,9.5419,9.5419,9.5419,9.5419,9.5419,9.5419,9.5419,9.5419,9.5166,9.4783,9.5238,9.5145,9.4819,9.5238,9.5419,9.5419,9.5419,9.5419,9.5419,9.5419,9.5419,9.5419,9.5419,9.5419,9.5274,9.4493,9.3986,9.3531,9.3189,9.2754,9.2356,9.1958,9.1849,9.1849,9.1849,9.1527,9.0965,9.0029,8.9143,8.8446,8.8178,8.8106,8.8214,8.855,8.8621,8.8514,8.8085,8.7591,8.6873,8.5739,8.5668,8.5798,8.5901,8.5444,8.484,8.4081,8.4036,8.3977,8.3977,8.3632,8.3605,8.4007,8.3683,8.3506,8.3572,8.2738,8.2268,8.2268,8.1815,8.128,8.0681,8.0804,8.0517,7.9827,7.9955,7.9955,9.0255,9.1197,9.1595,9.0799,8.9277,8.7375,8.5185,8.3301,0.0,7.939,8.0114,8.0712,7.9462,8.207,8.475,8.5728,8.772,9.0255,9.3494,9.3531,9.4094,0.0,9.6883,0.0,9.8006,9.8223,9.8296,9.8296,9.8296,9.8151,9.7825,9.7789,9.7499,9.6883,9.6847,9.6557,9.5926,9.5926,9.5926,9.5926,9.5926,9.5926,9.5926,9.5926,9.5471,9.4746,9.5181,9.4927,9.4255,9.4891,9.5145,9.5145,9.5347,9.5419,9.5419,9.5419,9.5419,9.5419,9.5419,9.5419,9.5419,9.5419,9.4964,9.4457,9.4457,9.4022,9.3515,9.3515,9.3515,9.3515,9.3515,9.3515,9.3241,9.2073,9.1075,9.0422,9.0586,9.0581,9.0581,9.0581,9.0581,9.04,8.9748,8.9045,8.8267,8.7494,8.7169,8.706,8.7143,8.7599,8.7801,8.7426,8.6853,8.6344,8.5922,8.5712,8.5451,8.5031,8.482,8.4449,8.3868,8.3133,8.2763,8.2763,8.2196,8.1809,8.1591,8.1591,8.1528,8.1307,8.1307,8.1307,9.0545,9.1197,9.1595,9.0799,8.8843,8.6687,8.5076,0.0,8.0929,8.0006,8.0495,8.1038,8.0893,8.2396,8.4098,8.5656,8.7285,8.9439,9.2662,9.3675,9.471,9.6376,0.0,0.0,9.8875,9.9563,9.9998,9.9998,9.9998,9.9346,9.7861,9.7789,9.7752,9.768,9.768,9.7644,9.7571,9.7571,9.7571,9.7571,9.7571,9.7571,9.7571,9.7571,9.7137,9.634,9.5709,9.4927,9.4219,9.4255,9.4291,9.4384,9.5109,9.5419,9.5419,9.5419,9.5419,9.5419,9.5419,9.5419,9.5419,9.5419,9.5347,9.5311,9.5311,9.5238,9.5202,9.5202,9.5202,9.5202,9.5202,9.5202,9.4798,9.3231,9.1691,9.059,9.0598,9.0581,9.0581,9.0581,9.0581,9.0581,9.0509,9.0413,9.0083,8.9287,8.8981,8.8921,8.9104,8.9025,8.93,9.0114,8.7975,8.6742,8.7339,8.6778,8.6742,8.7522,8.6888,8.6531,8.6616,8.6541,8.6502,8.6502,8.7144,8.7065,8.6176,8.6176,8.5764,8.4935,8.4935,8.4935,9.0074,9.1197,9.1595,9.0799,8.8807,8.6723,8.5656,0.0,8.1002,8.0676,8.0857,8.1111,8.1111,8.2432,8.3863,8.4968,8.609,8.7756,9.0436,9.1125,9.2428,9.5507,9.6847,9.8115,9.96,9.9998,10.0215,10.0215,10.0215,9.9926,9.9274,9.9237,9.902,9.8549,9.8513,9.8296,9.7789,9.7318,9.7064,9.7064,9.7064,9.7064,9.7101,9.7571,9.7608,9.7282,9.6449,9.5942,9.5616,9.5109,9.4927,9.4927,9.5274,9.5419,9.5419,9.5419,9.5419,9.5419,9.5419,9.5419,9.5419,9.5419,9.5419,9.5419,9.5419,9.5419,9.5419,9.5419,9.5419,9.5419,9.5419,9.5419,9.4964,9.337,9.2501,9.1776,9.0799,9.0581,9.0581,9.0581,9.0581,9.0581,9.0581,9.0581,9.0473,9.0183,9.0026,9.0053,9.0107,9.0495,9.0882,9.1265,8.9898,8.9084,8.9385,8.9156,8.8909,8.8809,8.8505,8.8162,8.7754,8.7193,8.6875,8.6875,8.6629,8.6324,8.5954,8.5954,8.5777,8.5418,8.5418,8.5418,8.9241,9.0835,9.1559,9.0509,8.8626,8.6723,8.5764,0.0,8.1111,8.1111,8.1111,8.1111,8.1111,8.2432,8.3682,8.4262,8.5221,8.6706,8.906,8.9603,9.1052,9.4602,9.5978,9.7354,9.931,9.9926,10.0215,10.0215,10.0215,10.0215,10.0215,10.0215,9.9962,9.9382,9.9346,9.9093,9.8513,9.7934,9.7535,9.7318,9.7535,9.7535,9.7318,9.8151,9.8368,9.8078,9.7028,9.647,9.6159,9.5362,9.5036,9.5072,9.5311,9.5419,9.5419,9.5419,9.5419,9.5419,9.5419,9.5419,9.5419,9.5419,9.5419,9.5419,9.5419,9.5419,9.5419,9.5419,9.5419,9.5419,9.5419,9.5057,9.4384,9.3261,9.2646,9.1994,9.0835,9.0799,9.0943,9.0943,9.1161,9.1306,9.1306,9.1306,9.1306,9.1306,9.1306,9.1306,9.1306,9.1813,9.2139,9.2139,9.1668,9.1197,9.098,9.0943,9.0509,8.9459,8.9386,8.9024,8.8244,8.7796,8.7562,8.7562,8.713,8.6934,8.6934,8.6934,8.6934,8.6934,8.6934,8.6736,8.8027,8.9946,9.1414,8.9821,8.8191,8.6578,8.504,8.2831,8.1111,8.1111,8.1111,8.1111,8.1111,8.2432,8.3501,8.3501,8.4859,8.6706,8.906,9.0074,9.1487,9.3929,9.5616,9.6919,9.7752,9.9274,10.0215,10.0215,10.0215,10.0215,10.0215,10.0215,10.0215,10.0215,10.0215,10.0215,10.0215,10.0215,9.9781,9.8984,9.9781,9.9744,9.8984,9.9817,9.9744,9.8911,9.7282,9.6144,9.5347,9.4565,9.4219,9.4291,9.5072,9.5419,9.5419,9.5419,9.5419,9.5419,9.5419,9.5419,9.5419,9.5419,9.5419,9.5419,9.5419,9.5419,9.5419,9.5419,9.5419,9.5419,9.5419,9.4203,9.3044,9.3008,9.1776,9.0618,9.0581,9.1233,9.1776,9.1776,9.2428,9.2972,9.2972,9.2972,9.2972,9.2972,9.2972,9.2972,9.2972,9.2972,9.3008,9.3008,9.2972,9.2646,9.1849,9.1776,9.1088,8.9495,8.9386,8.9024,8.8244,8.8951,8.9386,8.9386,9.0163,9.0561,9.0561,9.0561,9.0561,9.0561,9.0561,8.9883,8.4642,8.5945,8.667,8.5619,8.4588,8.3664,8.3175,8.2034,8.1111,8.1111,8.1111,8.1111,8.1111,8.2432,8.3682,8.4225,8.5619,8.7085,8.8389,9.0219,9.2102,9.3965,9.7101,9.9165,9.9419,9.9889,10.0215,10.0215,10.0215,10.0215,10.0215,10.0215,10.0215,10.0215,10.0215,10.0215,10.0215,9.9129,9.8694,9.8984,9.8694,9.8694,9.902,9.9853,10.0107,9.9744,9.8115,9.7282,9.6919,9.5579,9.5,9.5036,9.5311,9.5419,9.5419,9.5419,9.5419,9.5419,9.5419,9.5419,9.5419,9.5419,9.5419,9.5419,9.5419,9.5419,9.5419,9.5419,9.5419,9.5419,9.5419,9.5021,9.4493,9.3929,9.3422,9.2935,9.2356,9.2465,9.261,9.261,9.2827,9.3008,9.3008,9.3008,9.3008,9.3008,9.3008,9.3008,9.3008,9.3458,9.382,9.382,9.4312,9.4094,9.2754,9.261,9.2392,9.1885,9.1342,9.0943,9.069,9.0364,9.0219,9.0219,9.0473,9.0581,9.0581,9.0581,9.0581,9.0581,9.0581,9.0364,8.207,8.341,8.4044,8.3247,8.2668,8.2233,8.1943,8.1454,8.1111,8.1111,8.1111,8.1183,8.1491,8.2613,8.3755,8.4569,8.5764,8.7049,8.8461,9.0219,9.2284,9.4819,9.7571,9.9419,9.9708,9.9998,10.0215,10.0215,10.0215,10.0215,10.0215,10.0215,10.0215,10.0215,10.0215,10.0215,10.0215,9.8911,9.8332,9.8549,9.8042,9.7897,9.8115,9.8948,9.9274,9.9237,9.7897,9.7499,0.0,9.6071,9.56,9.5818,9.5528,9.5419,9.5419,9.5419,9.5419,9.5419,9.5419,9.5419,9.5419,9.5419,9.5419,9.5419,9.5419,9.5419,9.5419,9.5419,9.5419,9.5419,9.5419,9.5166,9.4819,9.4327,9.3965,9.3624,9.3096,9.3261,9.3458,9.3458,9.3696,9.3913,9.3913,9.3913,9.3913,9.3913,9.3913,9.3913,9.3913,9.4348,9.4638,9.4638,9.5109,9.4964,9.3986,9.3624,9.3334,9.3044,9.2537,9.2247,9.2247,9.1776,9.1523,9.1523,9.1523,9.1378,9.1052,9.0762,9.0581,9.0581,9.0581,9.0581,0.0,8.1889,8.2885,8.2088,8.1979,8.1871,8.1092,8.1002,0.0,8.1111,8.1147,8.1418,8.2161,8.2994,8.3827,8.4569,8.5475,8.6851,8.9096,9.0328,9.2465,9.6304,9.7463,9.8223,9.8948,9.9744,10.0215,10.0215,10.0215,10.0215,10.0215,10.0215,10.0215,10.0215,10.0085,10.0107,10.0107,9.931,9.8549,9.7789,9.7752,9.7354,9.6702,9.7463,9.7789,9.7752,9.6956,9.7028,9.7571,9.6035,9.5854,9.6434,9.5709,9.5419,9.5419,9.5419,9.5419,9.5419,9.5419,9.5419,9.5419,9.5419,9.5419,9.5419,9.5419,9.5419,9.5419,9.5419,9.5419,9.5419,9.5419,9.4855,9.4291,9.4291,9.3732,9.3189,9.3189,9.3768,9.4291,9.4291,9.4891,9.5419,9.5419,9.5419,9.5419,9.5419,9.5419,9.5419,9.5419,9.5419,9.5419,9.5419,9.5419,9.5419,9.5419,9.471,9.3965,9.3225,9.3117,9.3117,9.3117,9.3044,9.3008,9.3008,9.3008,9.261,9.1813,9.1052,9.0654,9.0581,9.0581,9.0581,7.7253,0.0,7.8702,7.7922,7.8629,7.9499,0.0,8.0223,8.1111,8.1111,8.1599,8.2088,8.2269,8.3465,8.446,8.4678,8.638,8.8082,8.9241,9.2718,9.5978,9.8187,9.9165,9.9491,9.9056,9.9744,10.0215,10.0215,10.0215,10.0215,10.0215,10.0215,10.0215,10.0215,9.96,9.9274,9.9274,9.8477,9.797,9.7789,9.7173,9.7101,9.7499,9.7716,9.7789,9.7752,9.6956,9.6723,9.6811,9.5818,9.5528,9.5673,9.5492,9.5419,9.5419,9.5419,9.5419,9.5419,9.5419,9.5419,9.5419,9.5419,9.5419,9.5419,9.5419,9.5419,9.5419,9.5419,9.5419,9.5419,9.5419,9.5274,9.5109,9.5109,9.4964,9.4819,9.4819,9.4964,9.5109,9.5109,9.5274,9.5419,9.5419,9.5419,9.5419,9.5419,9.5419,9.5419,9.5419,9.5419,9.5419,9.5419,9.5419,9.5419,9.5419,9.5238,9.5036,9.4876,9.4276,9.3929,9.3929,9.3313,9.3008,9.3008,9.3008,9.261,9.1813,9.1595,9.1197,9.0581,9.0581,9.0581,7.6292,7.6618,7.6927,7.6855,7.776,7.881,7.9173,8.0223,8.1201,8.1563,8.2016,8.2523,8.3284,8.4098,8.4931,8.5656,8.6832,8.8461,9.0726,9.3913,9.6775,9.8767,9.9382,9.9636,9.9563,9.9962,10.0215,10.0215,10.0215,10.0215,10.0215,10.0215,10.0215,10.0215,9.9781,9.9382,9.8984,9.7825,9.7245,9.7245,9.6412,9.6268,9.6702,9.6702,9.6702,9.6666,9.6253,9.6253,9.6542,9.5745,9.5637,9.5926,9.5564,9.5419,9.5419,9.5419,9.5419,9.5419,9.5419,9.5419,9.5419,9.5419,9.5419,9.5419,9.5419,9.5419,9.5419,9.5419,9.5419,9.5419,9.5419,9.5419,9.5419,9.5419,9.5419,9.5419,9.5419,9.5419,9.5419,9.5419,9.5419,9.5419,9.5419,9.5419,9.5419,9.5419,9.5419,9.5419,9.5419,9.5419,9.5419,9.5419,9.5419,9.5419,9.5419,9.5419,9.5419,9.5419,9.5,9.4746,9.4746,9.4312,9.4094,9.4094,9.3732,9.3153,9.2356,9.1994,9.1378,9.0581,9.0581,9.0581,7.6473,7.6582,7.6782,7.7362,7.8086,7.8919,7.9716,8.0621,8.1491,0.0,0.0,8.3102,8.446,8.4786,8.5293,8.6614,8.723,8.8932,9.2972,9.4819,9.6557,9.873,9.9129,9.9419,9.9962,10.0107,10.0215,10.0215,10.0215,10.0215,10.0215,10.0215,10.0215,10.0215,10.0107,9.9636,9.8839,9.7463,9.6687,9.6434,9.5745,9.5419,9.5419,9.5419,9.5419,9.5419,9.5419,9.5782,9.6361,9.5673,9.5818,9.634,9.5673,9.5419,9.5419,9.5419,9.5419,9.5419,9.5419,9.5419,9.5419,9.5419,9.5419,9.5419,9.5419,9.5419,9.5419,9.5419,9.5419,9.5419,9.5419,9.5419,9.5419,9.5419,9.5419,9.5419,9.5419,9.5419,9.5419,9.5419,9.5419,9.5419,9.5419,9.5419,9.5419,9.5419,9.5419,9.5419,9.5419,9.5419,9.5419,9.5419,9.5419,9.5419,9.5419,9.5419,9.5419,9.5419,9.5419,9.5419,9.5419,9.5419,9.5419,9.5419,9.4746,9.3986,9.3168,9.2501,9.1704,9.0799,9.0799,9.0726,7.7108,7.7796,7.8195,7.7651,7.8086,7.8919,7.9716,8.1056,8.2161,8.2269,8.3392,8.4388,8.4642,8.5257,8.5801,8.6018,8.83,9.1451,9.5471,9.6847,9.7825,9.8875,9.96,9.9817,9.9237,9.9817,10.0215,10.0215,10.0215,10.0215,10.0215,10.0215,10.0215,10.0215,9.9527,9.8803,9.797,9.7716,9.6919,9.56,9.5456,9.5419,9.5419,9.5419,9.5419,9.5419,9.5419,9.5492,9.5564,9.5456,9.5492,9.5564,9.5456,9.5419,9.5419,9.5419,9.5419,9.5419,9.5419,9.5419,9.5419,9.5419,9.5419,9.5419,9.5419,9.5419,9.5419,9.5419,9.5419,9.5419,9.5419,9.5419,9.5419,9.5419,9.5419,9.5419,9.5419,9.5419,9.5419,9.5419,9.5419,9.5419,9.5419,9.5419,9.5419,9.5419,9.5419,9.5419,9.5419,9.5419,9.5419,9.5419,9.5419,9.5419,9.5419,9.5419,9.5419,9.5419,9.5419,9.5419,9.5419,9.5419,9.5419,9.5419,9.5274,9.4819,9.4001,9.3893,9.308,9.1632,9.1632,9.1233,7.7289,7.776,7.8159,7.8666,7.939,8.0223,8.102,8.1762,8.2559,8.3428,8.4533,8.533,8.533,8.667,8.8227,8.9531,9.1342,9.3479,9.6195,9.6919,9.7608,9.8839,9.9346,9.96,9.9636,9.9998,10.0215,10.0215,10.0215,10.0215,10.0215,10.0215,10.0215,10.0215,9.9853,9.9056,9.7825,9.7789,9.6992,9.5419,9.5419,9.5419,9.5419,9.5419,9.5419,9.5419,9.5419,9.5419,9.5419,9.5419,9.5419,9.5419,9.5419,9.5419,9.5419,9.5419,9.5419,9.5419,9.5419,9.5419,9.5419,9.5419,9.5419,9.5419,9.5419,9.5419,9.5419,9.5419,9.5419,9.5419,9.5419,9.5419,9.5419,9.5419,9.5419,9.5419,9.5419,9.5419,9.5419,9.5419,9.5419,9.5419,9.5419,9.5419,9.5419,9.5419,9.5419,9.5419,9.5419,9.5419,9.5419,9.5419,9.5419,9.5419,9.5419,9.5419,9.5419,9.5419,9.5419,9.5419,9.5419,9.5419,9.5419,9.5419,9.5419,9.5,9.4182,9.4182,9.3603,9.2465,9.2465,9.203,7.7507,7.7905,7.8448,8.0078,8.0802,8.1382,8.2342,8.2885,8.3537,0.0,8.5873,8.6452,8.6452,8.8372,9.0618,9.2682,9.3986,9.5326,9.6919,9.7137,9.768,9.9129,9.9274,9.9527,10.0085,10.0215,10.0215,10.0215,10.0215,10.0215,10.0215,10.0215,10.0215,10.0215,10.0215,9.9527,9.8078,9.7897,9.6992,9.5419,9.5419,9.5419,9.5419,9.5419,9.5419,9.5419,9.5419,9.5419,9.5419,9.5419,9.5419,9.5419,9.5419,9.5419,9.5419,9.5419,9.5419,9.5419,9.5419,9.5419,9.5419,9.5419,9.5419,9.5419,9.5419,9.5419,9.5419,9.5419,9.5419,9.5419,9.5419,9.5419,9.5419,9.5419,9.5419,9.5419,9.5419,9.5419,9.5419,9.5419,9.5419,9.5419,9.5419,9.5419,9.5419,9.5419,9.5419,9.5419,9.5419,9.5419,9.5419,9.5419,9.5419,9.5419,9.5419,9.5419,9.5419,9.5419,9.5419,9.5419,9.5419,9.5419,9.5419,9.5419,9.5419,9.5109,9.4493,9.4493,9.4094,9.3277,9.3277,9.2863,7.8195,7.9173,8.0114,8.1726,8.1599,8.1527,8.3066,8.4569,0.0,8.6651,0.0,8.8027,8.8027,8.9982,9.1921,9.2863,9.4927,9.6992,9.8585,9.8839,9.9165,9.9998,10.0107,10.0107,10.0215,10.0215,10.0215,10.0215,10.0215,10.0215,10.0215,10.0215,10.0215,10.0215,10.0215,9.9781,9.8911,9.8151,9.6992,9.5419,9.5419,9.5419,9.5419,9.5419,9.5419,9.5419,9.5419,9.5419,9.5419,9.5419,9.5419,9.5419,9.5419,9.5419,9.5419,9.5419,9.5419,9.5419,9.5419,9.5419,9.5419,9.5419,9.5419,9.5419,9.5419,9.5419,9.5419,9.5419,9.5419,9.5419,9.5419,9.5419,9.5419,9.5419,9.5419,9.5419,9.5419,9.5419,9.5419,9.5419,9.5419,9.5419,9.5419,9.5419,9.5419,9.5419,9.5419,9.5419,9.5419,9.5419,9.5419,9.5419,9.5419,9.5419,9.5419,9.5419,9.5419,9.5419,9.5419,9.5419,9.5419,9.5419,9.5419,9.5419,9.5419,9.5383,9.5311,9.5311,9.4891,9.411,9.411,9.3675,7.8412,7.9643,8.0911,8.2016,8.3193,8.4243,8.4859,8.5837,8.6851,8.7592,8.9185,0.0,9.1068,9.1523,9.2537,9.4855,9.6412,9.7897,9.9527,9.9744,9.9853,10.0215,10.0215,10.0215,10.0215,10.0215,10.0215,10.0215,10.0215,10.0215,10.0215,10.0215,10.0215,10.0215,10.0215,9.9563,9.826,9.7934,9.6992,9.5419,9.5419,9.5419,9.5419,9.5419,9.5419,9.5419,9.5419,9.5419,9.5419,9.5419,9.5419,9.5419,9.5419,9.5419,9.5419,9.5419,9.5419,9.5419,9.5419,9.5419,9.5419,9.5419,9.5419,9.5419,9.5419,9.5419,9.5419,9.5419,9.5419,9.5419,9.5419,9.5419,9.5419,9.5419,9.5419,9.5419,9.5419,9.5419,9.5419,9.5419,9.5419,9.5419,9.5419,9.5419,9.5419,9.5419,9.5419,9.5419,9.5419,9.5419,9.5419,9.5419,9.5419,9.5419,9.5419,9.5419,9.5419,9.5419,9.5419,9.5419,9.5419,9.5419,9.5419,9.5419,9.5419,9.5419,9.5419,9.5419,9.5217,9.4927,9.4927,9.4529,7.8774,7.9897,8.1056,8.2342,8.3917,8.5475,8.6706,8.7829,8.8879,8.9873,9.1233,9.2356,9.2899,9.2972,9.3732,9.6195,9.768,9.8948,9.9976,10.0215,10.0215,10.0215,10.0215,10.0215,10.0215,10.0215,10.0215,10.0215,10.0215,10.0215,10.0215,10.0215,10.0107,9.9853,9.9817,9.9165,9.7825,9.7535,9.6847,9.5782,9.5528,9.5419,9.5419,9.5419,9.5419,9.5419,9.5419,9.5419,9.5419,9.5419,9.5419,9.5419,9.5419,9.5419,9.5419,9.5419,9.5419,9.5419,9.5419,9.5419,9.5419,9.5419,9.5419,9.5419,9.5419,9.5419,9.5419,9.5419,9.5419,9.5419,9.5419,9.5419,9.5419,9.5419,9.5419,9.5419,9.5419,9.5419,9.5419,9.5419,9.5419,9.5419,9.5419,9.5419,9.5419,9.5419,9.5419,9.5419,9.5419,9.5419,9.5419,9.5419,9.5419,9.5419,9.5419,9.5419,9.5419,9.5419,9.5419,9.5419,9.5419,9.5419,9.5419,9.5419,9.5419,9.5419,9.5419,9.5419,9.5419,9.5419,9.5419,9.5109,7.9462,7.9897,8.0476,8.2921,8.3537,8.4588,8.8517,9.0654,9.2247,9.3893,9.3567,9.2987,9.3044,9.4312,9.5673,9.6449,9.8622,10.0215,10.0215,10.0215,10.0215,10.0215,10.0215,10.0215,10.0215,10.0215,10.0215,10.0215,10.0215,10.0215,10.0215,10.0215,9.9817,9.902,9.8984,9.8622,9.7789,9.6992,9.6593,9.6579,9.5782,9.5419,9.5419,9.5419,9.5419,9.5419,9.5419,9.5419,9.5419,9.5419,9.5419,9.5419,9.5419,9.5419,9.5419,9.5419,9.5419,9.5419,9.5419,9.5419,9.5419,9.5419,9.5419,9.5419,9.5419,9.5419,9.5419,9.5419,9.5419,9.5419,9.5419,9.5419,9.5419,9.5419,9.5419,9.5419,9.5419,9.5419,9.5419,9.5419,9.5419,9.5419,9.5419,9.5419,9.5419,9.5419,9.5419,9.5419,9.5419,9.5419,9.5419,9.5419,9.5419,9.5419,9.5419,9.5419,9.5419,9.5419,9.5419,9.5419,9.5419,9.5419,9.5419,9.5419,9.5419,9.5419,9.5419,9.5419,9.5419,9.5419,9.5419,9.5419,7.9607,8.0332,8.1346,8.3736,8.5583,8.7575,9.0436,9.1016,9.1885,9.5217,9.4819,9.4022,9.4565,9.5093,9.5673,9.6449,9.8151,9.9563,10.0107,10.0215,10.0215,10.0215,10.0215,10.0215,10.0215,10.0215,10.0215,10.0215,9.9672,9.96,10.0215,9.9672,9.9237,9.902,9.8984,9.8332,9.6956,9.6702,9.6325,9.5745,9.5528,9.5419,9.5419,9.5419,9.5419,9.5419,9.5419,9.5419,9.5419,9.5419,9.5419,9.5419,9.5419,9.5419,9.5419,9.5419,9.5419,9.5419,9.5419,9.5419,9.5419,9.5419,9.5419,9.5419,9.5419,9.5419,9.5419,9.5419,9.5419,9.5419,9.5419,9.5419,9.5419,9.5419,9.5419,9.5419,9.5419,9.5419,9.5419,9.5419,9.5419,9.5419,9.5419,9.5419,9.5419,9.5419,9.5419,9.5419,9.5419,9.5419,9.5419,9.5419,9.5419,9.5419,9.5419,9.5419,9.5419,9.5419,9.5419,9.5419,9.5419,9.5419,9.5419,9.5419,9.5419,9.5419,9.5419,9.5419,9.5419,9.5419,9.5419,9.5419,8.0549,8.1201,8.2215,8.4931,8.6687,8.8606,9.1994,9.3117,9.4239,9.6992,9.6521,9.5797,9.6268,9.634,9.6593,9.7427,9.8622,9.9636,10.0107,10.0215,10.0215,10.0215,10.0215,10.0215,10.0215,10.0215,10.0215,10.0215,9.9744,9.9708,10.0215,9.9455,9.8839,9.8513,9.8223,9.7427,9.6144,9.6144,9.589,9.5419,9.5419,9.5419,9.5419,9.5419,9.5419,9.5419,9.5419,9.5419,9.5419,9.5419,9.5419,9.5419,9.5419,9.5419,9.5419,9.5419,9.5419,9.5419,9.5419,9.5419,9.5419,9.5419,9.5419,9.5419,9.5419,9.5419,9.5419,9.5419,9.5419,9.5419,9.5419,9.5419,9.5419,9.5419,9.5419,9.5419,9.5419,9.5419,9.5419,9.5419,9.5419,9.5419,9.5419,9.5419,9.5419,9.5419,9.5419,9.5419,9.5419,9.5419,9.5419,9.5419,9.5419,9.5419,9.5419,9.5419,9.5419,9.5419,9.5419,9.5419,9.5419,9.5419,9.5419,9.5419,9.5419,9.5419,9.5419,9.5419,9.5419,9.5419,9.5419,9.5419,8.1979,8.2414,8.3175,8.6397,8.7483,8.8932,9.3494,9.6268,9.8115,9.8839,9.8404,9.7897,9.7897,9.7897,9.8151,9.8875,9.9672,10.0215,10.0215,10.0215,10.0215,10.0215,10.0215,10.0215,10.0215,10.0215,10.0215,10.0107,9.9998,9.9998,9.9998,9.9237,9.8441,9.7716,9.6956,9.6216,9.5419,9.5419,9.5419,9.5419,9.5419,9.5419,9.5419,9.5419,9.5419,9.5419,9.5419,9.5419,9.5419,9.5419,9.5419,9.5419,9.5419,9.5419,9.5419,9.5419,9.5419,9.5419,9.5419,9.5419,9.5419,9.5419,9.5419,9.5419,9.5419,9.5419,9.5419,9.5419,9.5419,9.5419,9.5419,9.5419,9.5419,9.5419,9.5419,9.5419,9.5419,9.5419,9.5419,9.5419,9.5419,9.5419,9.5419,9.5419,9.5419,9.5419,9.5419,9.5419,9.5419,9.5419,9.5419,9.5419,9.5419,9.5419,9.5419,9.5419,9.5419,9.5419,9.5419,9.5419,9.5419,9.5419,9.5419,9.5419,9.5419,9.5419,9.5419,9.5419,9.5419,9.5419,9.5419,9.5419,8.2794,8.3247,8.4153,8.7937,9.1269,9.4203,9.6485,9.7934,9.8803,9.8948,9.8875,9.873,9.873,9.873,9.8803,9.8984,9.9672,10.0215,10.0215,10.0215,10.0215,10.0215,10.0215,10.0215,10.0215,10.0215,9.9962,9.931,9.8658,9.8332,9.8332,9.7535,9.7028,9.6847,9.6666,9.6216,9.5419,9.5419,9.5419,9.5419,9.5419,9.5419,9.5419,9.5419,9.5419,9.5419,9.5419,9.5419,9.5419,9.5419,9.5419,9.5419,9.5419,9.5419,9.5419,9.5419,9.5419,9.5419,9.5419,9.5419,9.5419,9.5419,9.5419,9.5419,9.5419,9.5419,9.5419,9.5419,9.5419,9.5419,9.5419,9.5419,9.5419,9.5419,9.5419,9.5419,9.5419,9.5419,9.5419,9.5419,9.5419,9.5419,9.5419,9.5419,9.5419,9.5419,9.5419,9.5419,9.5419,9.5419,9.5419,9.5419,9.5419,9.5419,9.5419,9.5419,9.5419,9.5419,9.5419,9.5419,9.5419,9.5419,9.5419,9.5419,9.5419,9.5419,9.5419,9.5419,9.5419,9.5419,9.5419,9.5419,8.3627,8.4352,8.5583,8.9567,9.2972,9.5818,9.7427,9.8115,9.8622,9.9419,9.9563,9.9563,9.9563,9.9563,9.9563,9.9563,9.9926,10.0215,10.0215,10.0215,10.0215,10.0215,10.0215,10.0215,10.0215,9.9853,9.9455,9.902,9.826,9.7789,9.7789,9.7028,9.6593,9.6593,9.6253,9.5818,9.5419,9.5419,9.5419,9.5419,9.5419,9.5419,9.5419,9.5419,9.5419,9.5419,9.5419,9.5419,9.5419,9.5419,9.5419,9.5419,9.5419,9.5419,9.5419,9.5419,9.5419,9.5419,9.5419,9.5419,9.5419,9.5419,9.5419,9.5419,9.5419,9.5419,9.5419,9.5419,9.5419,9.5419,9.5419,9.5419,9.5419,9.5419,9.5419,9.5419,9.5419,9.5419,9.5419,9.5419,9.5419,9.5419,9.5419,9.5419,9.5419,9.5419,9.5419,9.5419,9.5419,9.5419,9.5419,9.5419,9.5419,9.5419,9.5419,9.5419,9.5419,9.5419,9.5419,9.5419,9.5419,9.5419,9.5419,9.5419,9.5419,9.5419,9.5419,9.5419,9.5419,9.5419,9.5419,9.5419,8.4298,8.5692,8.7575,9.1125,9.3805,9.5963,9.7282,9.7789,9.8368,9.9708,10.0107,10.0215,10.0215,10.0215,10.0215,10.0215,10.0215,10.0215,10.0215,10.0215,10.0215,10.0215,10.0215,10.0085,9.9998,9.9382,9.8875,9.8622,9.797,9.7535,9.739,9.6738,9.6397,9.6397,9.5745,9.5419,9.5419,9.5419,9.5419,9.5419,9.5419,9.5419,9.5419,9.5419,9.5419,9.5419,9.5419,9.5419,9.5419,9.5419,9.5419,9.5419,9.5419,9.5419,9.5419,9.5419,9.5419,9.5419,9.5419,9.5419,9.5419,9.5419,9.5419,9.5419,9.5419,9.5419,9.5419,9.5419,9.5419,9.5419,9.5419,9.5419,9.5419,9.5419,9.5419,9.5419,9.5419,9.5419,9.5419,9.5419,9.5419,9.5419,9.5419,9.5419,9.5419,9.5419,9.5419,9.5419,9.5419,9.5419,9.5419,9.5419,9.5419,9.5419,9.5419,9.5419,9.5419,9.5419,9.5419,9.5419,9.5419,9.5419,9.5419,9.5419,9.5419,9.5419,9.5419,9.5419,9.5419,9.5419,9.5419,9.5419,8.446,8.7285,9.0436,9.2356,9.4638,9.6485,9.6702,9.7825,9.8911,9.9129,9.9708,10.0215,10.0215,10.0215,10.0215,10.0215,10.0215,10.0215,10.0215,10.0215,10.0215,10.0215,10.0215,9.9926,9.9237,9.9056,9.8404,9.7028,9.6811,9.647,9.5782,9.5637,9.5564,9.5564,9.5456,9.5419,9.5419,9.5419,9.5419,9.5419,9.5419,9.5419,9.5419,9.5419,9.5419,9.5419,9.5419,9.5419,9.5419,9.5419,9.5419,9.5419,9.5419,9.5419,9.5419,9.5419,9.5419,9.5419,9.5419,9.5419,9.5419,9.5419,9.5419,9.5419,9.5419,9.5419,9.5419,9.5419,9.5419,9.5419,9.5419,9.5419,9.5419,9.5419,9.5419,9.5419,9.5419,9.5419,9.5419,9.5419,9.5419,9.5419,9.5419,9.5419,9.5419,9.5419,9.5419,9.5419,9.5419,9.5419,9.5419,9.5419,9.5419,9.5419,9.5419,9.5419,9.5419,9.5419,9.5419,9.5419,9.5419,9.5419,9.5419,9.5419,9.5419,9.5419,9.5419,9.5419,9.5419,9.5419,9.5419,9.5419,8.6742,8.8915,9.1197,9.3732,9.5471,9.6847,9.7716,9.8477,9.8984,9.8984,9.9274,9.9672,10.0107,10.0215,10.0215,10.0215,9.9817,9.9708,10.0107,9.9419,9.902,9.9491,9.9129,9.873,9.8368,9.7934,9.7354,9.663,9.6159,9.5782,9.5419,9.5419,9.5419,9.5419,9.5419,9.5419,9.5419,9.5419,9.5419,9.5419,9.5419,9.5419,9.5419,9.5419,9.5419,9.5419,9.5419,9.5419,9.5419,9.5419,9.5419,9.5419,9.5419,9.5419,9.5419,9.5419,9.5419,9.5419,9.5419,9.5419,9.5419,9.5419,9.5419,9.5419,9.5419,9.5419,9.5419,9.5419,9.5419,9.5419,9.5419,9.5419,9.5419,9.5419,9.5419,9.5419,9.5419,9.5419,9.5419,9.5419,9.5419,9.5419,9.5419,9.5419,9.5419,9.5419,9.5419,9.5419,9.5419,9.5419,9.5419,9.5419,9.5419,9.5419,9.5419,9.5419,9.5419,9.5419,9.5419,9.5419,9.5419,9.5419,9.5419,9.5419,9.5419,9.5419,9.5419,9.5419,9.5419,9.5419,9.5419,9.5419,8.8227,8.9676,9.1016,9.4022,9.5564,9.6666,9.8078,9.8549,9.8694,9.8694,9.8883,9.9158,9.9527,9.9781,9.9962,10.0215,9.9527,9.9201,9.9817,9.8694,9.8006,9.8622,9.8151,9.7716,9.7499,9.6956,9.6542,9.6325,9.5745,9.5419,9.5419,9.5419,9.5419,9.5419,9.5419,9.5419,9.5419,9.5419,9.5419,9.5419,9.5419,9.5419,9.5419,9.5419,9.5419,9.5419,9.5419,9.5419,9.5419,9.5419,9.5419,9.5419,9.5419,9.5419,9.5419,9.5419,9.5419,9.5419,9.5419,9.5419,9.5419,9.5419,9.5419,9.5419,9.5419,9.5419,9.5419,9.5419,9.5419,9.5419,9.5419,9.5419,9.5419,9.5419,9.5419,9.5419,9.5419,9.5419,9.5419,9.5419,9.5419,9.5419,9.5419,9.5419,9.5419,9.5419,9.5419,9.5419,9.5419,9.5419,9.5419,9.5419,9.5419,9.5419,9.5419,9.5419,9.5419,9.5419,9.5419,9.5419,9.5419,9.5419,9.5419,9.5419,9.5419,9.5419,9.5419,9.5419,9.5419,9.5419,9.5419,9.5419,8.7411,8.8843,9.0038,9.2501,9.4312,9.5673,9.6542,9.7318,9.7861,9.7861,9.8613,9.8989,9.8085,9.8549,9.931,10.0107,9.9527,9.902,9.9056,9.8332,9.7825,9.7861,9.7825,9.7499,9.6738,9.6593,9.6268,9.5528,9.5419,9.5419,9.5419,9.5419,9.5419,9.5419,9.5419,9.5419,9.5419,9.5419,9.5419,9.5419,9.5419,9.5419,9.5419,9.5419,9.5419,9.5419,9.5419,9.5419,9.5419,9.5419,9.5419,9.5419,9.5419,9.5419,9.5419,9.5419,9.5419,9.5419,9.5419,9.5419,9.5419,9.5419,9.5419,9.5419,9.5419,9.5419,9.5419,9.5419,9.5419,9.5419,9.5419,9.5419,9.5419,9.5419,9.5419,9.5419,9.5419,9.5419,9.5419,9.5419,9.5419,9.5419,9.5419,9.5419,9.5419,9.5419,9.5419,9.5419,9.5419,9.5419,9.5419,9.5419,9.5419,9.5419,9.5419,9.5419,9.5419,9.5419,9.5419,9.5419,9.5419,9.5419,9.5419,9.5419,9.5419,9.5419,9.5419,9.5419,9.5419,9.5419,9.5419,9.5419,8.7483,8.8807,9.011,9.3044,9.4964,9.6521,9.7825,9.8839,9.9237,9.8221,9.8354,9.8464,9.758,9.8505,9.9263,9.8932,9.8726,9.8614,9.8614,9.7486,9.6988,9.7915,9.7095,9.6509,9.6579,9.6123,9.5709,9.5419,9.5419,9.5419,9.5419,9.5419,9.5419,9.5419,9.5419,9.5419,9.5419,9.5419,9.5419,9.5419,9.5419,9.5419,9.5419,9.5419,9.5419,9.5419,9.5419,9.5419,9.5419,9.5419,9.5419,9.5419,9.5419,9.5419,9.5419,9.5419,9.5419,9.5419,9.5419,9.5419,9.5419,9.5419,9.5419,9.5419,9.5419,9.5419,9.5419,9.5419,9.5419,9.5419,9.5419,9.5419,9.5419,9.5419,9.5419,9.5419,9.5419,9.5419,9.5419,9.5419,9.5419,9.5419,9.5419,9.5419,9.5419,9.5419,9.5419,9.5419,9.5419,9.5419,9.5419,9.5419,9.5419,9.5419,9.5419,9.5419,9.5419,9.5419,9.5419,9.5419,9.5419,9.5419,9.5419,9.5419,9.5419,9.5419,9.5419,9.5419,9.5419,9.5419,9.5419,9.5419,8.6525,8.801,8.9712,9.2682,9.4265,9.5721,9.815,9.8823,9.8696,9.7959,9.7923,9.777,9.6968,9.8018,9.8858,9.8277,9.8105,9.8099,9.8354,9.7021,9.647,9.7673,9.6634,9.5933,9.627,9.5814,9.5446,9.5419,9.5419,9.5419,9.5419,9.5419,9.5419,9.5419,9.5419,9.5419,9.5419,9.5419,9.5419,9.5419,9.5419,9.5419,9.5419,9.5419,9.5419,9.5419,9.5419,9.5419,9.5419,9.5419,9.5419,9.5419,9.5419,9.5419,9.5419,9.5419,9.5419,9.5419,9.5419,9.5419,9.5419,9.5419,9.5419,9.5419,9.5419,9.5419,9.5419,9.5419,9.5419,9.5419,9.5419,9.5419,9.5419,9.5419,9.5419,9.5419,9.5419,9.5419,9.5419,9.5419,9.5419,9.5419,9.5419,9.5419,9.5419,9.5419,9.5419,9.5419,9.5419,9.5419,9.5419,9.5419,9.5419,9.5419,9.5419,9.5419,9.5419,9.5419,9.5419,9.5419,9.5419,9.5419,9.5419,9.5419,9.5419,9.5419,9.5419,9.5419,9.5419,9.5419,9.5419,9.5419,0.0,0.0,0.0,9.1052,9.1845,9.3058,9.7055,9.6785,9.5938,9.6964,9.7171,9.6952,9.6166,9.7036,9.798,9.829,9.7718,9.7499,9.8302,9.7005,9.6312,9.7134,9.6494,9.5939,9.5752,9.5731,9.5612,9.544,9.5419,9.5419,9.5419,9.5419,9.5419,9.5419,9.5419,9.5419,9.5419,9.5419,9.5419,9.5419,9.5419,9.5419,9.5419,9.5419,9.5419,9.5419,9.5419,9.5419,9.5419,9.5419,9.5419,9.5419,9.5419,9.5419,9.5419,9.5419,9.5419,9.5419,9.5419,9.5419,9.5419,9.5419,9.5419,9.5419,9.5419,9.5419,9.5419,9.5419,9.5419,9.5419,9.5419,9.5419,9.5419,9.5419,9.5419,9.5419,9.5419,9.5419,9.5419,9.5419,9.5419,9.5419,9.5419,9.5419,9.5419,9.5419,9.5419,9.5419,9.5419,9.5419,9.5419,9.5419,9.5419,9.5419,9.5419,9.5419,9.5419,9.5419,9.5419,9.5419,9.5419,9.5419,9.5419,9.5419,9.5419,9.5419,9.5419,9.5419,9.5419,9.5419,9.5419,9.5419,8.361,0.0,0.0,0.0,0.0,0.0,9.3946,9.4871,9.5283,9.6146,9.6588,9.6729,9.6352,9.6695,9.7051,9.7154,9.7464,9.7777,9.8014,9.7134,9.6746,9.7392,9.6771,9.6436,9.6761,9.6125,9.5674,9.5612,9.5467,9.5419,9.5419,9.5419,9.5419,9.5419,9.5419,9.5419,9.5419,9.5419,9.5419,9.5419,9.5419,9.5419,9.5419,9.5419,9.5419,9.5419,9.5419,9.5419,9.5419,9.5419,9.5419,9.5419,9.5419,9.5419,9.5419,9.5419,9.5419,9.5419,9.5419,9.5419,9.5419,9.5419,9.5419,9.5419,9.5419,9.5419,9.5419,9.5419,9.5419,9.5419,9.5419,9.5419,9.5419,9.5419,9.5419,9.5419,9.5419,9.5419,9.5419,9.5419,9.5419,9.5419,9.5419,9.5419,9.5419,9.5419,9.5419,9.5419,9.5419,9.5419,9.5419,9.5419,9.5419,9.5419,9.5419,9.5419,9.5419,9.5419,9.5419,9.5419,9.5419,9.5419,9.5419,9.5419,9.5419,9.5419,9.5419,9.5419,9.5419,9.5419,9.5419,9.5419,0.0,0.0,0.0,0.0,0.0,0.0,9.2585,9.331,9.3742,9.5337,9.5882,9.6184,9.6475,9.6902,9.7199,9.7199,9.7566,9.7916,9.7916,9.7199,9.6977,9.7667,9.6946,9.6479,9.6697,9.6072,9.5654,9.5571,9.5482,9.5419,9.5419,9.5419,9.5419,9.5419,9.5419,9.5419,9.5419,9.5419,9.5419,9.5419,9.5419,9.5419,9.5419,9.5419,9.5419,9.5419,9.5419,9.5419,9.5419,9.5419,9.5419,9.5419,9.5419,9.5419,9.5419,9.5419,9.5419,9.5419,9.5419,9.5419,9.5419,9.5419,9.5419,9.5419,9.5419,9.5419,9.5419,9.5419,9.5419,9.5419,9.5419,9.5419,9.5419,9.5419,9.5419,9.5419,9.5419,9.5419,9.5419,9.5419,9.5419,9.5419,9.5419,9.5419,9.5419,9.5419,9.5419,9.5419,9.5419,9.5419,9.5419,9.5419,9.5419,9.5419,9.5419,9.5419,9.5419,9.5419,9.5419,9.5419,9.5419,9.5419,9.5419,9.5419,9.5419,9.5419,9.5419,9.5419,9.5419,9.5419,9.5419,9.5419,0.0,0.0,0.0,0.0,8.771,0.0,9.1862,9.1909,9.1884,9.4397,9.5004,9.5428,9.6481,9.7273,9.775,9.775,9.775,9.7787,9.7897,9.7199,9.6979,9.7676,9.6971,9.6335,9.606,9.5858,9.5633,9.5461,9.5419,9.5419,9.5419,9.5419,9.5419,9.5419,9.5419,9.5419,9.5419,9.5419,9.5419,9.5419,9.5419,9.5419,9.5419,9.5419,9.5419,9.5419,9.5419,9.5419,9.5419,9.5419,9.5419,9.5419,9.5419,9.5419,9.5419,9.5419,9.5419,9.5419,9.5419,9.5419,9.5419,9.5419,9.5419,9.5419,9.5419,9.5419,9.5419,9.5419,9.5419,9.5419,9.5419,9.5419,9.5419,9.5419,9.5419,9.5419,9.5419,9.5419,9.5419,9.5419,9.5419,9.5419,9.5419,9.5419,9.5419,9.5419,9.5419,9.5419,9.5419,9.5419,9.5419,9.5419,9.5419,9.5419,9.5419,9.5419,9.5419,9.5419,9.5419,9.5419,9.5419,9.5419,9.5419,9.5419,9.5419,9.5419,9.5419,9.5419,9.5419,9.5419,9.5419,9.5419,0.0,0.0,0.0,0.0,0.0,0.0,8.846,8.9943,9.1554,9.2723,9.3759,9.4866,9.6216,9.6736,9.6942,9.6942,9.6942,9.7163,9.7787,9.7199,9.6759,9.6906,9.6757,9.655,9.6335,9.608,9.5858,9.5654,9.5467,9.5419,9.5419,9.5419,9.5419,9.5419,9.5419,9.5419,9.5419,9.5419,9.5419,9.5419,9.5419,9.5419,9.5419,9.5419,9.5419,9.5419,9.5419,9.5419,9.5419,9.5419,9.5419,9.5419,9.5419,9.5419,9.5419,9.5419,9.5419,9.5419,9.5419,9.5419,9.5419,9.5419,9.5419,9.5419,9.5419,9.5419,9.5419,9.5419,9.5419,9.5419,9.5419,9.5419,9.5419,9.5419,9.5419,9.5419,9.5419,9.5419,9.5419,9.5419,9.5419,9.5419,9.5419,9.5419,9.5419,9.5419,9.5419,9.5419,9.5419,9.5419,9.5419,9.5419,9.5419,9.5419,9.5419,9.5419,9.5419,9.5419,9.5419,9.5419,9.5419,9.5419,9.5419,9.5419,9.5419,9.5419,9.5419,9.5419,9.5419,9.5419,9.5419,9.5419,0.0,0.0,0.0,8.743,0.0,0.0,0.0,8.8977,8.9857,9.1461,9.2074,9.2921,9.484,9.5377,9.5621,9.6061,9.6428,9.6832,9.7236,9.6942,9.6685,9.6685,9.6492,9.6299,9.6236,9.5879,9.5654,9.555,9.5482,9.5419,9.5419,9.5419,9.5419,9.5419,9.5419,9.5419,9.5419,9.5419,9.5419,9.5419,9.5419,9.5419,9.5419,9.5419,9.5419,9.5419,9.5419,9.5419,9.5419,9.5419,9.5419,9.5419,9.5419,9.5419,9.5419,9.5419,9.5419,9.5419,9.5419,9.5419,9.5419,9.5419,9.5419,9.5419,9.5419,9.5419,9.5419,9.5419,9.5419,9.5419,9.5419,9.5419,9.5419,9.5419,9.5419,9.5419,9.5419,9.5419,9.5419,9.5419,9.5419,9.5419,9.5419,9.5419,9.5419,9.5419,9.5419,9.5419,9.5419,9.5419,9.5419,9.5419,9.5419,9.5419,9.5419,9.5419,9.5419,9.5419,9.5419,9.5419,9.5419,9.5419,9.5419,9.5419,9.5419,9.5419,9.5419,9.5419,9.5419,9.5419,9.5419,9.5419,0.0,0.0,0.0,0.0,0.0,8.8334,0.0,0.0,0.0,9.0311,9.0499,9.1051,9.3357,9.3892,9.4225,9.4941,9.5803,9.6334,9.6187,9.6297,9.65,9.6685,9.6169,9.5818,9.5963,9.5508,9.5208,9.5166,9.5187,9.528,9.5383,9.5419,9.5419,9.5419,9.5419,9.5419,9.5419,9.5419,9.5419,9.5419,9.5419,9.5419,9.5419,9.5419,9.5419,9.5419,9.5419,9.5419,9.5419,9.5419,9.5419,9.5419,9.5419,9.5419,9.5419,9.5419,9.5419,9.5419,9.5419,9.5419,9.5419,9.5419,9.5419,9.5419,9.5419,9.5419,9.5419,9.5419,9.5419,9.5419,9.5419,9.5419,9.5419,9.5419,9.5419,9.5419,9.5419,9.5419,9.5419,9.5419,9.5419,9.5419,9.5419,9.5419,9.5419,9.5419,9.5419,9.5419,9.5419,9.5419,9.5419,9.5419,9.5419,9.5419,9.5419,9.5419,9.5419,9.5419,9.5419,9.5419,9.5419,9.5419,9.5419,9.5419,9.5419,9.5419,9.5419,9.5419,9.5419,9.5419,9.5419,9.5419,0.0,0.0,0.0,0.0,8.9959,0.0,8.7145,0.0,8.9356,8.8955,0.0,9.07,9.2606,0.0,0.0,9.3308,9.4515,9.5096,9.4327,9.4876,9.5703,9.6593,9.5657,9.5218,9.5927,9.5158,9.4534,9.4348,9.4513,9.4824,9.5383,9.5419,9.5419,9.5419,9.5419,9.5419,9.5419,9.5419,9.5419,9.5419,9.5419,9.5419,9.5419,9.5419,9.5419,9.5419,9.5419,9.5419,9.5419,9.5419,9.5419,9.5419,9.5419,9.5419,9.5419,9.5419,9.5419,9.5419,9.5419,9.5419,9.5419,9.5419,9.5419,9.5419,9.5419,9.5419,9.5419,9.5419,9.5419,9.5419,9.5419,9.5419,9.5419,9.5419,9.5419,9.5419,9.5419,9.5419,9.5419,9.5419,9.5419,9.5419,9.5419,9.5419,9.5419,9.5419,9.5419,9.5419,9.5419,9.5419,9.5419,9.5419,9.5419,9.5419,9.5419,9.5419,9.5419,9.5419,9.5419,9.5419,9.5419,9.5419,9.5419,9.5419,9.5419,9.5419,9.5419,9.5419,9.5419,9.5419,9.5419,9.5419,0.0,0.0,0.0,0.0,0.0,0.0,8.8101,0.0,8.7681,8.7827,0.0,0.0,0.0,0.0,0.0,0.0,9.3167,9.364,9.375,9.3944,9.4455,9.5491,9.4814,9.4312,9.4418,9.4797,9.4597,9.3587,9.4012,9.4431,9.4674,9.471,9.4927,9.5383,9.5419,9.5419,9.5419,9.5419,9.5419,9.5419,9.5419,9.5419,9.5419,9.5419,9.5419,9.5419,9.5419,9.5419,9.5419,9.5419,9.5419,9.5419,9.5419,9.5419,9.5419,9.5419,9.5419,9.5419,9.5419,9.5419,9.5419,9.5419,9.5419,9.5419,9.5419,9.5419,9.5419,9.5419,9.5419,9.5419,9.5419,9.5419,9.5419,9.5419,9.5419,9.5419,9.5419,9.5419,9.5419,9.5419,9.5419,9.5419,9.5419,9.5419,9.5419,9.5419,9.5419,9.5419,9.5419,9.5419,9.5419,9.5419,9.5419,9.5419,9.5419,9.5419,9.5419,9.5419,9.5419,9.5419,9.5419,9.5419,9.5419,9.5419,9.5419,9.5419,9.5419,9.5419,9.5419,9.5419,9.5419,9.5419,9.0917,0.0,0.0,0.0,0.0,0.0,0.0,0.0,0.0,0.0,8.7423,0.0,0.0,0.0,9.0219,9.1807,0.0,9.2713,9.2915,9.2741,9.3125,9.4438,9.4336,9.3891,9.3272,9.4384,9.4555,9.3117,9.3592,9.3918,9.3856,9.4074,9.4384,9.471,9.5166,9.5202,9.4767,9.5202,9.5311,9.5072,9.5311,9.5419,9.5419,9.5419,9.5419,9.5419,9.5419,9.5419,9.5419,9.5419,9.5419,9.5419,9.5419,9.5419,9.5419,9.5419,9.5419,9.5419,9.5419,9.5419,9.5419,9.5419,9.5419,9.5419,9.5419,9.5419,9.5419,9.5419,9.5419,9.5419,9.5419,9.5419,9.5419,9.5419,9.5419,9.5419,9.5419,9.5419,9.5419,9.5419,9.5419,9.5419,9.5419,9.5419,9.5419,9.5419,9.5419,9.5419,9.5419,9.5419,9.5419,9.5419,9.5419,9.5419,9.5419,9.5419,9.5419,9.5419,9.5419,9.5419,9.5419,9.5419,9.5419,9.5419,9.5419,9.5419,9.5419,9.5419,9.5419,9.5419,9.5419,9.5419,9.1884,9.249,9.2877,8.8576,8.8814,8.9162,8.5642,0.0,8.8135,0.0,0.0,0.0,0.0,0.0,0.0,0.0,0.0,0.0,0.0,9.097,9.1744,9.3775,9.448,9.4329,9.3121,9.3917,9.4083,9.308,9.3191,9.3248,9.3044,9.3784,9.3856,9.3117,9.4602,9.4638,9.308,9.4602,9.5,9.4255,9.5036,9.5419,9.5419,9.5419,9.5419,9.5419,9.5419,9.5419,9.5419,9.5419,9.5419,9.5419,9.5419,9.5419,9.5419,9.5419,9.5419,9.5419,9.5419,9.5419,9.5419,9.5419,9.5419,9.5419,9.5419,9.5419,9.5419,9.5419,9.5419,9.5419,9.5419,9.5419,9.5419,9.5419,9.5419,9.5419,9.5419,9.5419,9.5419,9.5419,9.5419,9.5419,9.5419,9.5419,9.5419,9.5419,9.5419,9.5419,9.5419,9.5419,9.5419,9.5419,9.5419,9.5419,9.5419,9.5419,9.5419,9.5419,9.5419,9.5419,9.5419,9.5419,9.5419,9.5419,9.5419,9.5419,9.5419,9.5419,9.5419,9.5419,9.5419,9.5419,9.3653,9.4112,9.4241,9.1106,9.0703,9.0299,8.7285,8.7554,8.8382,0.0,0.0,0.0,0.0,0.0,0.0,0.0,0.0,0.0,0.0,8.833,8.8772,9.1426,9.2364,9.2506,9.1687,9.326,9.3504,9.1559,9.1982,9.2272,9.2211,9.2465,9.2754,9.2987,9.3551,9.3551,9.3008,9.3551,9.395,9.4182,9.4493,9.4891,9.5419,9.5419,9.5419,9.5419,9.5419,9.5419,9.5419,9.5419,9.5419,9.5419,9.5419,9.5419,9.5419,9.5419,9.5419,9.5419,9.5419,9.5419,9.5419,9.5419,9.5419,9.5419,9.5419,9.5419,9.5419,9.5419,9.5419,9.5419,9.5419,9.5419,9.5419,9.5419,9.5419,9.5419,9.5419,9.5419,9.5419,9.5419,9.5419,9.5419,9.5419,9.5419,9.5419,9.5419,9.5419,9.5419,9.5419,9.5419,9.5419,9.5419,9.5419,9.5419,9.5419,9.5419,9.5419,9.5419,9.5419,9.5419,9.5419,9.5419,9.5419,9.5419,9.5419,9.5419,9.5419,9.5419,9.5419,9.5419,9.5419,9.5419,9.4593,9.4887,9.4905,9.2354,9.1876,9.1325,8.8691,8.8997,8.9828,8.973,0.0,0.0,0.0,0.0,0.0,0.0,0.0,0.0,0.0,8.7219,8.733,8.9495,9.0532,9.1228,9.1614,9.2691,9.2573,9.0726,9.1088,9.1233,9.0943,9.1487,9.1921,9.2139,9.2718,9.2754,9.2139,9.2718,9.3137,9.3473,9.397,9.4534,9.5089,9.5379,9.5524,9.5524,9.5524,9.5524,9.5488,9.544,9.5419,9.5419,9.5419,9.5419,9.5419,9.5419,9.5419,9.5419,9.5419,9.5419,9.5419,9.5419,9.5419,9.5419,9.5419,9.5419,9.5456,9.5745,9.5637,9.5492,9.5745,9.56,9.5419,9.5419,9.5419,9.5419,9.5419,9.5419,9.5419,9.5419,9.5419,9.5419,9.5419,9.5419,9.5419,9.5419,9.5419,9.5419,9.5419,9.5419,9.5419,9.5419,9.5419,9.5419,9.5419,9.5419,9.5419,9.5419,9.5419,9.5419,9.5419,9.5419,9.5673,9.6253,9.5709,9.5673,9.6231,9.5673,9.5419,9.5419,9.5419,9.5419]}]]